GFSGL_prec_cthk_000.txt.gz
RH
59 50 47 41 33 28 23 20 18 20 30 39 44 45 45 46 42 45 46 50 54 52 47 42 44 44 43 43 43 42 46 53 55 47 46 39 36 38 47 79 79 82 85
54 49 44 37 33 28 24 21 20 22 29 37 38 42 43 40 45 51 58 55 48 41 39 38 41 43 41 39 42 52 60 61 65 63 54 47 47 52 47 59 88 85 81
54 50 41 37 33 29 25 22 21 27 35 39 43 43 40 47 54 57 54 43 37 35 36 42 43 42 38 41 54 64 68 71 79 83 73 70 56 61 59 56 74 88 89
54 46 42 38 35 29 24 23 25 31 35 38 42 40 46 56 58 60 54 41 37 37 43 44 43 44 41 52 69 77 80 83 86 90 89 84 80 67 71 64 60 74 88
50 46 42 38 33 27 26 27 28 31 32 42 40 42 51 62 62 61 58 46 39 39 42 42 44 43 46 70 80 85 88 90 92 93 95 95 97 92 80 80 69 47 66
49 44 41 35 30 27 28 29 32 37 42 46 45 50 66 64 65 70 61 42 39 37 37 41 42 39 57 77 85 92 94 94 95 96 96 97 94 95 98 94 90 72 51
47 43 38 34 30 29 30 33 36 42 49 53 57 69 67 67 73 75 54 43 37 35 41 42 41 43 71 80 87 91 95 97 98 97 98 97 93 91 94 96 97 89 67
44 40 36 33 32 30 33 36 41 46 53 58 63 68 73 76 75 60 46 38 37 40 44 43 42 57 78 86 92 95 96 98 98 98 98 94 94 95 97 94 93 86 73
40 36 35 34 32 32 34 40 44 51 60 64 69 74 72 62 53 48 42 39 38 45 45 46 47 70 84 92 94 95 97 98 96 94 93 95 94 96 99 95 85 80 69
38 37 33 34 36 36 39 46 50 55 62 65 63 55 49 54 51 46 43 40 45 45 47 49 53 78 87 93 95 96 98 99 92 91 89 96 96 93 91 85 82 81 74
36 31 31 36 37 42 44 51 54 57 58 56 55 53 56 53 48 45 42 46 47 46 46 51 57 82 81 78 72 84 99 98 92 87 84 85 94 93 84 76 73 72 69
31 29 30 33 38 46 50 54 51 52 52 52 53 54 53 53 48 46 48 50 50 42 40 51 59 77 73 73 66 71 99 99 98 89 84 82 79 78 77 75 68 59 55
29 27 28 32 41 51 54 56 59 61 61 62 58 53 55 53 49 52 53 52 49 41 36 46 54 71 74 74 72 64 89 98 99 95 89 86 82 79 75 72 67 65 63
25 26 29 36 46 56 59 64 69 70 69 62 55 54 55 55 56 59 56 50 47 44 39 40 55 76 80 76 74 69 64 96 99 99 96 89 88 87 80 77 77 73 72
25 29 35 43 51 59 65 70 76 79 67 56 53 55 58 59 62 61 54 47 46 46 44 44 46 61 82 82 75 71 59 78 97 96 98 99 95 89 88 88 86 83 82
27 34 42 49 56 62 70 77 83 67 59 58 57 59 61 62 64 60 51 49 48 49 50 49 50 51 73 81 84 74 64 54 92 96 94 93 94 98 98 94 91 90 89
34 40 49 56 64 72 79 82 71 66 64 61 60 59 59 63 65 56 50 50 52 52 51 53 53 52 55 80 83 83 73 61 58 95 93 91 91 88 85 85 87 88 86
41 49 56 63 72 78 81 74 73 70 67 65 61 60 60 65 60 54 50 50 53 53 52 52 55 55 52 55 76 82 82 74 61 57 86 93 87 85 84 83 83 83 83
48 56 63 70 76 79 74 73 76 74 71 65 63 61 62 64 59 52 49 49 51 53 53 52 51 52 53 52 55 72 81 81 79 68 54 63 78 87 86 83 81 80 79
54 62 66 73 79 83 73 71 76 73 67 67 65 61 63 64 61 51 47 48 48 50 51 52 52 49 49 48 48 50 66 79 82 80 76 59 52 55 62 74 80 80 78
55 64 68 76 83 85 79 76 80 73 66 67 67 63 64 64 64 55 48 48 47 47 48 49 50 48 47 48 49 49 47 53 69 82 83 80 74 53 45 44 46 46 52
57 64 69 75 84 89 86 81 84 83 73 66 67 67 63 62 63 61 52 51 48 45 45 46 47 49 49 47 46 49 51 52 53 60 76 85 82 78 70 54 41 38 42
61 64 67 72 80 88 91 81 84 91 87 76 71 70 67 61 60 63 62 54 48 46 46 47 48 48 49 49 43 44 50 55 59 58 59 69 82 84 79 73 68 58 43
70 69 70 71 78 85 90 89 88 92 96 94 85 77 73 71 64 62 65 66 59 51 48 49 51 51 50 48 44 43 47 52 58 63 63 66 71 81 85 82 77 71 67
78 77 77 76 78 86 91 93 93 95 98 98 98 96 86 80 75 71 69 69 70 67 60 54 55 57 57 50 43 44 47 52 58 62 67 70 73 77 82 86 87 83 80
75 80 82 83 85 89 92 93 96 96 97 99 98 98 98 98 89 82 78 74 72 71 71 68 63 63 64 59 46 45 49 55 61 64 69 74 76 78 83 86 90 92 90

GFSGL_prec_cthk_003.txt.gz
RH
64 58 51 47 44 39 34 29 27 25 25 30 40 48 41 45 47 39 43 47 48 45 41 34 33 37 42 44 44 44 46 46 54 49 56 57 58 57 46 45 55 58 72
60 54 50 48 42 38 33 31 28 26 28 35 40 42 43 48 40 46 51 54 53 47 37 35 36 38 41 45 46 49 45 57 70 63 68 69 74 71 64 59 72 57 72
55 50 50 45 42 39 34 31 29 27 28 34 38 42 42 40 46 53 54 56 56 53 44 36 36 39 43 47 50 46 54 72 79 80 74 78 80 82 76 72 77 69 64
53 51 50 45 44 40 33 30 29 28 31 35 43 43 45 47 52 60 61 60 65 61 42 36 35 41 48 47 50 52 71 79 84 88 85 85 87 87 88 86 91 81 66
53 53 49 48 45 38 33 29 29 31 36 37 44 43 48 53 62 64 64 70 67 51 40 35 37 41 44 47 50 66 79 84 87 89 90 91 93 93 97 98 97 93 76
56 53 51 47 43 36 30 28 31 35 40 41 46 49 55 63 76 70 73 71 55 42 37 38 39 43 47 47 56 74 82 87 90 93 95 94 95 96 99 98 99 97 86
59 53 49 46 39 32 30 30 32 35 40 45 51 56 64 66 70 72 65 50 43 42 40 38 44 47 49 55 68 79 86 90 93 96 97 95 94 98 99 98 98 98 96
56 49 47 41 35 32 31 31 32 35 40 48 55 60 61 61 60 52 48 43 42 41 40 44 47 51 54 60 76 84 87 92 96 98 93 91 92 95 95 93 90 90 96
51 47 42 36 32 32 32 34 34 38 45 48 51 53 52 51 49 51 47 43 42 42 45 47 49 53 57 62 77 73 67 87 97 96 88 86 87 94 95 96 99 98 96
48 43 36 30 29 32 33 36 38 43 48 48 49 50 54 51 52 50 47 42 44 47 44 45 48 51 55 62 71 66 67 88 96 97 89 84 85 95 94 95 99 99 99
44 36 29 27 28 30 32 41 44 48 47 49 54 55 56 55 54 52 47 46 49 47 42 37 46 44 52 67 73 71 70 82 96 98 91 83 80 86 96 95 94 88 89
36 28 25 26 27 27 34 43 50 51 55 61 65 64 60 55 53 51 50 51 50 46 40 36 42 52 58 70 76 72 67 71 96 99 97 87 82 80 80 88 87 85 81
29 26 26 26 24 29 39 48 55 58 63 71 73 63 58 53 53 53 55 54 48 45 43 40 39 43 56 73 79 76 69 62 94 98 99 92 87 82 79 77 77 78 73
28 27 26 24 26 36 46 53 59 64 71 75 61 54 55 54 55 56 58 53 46 45 46 45 44 45 47 61 84 79 71 59 91 95 97 99 91 87 80 77 74 71 69
29 28 25 29 34 43 51 59 66 72 76 65 57 56 57 56 57 59 59 49 47 47 47 50 50 51 54 56 75 85 75 64 76 96 93 94 99 96 87 84 79 77 77
30 30 32 35 41 47 54 63 72 75 70 61 62 59 56 57 59 62 57 49 49 50 50 49 52 53 54 54 58 79 84 72 62 89 95 94 93 94 98 92 87 87 86
31 31 34 40 46 52 60 68 72 71 67 69 67 60 58 58 61 63 56 49 49 49 50 50 49 51 54 54 53 61 77 84 72 60 86 96 93 91 88 93 99 96 92
33 35 38 43 51 58 67 76 77 69 71 72 66 61 61 58 62 64 56 49 48 48 48 49 50 50 49 49 49 50 61 75 82 78 64 61 90 93 91 89 89 88 89
36 38 42 48 54 61 69 76 80 74 74 74 66 64 64 61 62 64 59 49 47 46 46 45 46 48 48 48 47 44 43 52 69 79 81 71 53 55 78 92 89 89 89
42 44 47 52 57 63 71 80 79 73 76 75 66 63 66 63 61 62 65 53 46 45 44 43 43 45 46 47 47 46 44 42 44 57 75 81 79 62 43 43 64 75 82
46 50 54 58 62 66 71 81 86 78 78 84 78 70 69 67 64 61 61 63 51 47 45 42 41 42 44 47 46 41 43 43 44 46 50 65 80 79 74 53 33 31 44
49 54 59 63 66 70 70 79 86 89 82 89 94 84 74 74 68 65 62 60 64 57 50 44 42 44 45 47 46 40 39 43 45 48 48 49 58 75 78 76 70 44 34
57 59 62 66 70 75 76 78 85 91 88 87 94 98 93 83 77 74 70 67 64 66 66 56 47 46 48 51 50 41 38 40 44 48 51 52 54 58 69 79 77 73 65
63 69 67 67 71 78 82 85 88 91 95 95 96 97 99 99 96 87 82 79 73 70 70 69 66 57 52 54 57 46 40 42 45 49 53 55 58 61 63 66 78 81 78
68 69 69 71 74 78 85 89 92 93 93 91 91 92 94 96 98 98 98 93 87 82 78 74 72 72 68 61 61 57 48 46 47 50 52 55 60 63 66 68 68 75 84
65 67 70 76 81 83 88 90 92 90 86 84 81 80 83 85 88 88 93 98 98 92 90 84 76 73 76 78 72 65 55 53 52 52 53 56 60 63 67 70 71 76 80

GFSGL_prec_cthk_006.txt.gz
RH
71 68 59 50 45 40 40 39 37 35 36 33 37 40 43 47 46 59 52 50 54 59 62 61 60 54 53 52 51 53 57 60 56 39 45 57 58 60 62 62 63 60 69
72 57 52 50 46 42 44 44 41 36 33 33 33 38 43 46 48 45 49 56 60 65 64 66 68 61 52 47 50 59 63 62 54 47 60 66 68 69 68 68 69 72 76
53 52 54 49 44 46 48 45 40 37 35 33 36 38 40 42 43 50 56 62 66 67 69 71 64 54 48 49 54 56 57 56 58 67 70 74 75 77 77 78 76 80 88
54 56 53 47 47 50 48 43 38 34 32 36 39 41 40 40 46 55 62 71 72 72 73 64 50 47 48 49 49 54 56 59 70 76 77 79 81 83 84 85 87 88 93
57 57 52 48 51 52 48 40 34 32 35 39 38 39 43 48 54 61 68 75 70 63 52 42 43 44 41 42 50 55 59 66 75 81 83 84 88 89 90 90 91 93 98
59 55 52 53 54 51 44 35 31 32 37 43 47 52 52 55 60 62 63 62 56 46 44 43 43 42 47 48 53 57 62 72 79 86 88 91 93 94 92 91 95 97 96
56 57 58 55 52 46 36 33 35 33 39 43 48 58 56 59 53 51 48 47 47 44 45 43 43 48 52 55 58 62 69 72 74 76 91 94 95 90 85 89 95 96 97
62 67 57 53 47 40 37 37 36 38 41 43 49 51 54 50 48 49 47 47 45 46 44 48 49 51 55 54 55 63 74 78 74 85 94 98 97 85 85 90 92 93 96
73 63 54 47 39 36 35 36 38 42 42 47 50 50 54 54 56 53 52 48 46 44 51 50 47 49 49 46 53 68 76 78 76 88 97 96 88 77 79 92 93 92 93
69 56 50 39 32 31 34 36 39 40 44 46 46 49 54 61 58 54 51 49 46 51 51 48 43 43 45 51 60 70 84 79 71 90 98 98 88 80 79 94 96 96 98
59 52 43 35 32 32 30 34 38 42 48 47 49 55 63 63 58 55 51 48 50 48 50 46 44 37 44 52 59 76 78 73 66 94 97 98 92 81 78 86 96 95 97
54 44 41 37 33 31 32 32 40 44 52 53 57 64 66 56 54 53 52 50 51 45 42 48 41 40 41 45 56 72 77 75 72 96 97 99 97 85 80 79 89 90 90
46 43 41 42 37 34 32 35 43 49 55 59 65 69 63 61 57 53 51 53 50 43 42 43 44 45 45 47 53 68 85 81 71 97 97 96 99 91 81 79 82 86 84
49 46 45 40 29 33 35 38 46 53 59 65 71 64 62 61 61 59 56 58 52 47 48 48 46 49 50 51 56 60 87 84 73 94 98 96 96 99 89 79 79 78 81
45 43 40 36 33 35 34 43 49 57 63 70 67 61 61 58 60 57 59 59 52 48 46 48 50 52 53 55 57 58 68 89 80 75 98 98 96 95 99 90 82 78 78
43 44 42 38 37 34 36 42 49 58 63 65 60 63 62 53 54 55 58 58 49 46 45 48 52 51 52 52 54 55 58 74 85 75 76 99 98 95 93 99 92 88 86
47 47 42 38 36 36 40 45 52 62 68 66 64 69 62 56 56 56 59 60 51 46 46 51 48 48 49 52 50 51 50 56 68 84 81 66 94 98 95 93 98 97 94
47 43 40 38 40 42 47 50 56 64 73 73 71 69 64 61 58 58 60 63 55 47 46 46 46 46 48 51 50 48 49 45 53 62 81 86 66 69 95 96 93 94 98
46 42 43 42 43 43 50 57 59 64 71 74 70 71 69 64 62 61 61 61 63 54 52 51 50 46 46 47 47 45 41 43 41 46 58 76 90 76 59 71 95 92 93
44 45 46 46 47 50 58 66 68 68 74 77 74 79 81 74 68 65 63 61 62 64 54 51 50 47 46 45 45 45 40 39 43 44 48 53 71 89 85 65 45 65 83
50 53 51 52 55 57 64 69 74 74 78 85 83 79 88 85 78 73 72 71 68 65 67 61 53 50 46 47 48 48 42 37 39 41 46 47 50 65 84 88 79 46 44
55 57 59 56 57 63 69 69 73 80 83 87 92 92 88 94 94 88 80 77 75 71 66 68 69 65 55 50 51 53 50 38 37 41 45 47 48 58 63 77 85 83 71
58 60 63 66 65 64 68 68 71 78 86 91 94 97 97 95 95 97 97 94 86 81 78 71 68 71 70 63 54 52 55 47 41 41 44 47 51 56 59 63 71 81 80
60 60 59 58 61 65 69 70 75 80 87 93 97 97 98 95 92 90 94 95 99 98 91 87 80 75 73 73 70 61 57 53 45 44 45 46 48 54 58 62 65 64 74
54 55 58 57 60 66 71 76 83 87 89 94 95 95 90 87 82 80 81 84 87 92 94 97 94 85 85 78 75 75 71 62 50 48 48 47 47 51 54 59 62 67 65
57 75 74 62 68 76 79 84 90 90 90 92 94 87 83 77 71 66 66 67 70 73 79 89 96 96 92 89 79 77 82 78 62 53 53 52 48 48 52 56 59 63 68

GFSGL_prec_cthk_012.txt.gz
RH
50 56 59 65 66 65 61 62 56 44 42 47 46 41 36 38 43 44 45 43 47 48 63 63 61 65 72 61 54 56 49 49 51 46 46 48 45 43 39 42 46 46 47
54 59 65 68 69 72 62 58 49 48 53 52 45 40 43 50 48 41 42 44 52 50 48 59 65 62 65 60 54 42 42 43 45 44 41 43 44 45 49 50 51 54 56
61 69 72 71 81 73 73 60 54 58 58 53 47 46 54 51 47 48 51 54 54 60 58 61 55 61 57 49 35 37 39 39 40 44 44 47 49 52 52 56 59 60 64
69 76 73 75 78 74 68 62 65 69 62 54 51 53 59 51 56 56 60 56 52 51 53 51 51 44 39 37 37 38 39 44 45 48 48 48 51 52 55 59 62 65 65
70 74 77 78 75 72 69 71 76 74 60 57 55 63 63 58 64 64 59 50 47 43 42 44 44 41 40 39 41 43 45 46 44 47 50 53 57 61 66 70 76 78 75
76 74 76 76 76 80 84 76 70 65 62 64 66 65 65 64 62 59 56 51 37 41 46 43 41 43 44 47 47 46 44 42 46 55 59 67 69 74 74 83 83 81 74
75 75 76 79 83 88 80 75 73 66 74 71 70 73 69 65 51 49 50 46 50 51 46 40 42 45 47 45 44 41 41 48 57 62 67 77 78 76 79 85 83 79 64
75 76 78 86 91 89 83 74 66 77 68 71 73 76 65 61 60 53 51 52 56 47 44 42 44 48 43 41 36 33 35 44 56 65 71 73 69 77 85 83 82 65 59
76 81 89 94 88 83 74 73 72 65 67 69 69 67 66 55 51 55 53 57 51 46 43 44 47 48 42 40 36 34 36 40 53 63 64 64 78 87 86 88 79 66 62
84 91 89 91 90 81 77 70 65 64 62 62 64 61 60 52 53 53 62 55 49 45 43 44 48 45 43 42 38 38 38 41 45 60 69 78 86 86 88 90 79 70 71
94 92 92 92 83 76 70 66 65 59 55 54 52 51 51 49 52 61 61 50 47 44 43 47 49 44 43 40 39 40 42 43 48 61 69 81 87 86 84 86 75 72 79
92 95 92 82 77 74 70 64 58 53 47 51 48 44 43 49 54 61 60 55 49 45 47 48 45 43 40 39 40 43 45 45 48 61 70 81 88 87 85 88 80 74 85
95 92 82 75 70 67 61 51 43 41 45 48 44 44 49 59 57 61 59 57 52 50 50 48 44 40 39 39 40 44 44 44 48 53 74 74 87 89 87 87 87 71 81
89 81 73 70 65 57 53 45 38 40 42 40 42 49 58 64 71 58 56 55 55 55 53 51 45 41 40 39 41 44 44 45 46 48 57 81 76 90 90 89 88 72 70
75 70 66 58 53 49 44 40 37 34 38 42 51 56 64 73 77 68 61 57 59 57 56 55 47 42 40 41 41 43 43 41 41 44 47 56 83 73 91 91 91 90 79
65 58 53 48 43 40 39 36 36 36 42 47 53 58 66 73 75 72 74 70 61 60 56 53 49 44 43 42 42 43 43 43 38 36 39 49 57 82 71 92 94 92 94
50 46 43 39 35 36 40 40 38 41 47 49 57 65 71 74 77 76 76 75 67 60 55 54 53 49 47 45 44 46 48 43 38 32 34 41 49 58 83 71 91 93 91
38 36 36 37 40 44 46 47 49 48 46 50 58 63 71 78 82 82 77 77 71 63 60 57 55 57 55 53 50 49 48 47 46 36 33 37 43 50 58 84 69 81 93
35 37 39 43 47 50 52 53 56 57 56 56 60 64 71 76 83 87 85 82 82 74 69 66 64 62 66 68 64 57 51 49 50 47 37 36 41 46 51 58 83 75 63
42 47 52 53 53 55 55 56 57 59 61 64 65 72 76 81 80 88 92 90 88 90 83 78 74 73 73 71 70 71 68 61 55 54 47 39 38 42 47 51 57 80 83
51 55 57 55 57 58 59 61 62 63 61 63 63 62 74 83 86 84 92 97 94 91 95 94 90 87 88 83 78 71 68 69 71 62 57 46 42 39 42 48 52 56 70
55 50 49 52 56 57 55 63 62 65 63 65 66 65 67 77 84 87 91 96 98 96 96 98 93 91 93 96 95 93 91 76 72 74 66 56 45 40 41 44 48 52 56
40 40 45 49 50 53 58 62 67 67 64 73 77 75 75 78 83 87 93 98 99 99 98 98 93 89 90 93 95 94 94 95 84 76 74 68 54 45 43 43 44 48 52
31 30 32 34 36 52 57 59 70 89 78 76 80 85 80 85 88 93 95 99 99 99 98 99 90 84 84 86 87 90 93 94 97 88 77 78 69 54 47 44 44 45 47
27 31 34 34 35 42 47 50 71 73 74 77 86 88 85 91 92 93 97 99 99 99 99 92 82 71 70 76 82 86 87 90 91 95 87 81 80 69 57 52 47 46 45
31 33 36 40 52 55 56 61 79 84 89 88 93 89 91 94 95 94 96 96 95 92 84 72 64 61 59 62 72 78 83 85 90 95 96 86 86 80 70 63 57 53 49

GFSGL_prec_cthk_015.txt.gz
RH
52 58 59 63 69 77 74 80 74 72 65 58 54 55 54 56 57 51 52 56 59 60 57 56 55 51 55 58 60 57 56 52 38 36 35 35 36 35 35 35 37 39 39
56 59 64 74 80 77 74 78 77 68 60 58 62 62 56 59 58 56 56 60 59 59 60 58 59 54 58 57 53 48 36 33 33 33 30 33 35 37 39 39 40 42 45
64 66 71 77 76 72 78 78 71 67 69 75 72 61 62 62 63 60 64 66 63 60 57 57 48 43 46 44 40 36 35 34 35 38 35 34 35 37 38 40 42 44 48
67 64 66 73 71 78 79 79 75 79 78 69 64 64 69 75 72 72 69 66 62 59 56 48 38 38 39 41 39 36 37 38 38 36 34 37 41 44 48 49 52 57 57
65 62 65 67 72 77 78 78 87 80 73 75 73 78 76 79 74 65 57 59 55 59 44 34 41 42 36 40 37 40 40 38 36 35 39 44 48 52 57 60 59 57 64
64 67 68 68 72 75 83 89 86 81 76 83 81 80 82 78 74 62 60 57 50 44 43 44 45 40 40 40 42 43 41 37 34 41 45 49 54 61 63 62 66 69 66
73 73 70 72 75 81 91 92 89 83 85 82 79 79 77 76 66 62 60 56 52 49 51 48 45 43 42 44 45 41 37 35 36 41 46 53 59 67 64 68 72 71 71
72 71 74 80 83 89 96 92 88 86 82 75 74 74 74 68 61 58 62 57 50 55 53 48 45 41 44 47 43 40 38 39 40 42 48 52 60 61 75 79 76 74 72
71 75 76 85 89 96 95 91 88 77 74 68 68 71 59 58 57 60 59 56 55 56 54 49 44 44 49 45 43 42 39 39 42 43 47 53 63 75 82 83 81 79 64
75 79 83 88 96 96 93 85 78 72 68 68 58 48 45 50 52 55 56 55 57 52 48 44 44 47 47 45 44 39 38 40 40 42 47 54 68 81 85 84 80 80 64
86 87 92 97 96 93 86 77 74 70 60 45 44 41 41 44 50 52 53 55 53 51 49 45 47 47 43 42 39 38 40 39 40 42 45 55 65 82 84 84 83 83 66
90 95 95 94 93 86 83 77 69 53 44 42 40 38 37 41 45 50 52 56 55 52 52 51 50 46 44 41 40 39 39 39 40 39 42 51 68 78 85 84 82 84 73
88 90 90 88 83 77 70 59 51 47 42 37 34 39 41 42 44 50 52 58 59 57 55 55 53 48 44 41 40 40 39 39 37 35 39 45 60 74 83 86 83 83 72
81 76 71 67 63 64 57 49 43 41 38 37 41 43 44 46 52 54 57 62 62 64 58 58 57 53 46 43 41 39 39 40 37 35 34 39 46 65 71 86 87 84 78
56 54 54 54 50 46 37 35 35 40 43 44 42 46 49 52 55 59 63 68 69 72 69 62 59 56 50 44 42 40 40 42 41 38 34 32 40 49 66 76 91 88 86
46 42 37 31 28 35 34 36 44 47 49 48 48 50 53 58 63 66 71 76 79 77 74 65 59 56 54 49 46 44 42 45 47 47 38 28 35 43 52 74 76 89 89
28 29 29 28 32 34 37 42 45 50 51 48 52 53 54 59 66 74 77 79 83 80 76 70 62 60 57 55 54 51 48 46 49 51 47 32 33 39 46 54 82 70 89
32 31 31 34 38 41 46 53 55 52 50 48 51 53 57 61 67 72 81 86 87 91 81 77 70 67 65 60 59 61 63 56 54 53 53 42 37 36 41 48 56 88 69
34 36 44 47 49 56 60 61 58 57 58 54 50 52 58 58 64 74 81 84 84 90 85 89 82 76 73 72 71 70 67 66 66 63 58 53 43 38 37 43 50 57 87
45 49 56 58 60 63 63 62 65 69 69 61 55 57 61 62 59 63 77 82 88 88 93 94 94 91 83 81 79 78 78 74 68 68 67 60 52 45 38 38 45 51 59
42 44 46 50 50 54 53 54 55 56 53 52 68 60 65 69 71 67 68 74 88 90 94 98 97 96 96 92 89 89 92 91 92 81 71 66 63 50 43 38 40 46 52
41 38 33 31 29 29 30 35 56 50 52 70 60 66 79 80 79 80 78 78 84 89 92 98 99 98 98 98 94 90 90 96 98 97 90 79 72 63 50 41 39 41 47
30 28 28 28 28 26 26 26 26 28 55 87 59 74 90 91 85 86 85 86 89 90 94 97 99 98 98 98 93 87 84 86 91 95 96 92 81 75 62 49 43 41 42
29 30 29 29 30 31 33 35 36 38 39 45 64 96 96 84 88 90 90 92 95 96 96 98 99 99 98 98 95 84 82 83 87 89 90 93 91 80 76 63 53 47 43
29 30 31 32 36 39 39 44 55 56 55 57 63 79 82 87 91 93 92 95 96 97 99 99 98 99 98 98 89 72 74 79 83 87 87 89 92 86 81 75 65 57 51
28 30 34 39 42 44 49 50 54 62 65 73 85 92 92 95 93 95 96 95 95 96 96 97 97 96 90 80 67 65 65 70 79 86 87 86 91 95 87 82 76 69 64

GFSGL_prec_cthk_018.txt.gz
RH
64 65 67 69 74 78 83 81 89 78 73 70 64 63 65 73 64 60 64 64 65 70 73 68 66 68 67 60 59 53 52 48 38 32 31 30 30 31 30 31 31 31 31
55 58 62 69 74 76 76 71 70 75 76 70 72 76 71 60 63 68 75 80 73 71 66 68 71 63 58 46 42 41 40 35 36 32 31 34 33 32 32 31 32 34 35
65 73 74 73 75 69 65 66 72 75 73 77 79 71 71 76 77 80 80 71 71 71 71 67 61 59 41 37 40 40 34 35 37 37 34 34 32 35 37 40 41 40 42
71 77 78 74 69 66 68 70 72 74 77 78 76 77 75 79 85 83 78 73 72 68 60 54 52 40 39 43 40 36 36 38 39 36 31 30 36 41 45 47 44 45 43
77 75 71 69 69 70 68 70 74 81 84 84 79 82 83 81 81 80 78 78 69 60 56 49 45 45 47 42 38 37 39 40 38 33 31 32 38 43 50 52 52 47 56
68 66 68 71 70 68 72 76 79 83 87 86 90 82 82 78 78 79 72 63 62 66 60 49 47 50 48 41 37 41 43 40 36 33 34 36 40 48 52 53 53 63 66
64 68 71 71 72 76 77 79 83 86 92 89 83 80 73 71 76 72 63 62 59 66 65 53 51 53 48 41 39 45 42 41 38 38 37 39 41 47 52 59 71 72 70
69 72 72 77 79 78 77 80 87 96 90 85 78 74 71 66 60 58 56 52 51 50 51 51 52 49 43 39 43 41 39 39 39 41 41 41 43 47 57 72 78 75 70
70 74 77 75 74 82 84 88 93 94 86 76 72 69 62 54 49 50 45 49 51 54 53 53 48 40 39 42 41 38 36 36 38 41 42 44 44 50 65 78 81 76 69
78 79 77 88 92 89 98 95 87 85 78 71 69 57 47 40 38 40 45 50 48 50 52 48 46 40 43 45 40 38 35 36 38 39 39 42 46 50 61 80 84 80 76
80 87 84 94 89 86 85 83 76 72 66 65 51 41 35 34 37 41 44 47 46 48 50 47 47 46 48 45 40 36 36 37 39 38 35 37 42 50 59 80 86 84 80
82 86 88 83 81 86 81 76 68 59 50 46 39 33 33 36 41 44 44 45 49 52 52 52 52 52 51 46 40 37 37 39 38 38 34 33 37 45 54 67 86 85 82
81 78 74 73 70 68 59 49 48 49 40 35 32 35 37 41 45 46 49 50 52 57 63 63 62 54 53 49 44 40 39 39 40 41 38 33 33 39 47 57 76 89 85
66 61 54 51 47 45 45 45 33 27 32 34 37 40 42 45 45 49 52 55 58 61 67 71 72 62 55 52 50 43 44 42 42 45 45 40 33 35 41 50 68 86 86
45 42 40 40 37 32 28 28 28 30 35 37 43 51 51 46 45 51 55 57 62 66 71 76 82 70 62 54 54 49 48 48 47 48 50 49 39 31 39 44 59 72 84
34 31 28 27 26 27 27 27 33 37 44 50 56 59 55 54 52 52 54 59 65 71 71 76 83 79 70 60 57 56 54 50 51 52 52 53 46 34 36 42 48 66 72
24 25 26 28 29 33 36 40 44 48 59 61 63 64 65 59 58 55 57 61 65 73 72 80 85 87 77 67 63 60 57 58 58 57 57 59 54 40 38 38 44 50 77
28 30 33 36 40 44 49 52 57 59 57 55 60 67 72 74 74 64 61 67 67 72 74 82 85 90 82 74 70 68 66 66 63 65 67 68 61 50 42 39 41 47 55
36 38 40 42 45 48 52 55 56 55 54 52 56 53 63 80 80 77 75 71 68 73 79 86 89 90 89 89 80 75 74 74 76 74 72 71 69 61 47 42 38 43 49
34 35 35 36 38 39 37 34 34 36 42 51 46 42 51 58 59 79 83 75 72 69 81 85 92 94 93 97 93 85 82 84 83 83 83 78 72 69 58 48 40 39 45
29 29 30 32 31 30 31 30 28 27 25 23 23 36 54 51 71 90 80 79 85 85 81 79 89 96 96 98 98 95 91 91 91 93 97 97 83 75 71 56 46 39 41
27 27 28 28 28 28 28 30 30 30 30 31 28 26 29 69 88 86 85 91 94 93 89 87 87 95 95 98 99 98 97 96 90 89 93 96 98 88 76 70 53 44 40
26 25 26 27 27 26 27 29 33 35 36 43 43 43 42 50 73 66 79 94 92 95 91 92 93 96 98 98 99 99 98 98 93 87 87 90 92 96 86 76 67 53 45
27 25 26 27 28 29 30 33 37 43 44 44 50 50 53 55 75 89 95 93 97 96 92 97 99 99 99 98 99 99 98 98 98 86 87 90 90 91 94 82 75 66 56
26 26 26 27 29 32 33 37 41 44 51 53 54 58 62 67 81 91 96 99 98 95 98 97 98 99 98 98 97 98 98 98 95 81 82 88 92 90 89 90 80 73 66
26 26 27 30 32 34 36 39 42 46 52 57 63 67 69 78 85 91 97 98 97 99 98 97 97 96 96 96 98 98 95 88 76 74 76 84 91 94 91 92 87 83 75

GFSGL_prec_cthk_021.txt.gz
RH
55 58 60 65 72 77 78 78 82 83 76 73 73 76 71 74 73 70 72 75 73 78 72 71 71 71 71 72 66 58 47 42 38 30 29 29 28 28 29 30 30 30 31
57 60 69 80 82 83 85 88 87 74 70 74 73 74 79 78 85 81 75 75 73 66 65 65 68 67 60 60 53 41 41 40 36 31 31 32 30 28 28 30 32 34 37
73 80 82 83 85 86 87 83 73 72 76 74 79 82 84 91 81 79 77 71 68 71 72 68 62 56 52 43 39 41 41 36 36 36 35 33 29 28 29 31 35 38 41
75 80 84 81 81 85 78 74 74 73 76 82 85 87 92 82 81 73 75 74 73 76 71 63 62 60 52 43 44 47 39 37 39 40 37 32 31 31 32 35 35 41 39
71 74 74 73 72 74 76 74 72 76 82 81 80 89 85 80 80 77 75 79 76 69 61 56 60 61 59 46 50 48 40 39 42 40 36 34 33 33 34 36 41 41 51
60 60 64 65 70 76 72 72 77 80 80 82 93 93 87 84 74 75 74 70 66 60 56 54 47 48 49 50 52 44 39 43 42 40 36 35 35 36 36 38 44 53 61
52 56 66 70 72 73 76 77 77 79 87 92 93 94 87 73 67 63 59 55 54 52 48 51 54 52 50 51 44 39 42 44 42 39 35 36 36 38 37 39 51 65 70
58 62 66 76 81 79 79 79 80 91 97 85 86 86 71 63 60 56 44 45 46 47 47 46 46 46 48 44 40 41 45 43 42 35 36 36 36 37 38 41 54 68 72
57 64 73 77 77 76 86 97 89 96 92 82 78 74 68 55 45 41 38 40 41 43 44 47 44 45 42 41 41 45 45 42 36 35 36 36 36 37 40 42 50 69 75
63 70 80 78 85 83 81 84 82 79 77 80 75 63 50 37 38 28 33 38 42 45 47 44 45 42 43 43 43 47 44 40 35 34 34 34 34 33 36 42 48 69 81
74 77 78 81 84 84 81 78 79 76 71 62 49 43 37 37 28 31 36 43 47 47 45 47 49 46 47 47 47 47 44 39 35 34 34 35 34 32 32 38 47 55 80
73 74 78 81 78 76 73 71 70 61 47 41 39 37 27 25 31 34 39 50 55 50 50 54 55 57 59 55 51 50 47 40 36 37 38 40 40 36 32 35 44 50 70
72 72 70 69 66 58 49 45 41 41 39 36 30 26 26 31 33 40 50 57 59 57 59 64 65 67 71 69 61 55 52 45 39 40 43 44 44 42 35 34 39 49 62
64 58 51 46 42 37 34 32 31 29 29 29 30 30 33 42 49 53 55 61 61 60 61 68 72 74 78 81 79 63 57 51 44 42 45 47 47 44 42 36 36 43 54
49 46 41 36 30 27 26 26 27 28 32 34 38 44 51 50 54 62 63 62 61 62 64 66 73 77 84 86 89 77 63 56 51 49 47 48 51 53 47 41 36 39 49
38 34 29 24 23 25 26 26 31 34 39 46 53 61 60 61 60 63 65 64 68 71 67 64 70 79 88 90 94 90 72 61 56 54 54 55 57 58 52 45 41 38 42
32 30 27 27 30 32 35 38 36 33 45 49 58 63 66 61 63 67 67 71 70 79 75 70 67 75 86 93 95 95 77 67 64 59 58 59 61 64 63 51 45 38 40
35 32 31 31 30 30 30 31 33 34 34 29 34 37 37 41 45 54 63 69 86 86 76 75 72 77 84 93 96 96 84 73 71 68 69 71 69 68 68 60 49 43 37
27 26 25 25 25 25 25 24 24 23 24 24 20 17 17 20 44 43 49 58 66 74 65 80 75 74 85 93 97 98 95 86 76 72 73 74 76 72 71 68 55 49 40
24 24 24 24 23 23 23 25 25 25 26 28 27 26 26 27 24 22 32 73 69 54 86 91 80 79 84 93 97 98 98 98 88 82 81 80 85 86 80 75 66 52 46
24 22 21 21 23 25 27 26 26 27 29 30 32 33 37 39 36 36 33 31 43 65 91 88 85 91 90 85 93 98 98 98 94 89 88 86 88 93 94 88 76 60 51
21 21 22 23 24 25 25 25 27 31 33 35 36 38 38 43 50 47 48 65 72 86 90 89 95 93 92 91 93 98 98 98 97 96 96 95 89 90 94 96 85 73 57
24 24 23 24 24 24 25 28 29 32 34 37 41 45 46 45 51 55 53 58 77 87 92 94 91 88 88 92 96 99 99 98 98 98 98 98 90 89 89 91 94 81 67
26 25 24 24 25 27 28 29 32 34 37 40 44 46 53 56 56 61 65 74 86 88 91 97 92 91 93 98 98 98 99 99 99 98 99 99 95 88 89 90 92 88 79
26 25 25 27 28 27 29 31 35 37 40 41 43 47 52 58 65 68 71 80 89 92 99 99 99 97 96 98 98 99 99 99 99 99 99 98 99 91 91 92 90 91 84
27 27 28 29 28 31 32 35 39 40 42 45 49 51 52 56 66 71 79 81 90 99 99 99 99 98 98 98 97 97 97 97 98 98 99 97 92 86 91 97 93 91 90

GFSGL_prec_cthk_024.txt.gz
RH
62 74 70 74 77 82 87 89 90 89 89 86 80 76 77 74 73 75 83 73 74 72 67 55 50 51 53 52 54 49 44 39 35 33 33 32 32 32 30 29 30 31 32
66 69 77 81 86 89 92 95 93 91 85 80 80 74 72 74 81 85 73 74 74 70 65 61 55 55 53 49 51 47 38 39 41 35 31 32 33 33 31 31 33 34 35
68 70 73 81 87 92 93 94 85 81 74 76 76 75 83 84 91 80 81 80 72 70 70 60 58 50 43 49 49 47 42 43 44 38 33 34 33 32 31 32 33 34 36
54 57 65 74 77 80 85 85 75 72 74 79 82 85 84 88 94 90 85 77 70 71 63 57 50 45 49 46 44 46 45 46 44 38 37 36 34 32 32 33 32 34 35
48 54 60 68 71 76 77 70 73 77 79 85 81 84 91 98 95 91 82 68 63 62 59 47 45 50 50 48 50 48 47 43 38 38 40 36 34 32 34 35 34 32 38
37 42 53 64 64 67 72 76 82 86 83 85 87 95 95 97 90 87 72 66 62 55 44 43 47 49 51 48 48 48 43 37 36 42 40 37 33 35 35 33 32 33 43
32 41 51 57 64 74 76 82 86 85 88 87 90 97 96 91 78 67 59 59 53 38 37 42 48 50 51 47 46 43 38 35 39 43 40 36 34 34 33 31 32 35 46
43 48 54 59 68 77 81 84 84 83 95 95 88 88 88 86 77 63 64 46 36 37 33 41 48 52 56 45 44 40 36 37 42 43 39 35 35 34 34 34 31 31 41
46 50 58 65 75 79 85 85 86 85 96 92 81 78 76 74 64 50 41 35 30 28 36 42 46 54 57 48 40 41 40 39 44 42 38 36 37 38 38 36 32 30 36
51 59 69 76 80 83 86 90 86 80 78 79 78 76 70 50 45 40 32 28 27 32 38 45 51 61 58 52 44 46 44 42 45 42 41 39 40 42 41 38 36 32 38
62 70 73 76 77 79 79 77 77 76 76 70 58 51 43 40 35 29 29 30 35 40 44 54 60 62 62 58 54 56 50 48 47 45 44 41 42 45 45 40 40 37 38
65 66 69 72 74 73 71 69 63 55 48 40 32 28 28 28 29 31 33 37 47 53 57 63 67 72 69 66 64 67 65 57 54 51 47 43 43 47 48 43 41 41 39
68 71 70 67 62 56 51 46 40 34 28 24 24 23 24 28 35 40 45 51 56 62 66 67 70 73 74 72 74 77 77 77 64 59 52 49 46 46 48 47 43 44 39
65 61 58 56 51 43 34 31 28 25 24 25 28 30 32 33 39 52 59 63 66 66 66 67 68 69 72 75 79 85 84 86 83 69 59 54 51 49 49 50 43 45 39
58 53 47 41 36 32 32 31 28 29 34 35 38 42 46 41 45 54 62 65 66 68 71 67 66 67 71 77 83 87 90 91 91 80 66 59 54 54 56 58 49 46 44
50 45 41 38 36 35 31 27 27 26 27 30 31 37 36 43 39 43 50 55 62 67 71 62 65 71 73 81 89 88 90 92 95 94 73 64 58 58 60 63 58 49 49
48 44 38 34 30 26 23 21 18 18 20 21 22 23 25 23 19 19 26 33 38 48 63 80 87 84 82 93 90 81 86 92 97 96 77 69 67 67 68 67 65 54 50
44 36 33 30 26 24 22 19 17 16 15 15 18 20 21 20 19 21 19 19 29 48 52 57 61 63 94 97 89 85 88 92 97 96 82 73 71 72 72 72 68 62 52
35 34 33 30 26 21 18 18 19 20 20 19 17 17 21 22 24 26 30 33 29 31 43 47 57 74 88 90 91 81 92 93 97 97 89 79 73 75 75 75 75 72 57
36 34 29 24 21 19 19 20 20 20 20 22 24 26 26 27 28 29 32 41 43 40 39 37 69 74 77 87 94 85 87 96 98 98 98 89 79 80 80 81 81 80 71
32 26 25 22 20 21 21 20 20 22 24 24 25 28 32 36 38 42 43 45 49 48 55 52 52 65 88 98 97 96 93 96 98 98 99 96 85 83 83 83 89 87 80
29 26 22 22 24 23 21 21 23 24 24 25 26 30 34 38 41 44 49 52 54 55 66 69 74 79 94 97 98 97 93 94 94 98 98 96 91 87 91 86 87 90 86
26 24 26 27 25 23 23 24 25 25 26 28 31 33 36 39 41 44 48 56 59 61 64 77 82 88 96 98 97 92 90 96 99 99 99 98 96 92 93 88 87 87 89
28 30 29 27 25 24 25 26 26 27 29 32 35 39 41 43 44 46 48 56 67 69 74 80 85 91 98 99 97 93 94 98 98 98 99 99 98 98 97 94 88 88 91
31 29 27 27 26 26 27 27 27 30 33 37 41 44 47 48 49 51 52 54 67 76 81 89 95 99 99 99 99 97 98 98 98 99 99 99 99 99 99 99 96 91 91
29 29 29 29 28 29 28 28 30 33 36 40 44 48 49 53 56 57 58 59 65 79 89 92 99 99 99 99 99 99 99 99 98 99 99 99 98 99 99 99 99 94 96

GFSGL_prec_cthk_027.txt.gz
RH
41 56 71 78 79 80 82 87 92 95 98 98 91 93 79 70 82 77 82 86 79 74 75 72 63 60 55 44 38 36 37 37 39 37 39 39 33 28 30 28 26 25 25
67 74 71 73 75 76 79 91 94 96 97 94 87 72 69 80 81 88 83 86 83 82 73 73 70 55 49 41 37 37 39 42 42 40 45 39 33 31 30 29 27 27 26
68 66 60 58 60 69 77 87 91 90 87 86 75 71 81 83 85 82 93 92 86 78 76 68 52 53 50 41 41 40 45 46 43 43 42 36 33 35 33 31 30 28 28
56 54 51 51 55 62 69 73 74 77 76 78 70 74 79 84 92 95 94 92 84 82 80 64 55 57 44 46 42 46 49 49 47 47 40 34 35 35 32 32 30 30 30
43 40 38 41 47 52 59 62 69 74 80 78 78 85 82 97 97 95 95 89 83 78 71 59 56 47 46 47 46 51 52 49 51 46 38 35 36 36 33 33 32 30 30
32 34 34 34 42 52 61 64 70 77 78 78 77 87 87 92 96 97 95 81 71 63 55 52 46 43 45 47 48 52 50 52 49 44 38 38 37 36 34 35 35 40 36
29 29 34 42 49 54 60 67 75 83 76 82 81 96 91 93 93 93 88 78 66 55 47 42 37 36 42 51 53 52 54 54 48 44 40 40 39 36 35 37 43 43 41
32 38 43 47 51 58 67 73 79 78 85 95 90 94 91 85 84 81 79 67 51 42 36 30 30 36 44 54 57 58 59 53 49 43 41 39 37 35 35 40 42 47 43
39 42 47 52 59 65 72 77 84 88 85 85 86 86 80 81 82 73 54 40 33 28 26 28 31 41 51 60 61 65 63 56 53 48 43 40 38 38 36 43 47 49 45
46 51 56 60 63 68 72 72 76 78 77 77 78 77 75 66 55 41 35 32 29 26 28 33 39 50 60 67 71 69 65 64 62 54 47 43 42 41 40 44 47 46 49
53 55 57 58 60 63 68 72 72 72 72 68 59 49 41 36 30 28 30 30 30 31 35 42 51 61 69 74 77 72 70 73 71 65 57 52 48 48 49 49 49 45 45
59 59 60 63 69 71 66 62 58 50 43 37 32 29 27 26 26 27 30 34 38 41 43 47 55 67 72 78 80 75 76 76 77 78 75 67 56 56 54 53 51 48 43
63 61 59 58 56 53 49 43 38 36 34 31 31 30 30 31 32 35 38 41 45 51 51 52 54 63 70 70 71 73 80 79 83 83 86 85 67 60 57 54 53 52 45
57 56 54 51 48 46 44 42 40 37 34 34 33 32 30 29 32 35 36 40 47 54 56 55 59 63 67 70 71 75 77 79 83 89 94 91 85 68 60 57 57 57 50
55 52 49 49 48 47 43 38 33 29 28 28 28 26 23 19 18 19 21 21 25 32 39 43 50 57 66 63 66 74 86 87 84 94 94 93 95 78 66 61 60 62 61
54 51 48 47 45 40 36 32 31 29 26 23 22 19 18 18 16 16 16 17 19 22 20 30 42 48 59 68 89 95 98 91 88 97 95 92 98 91 73 67 66 66 69
52 50 48 46 41 36 34 32 25 23 23 20 17 17 18 18 18 19 19 20 22 25 31 32 29 40 44 56 74 89 91 90 94 94 96 93 99 96 77 73 71 72 71
52 50 46 41 39 36 29 25 24 24 22 18 17 17 16 17 19 21 22 23 23 28 37 39 39 44 58 60 57 67 87 82 91 94 93 94 99 95 79 74 75 75 74
53 50 47 41 34 27 26 26 25 22 20 19 16 16 16 17 19 22 25 29 33 36 39 45 47 40 48 55 54 69 81 98 93 94 88 94 99 94 81 76 79 78 79
52 45 39 32 28 29 28 27 24 22 21 18 17 18 18 17 19 22 27 31 36 42 45 47 52 53 51 45 64 88 90 86 96 92 93 96 98 95 87 79 81 79 80
45 39 34 32 32 31 29 26 24 22 21 20 21 22 22 23 24 27 32 35 39 43 47 50 53 58 63 50 76 89 92 99 95 91 95 98 98 98 92 84 84 82 84
42 38 36 36 34 29 25 24 24 22 23 23 23 23 25 26 29 31 35 38 40 42 50 56 58 67 73 74 74 89 96 99 99 98 98 98 99 98 94 88 87 88 86
42 40 39 34 29 26 26 25 23 25 26 26 24 25 27 30 33 37 40 42 43 44 49 60 66 68 79 83 87 93 96 99 99 96 93 98 99 98 95 92 91 93 88
42 38 32 30 28 27 25 25 27 28 27 25 25 26 28 31 34 38 42 46 47 48 52 60 72 72 80 89 98 99 99 98 95 92 95 98 98 99 97 94 96 96 89
38 33 32 30 29 26 27 29 31 30 26 25 26 26 29 32 35 39 41 43 49 53 55 62 76 83 85 90 98 99 99 98 93 96 98 99 99 99 99 97 98 98 96
37 34 33 31 28 29 30 32 32 28 27 27 28 29 31 33 36 40 42 43 42 53 60 64 77 91 95 98 99 99 99 97 91 97 98 98 99 98 99 99 99 98 97

GFSGL_prec_cthk_030.txt.gz
RH
71 57 50 49 65 79 78 84 86 86 91 92 95 97 98 94 91 80 75 78 79 92 94 91 82 79 76 72 66 53 47 45 43 41 46 50 47 43 39 38 32 26 27
42 42 47 66 70 65 63 62 71 82 83 88 93 91 85 81 80 73 80 84 94 98 95 89 85 82 80 66 59 53 49 49 46 41 45 46 48 46 40 38 35 29 29
44 55 62 60 65 67 61 58 62 61 65 75 80 78 77 79 77 79 86 93 96 91 88 90 89 87 77 64 62 59 56 53 50 45 45 48 51 46 42 40 35 31 30
50 52 56 55 54 53 49 51 54 58 60 71 74 75 74 77 75 83 90 97 96 92 89 88 87 76 65 65 65 62 59 54 53 49 48 52 54 51 45 42 35 31 32
53 49 48 44 40 41 43 46 52 59 65 69 73 67 77 84 82 92 97 96 96 96 94 81 75 66 60 61 57 55 54 55 54 53 53 58 56 53 50 44 35 34 36
45 39 35 34 36 36 41 49 55 59 62 61 65 71 78 88 93 98 97 93 94 92 81 79 70 59 51 45 42 43 51 59 60 60 61 61 56 54 54 43 39 38 38
38 36 35 34 36 42 47 51 54 58 62 66 71 81 83 83 90 90 89 89 85 77 74 66 53 49 43 37 36 42 49 61 66 64 66 62 61 57 52 44 42 42 43
34 33 33 37 42 48 53 58 62 65 71 74 77 81 84 84 84 84 85 78 70 64 53 45 40 37 37 43 45 50 53 66 70 65 63 62 63 60 50 45 43 45 48
30 34 38 44 50 54 58 62 64 66 67 69 70 72 75 76 77 75 69 57 47 41 42 41 38 36 36 40 48 55 64 71 73 68 65 64 63 55 47 44 46 51 52
37 42 47 52 56 58 59 59 57 60 64 63 65 66 67 64 55 45 41 38 37 38 38 36 35 34 39 43 51 60 63 74 78 69 67 67 65 59 51 46 51 57 55
47 50 53 56 57 57 56 58 59 61 62 59 52 46 40 38 35 33 34 36 38 39 39 37 38 41 41 50 56 63 62 73 82 78 75 72 74 73 70 62 62 61 59
53 54 57 57 56 56 56 53 50 48 44 44 43 40 41 40 40 40 39 40 41 42 36 36 39 41 43 48 55 59 65 73 82 81 78 81 82 82 85 79 69 66 62
57 56 54 51 50 47 45 44 47 48 46 45 41 41 39 39 36 34 27 23 19 18 20 25 30 36 44 47 48 55 66 74 76 81 80 83 87 88 92 91 78 70 65
54 54 51 48 47 46 45 45 45 42 38 36 37 36 33 32 32 31 23 20 18 17 18 16 13 16 25 43 56 59 60 63 69 76 82 91 95 93 97 93 86 77 70
55 52 50 49 45 44 45 42 39 36 33 30 28 25 26 29 31 23 21 19 16 15 15 15 20 24 23 22 41 47 81 86 94 80 97 99 97 96 98 98 95 83 73
55 53 49 46 46 47 45 45 39 35 31 27 26 26 25 24 23 20 17 14 15 17 18 27 30 37 43 45 37 56 66 67 82 92 99 99 99 97 98 99 98 91 78
56 50 49 50 49 46 44 42 40 38 30 29 28 27 25 23 19 15 13 14 17 21 27 30 31 34 38 39 51 61 74 60 75 99 98 98 97 94 94 99 98 93 81
53 53 53 51 48 44 39 36 35 35 36 39 33 26 21 18 15 15 15 16 23 24 27 29 34 38 43 46 40 55 77 69 69 84 99 98 95 86 95 97 99 96 83
58 56 53 49 45 40 37 36 36 38 39 35 31 28 22 16 16 20 21 25 26 27 29 31 35 42 47 51 50 41 52 70 71 64 81 92 94 95 95 99 99 94 83
60 57 53 48 44 41 39 39 39 37 35 32 30 26 19 17 23 25 26 27 28 30 32 35 36 43 51 55 57 59 51 59 75 86 90 98 97 95 96 99 98 95 83
61 57 53 48 45 44 43 40 36 33 30 27 28 25 20 21 27 28 29 30 32 34 36 38 39 43 52 59 62 67 61 83 90 92 99 97 93 98 99 99 99 95 88
61 59 54 50 48 45 41 36 33 29 26 25 25 25 23 28 29 30 30 31 34 37 41 42 43 45 54 64 68 76 72 90 92 95 99 99 98 99 99 99 98 94 88
62 56 53 51 47 42 38 36 32 28 25 24 25 28 29 28 26 30 30 31 34 34 37 43 45 48 55 69 78 81 78 90 95 92 99 99 99 99 99 98 98 95 88
60 57 55 52 48 44 40 36 31 29 26 26 29 32 32 29 29 29 30 30 30 34 35 38 47 53 58 73 81 88 89 91 99 99 99 99 95 94 99 99 98 97 92
61 59 57 55 53 48 41 35 32 30 29 30 34 36 34 30 31 31 31 30 32 35 38 39 47 56 62 77 84 91 96 99 99 99 99 97 93 97 99 99 98 97 95
67 64 59 55 52 46 40 37 34 32 32 35 36 37 34 33 32 31 32 33 35 38 40 43 48 58 64 78 87 94 99 99 99 99 99 98 96 99 99 99 99 98 97

GFSGL_prec_cthk_033.txt.gz
RH
70 72 70 74 73 68 59 60 70 64 64 63 67 72 72 80 84 93 88 86 80 76 78 90 92 93 88 84 82 82 75 63 58 57 57 56 54 50 48 47 46 43 41
65 64 66 63 54 52 68 70 70 69 70 65 61 60 63 71 78 84 80 82 84 82 85 92 89 89 88 85 86 83 69 64 65 57 52 52 52 52 52 50 47 48 43
56 61 60 47 55 62 62 61 60 57 55 55 55 58 63 73 82 76 79 77 89 93 97 94 93 94 93 89 83 74 70 69 69 64 56 53 55 55 58 56 56 52 46
50 51 56 58 60 62 59 55 56 54 54 56 59 63 71 73 76 81 78 80 96 96 97 97 96 92 89 87 74 72 70 70 74 73 65 58 61 61 66 61 62 57 51
55 61 65 66 61 55 51 44 42 42 46 53 64 68 69 75 73 76 85 88 88 95 94 94 89 89 82 69 70 63 66 71 72 74 74 72 63 68 71 70 66 61 51
60 57 54 53 50 44 40 41 42 47 51 56 60 65 66 68 71 79 84 84 86 85 84 84 83 73 64 62 56 53 51 47 51 58 71 72 75 71 70 71 71 66 51
55 52 48 45 42 40 38 40 46 48 52 57 62 65 68 71 75 75 79 81 75 77 75 69 61 57 56 54 52 49 45 42 43 47 61 67 75 74 69 71 73 65 54
49 46 44 40 36 35 40 45 49 53 57 61 64 66 67 68 68 68 70 74 71 63 56 55 49 46 46 47 46 43 43 43 39 46 56 65 77 77 65 67 70 63 53
43 38 36 34 38 43 47 51 55 58 60 62 61 61 61 61 65 68 64 57 52 46 42 40 41 41 38 39 40 39 37 41 50 52 54 67 76 77 67 69 67 62 54
37 34 37 41 45 48 50 53 55 55 54 54 57 58 58 55 52 50 44 38 37 38 38 37 37 38 36 36 37 37 37 35 55 72 64 64 71 69 66 70 73 68 64
36 40 43 45 48 51 52 52 52 51 48 48 47 49 48 47 46 42 40 39 35 32 30 30 31 32 32 30 32 37 40 41 53 75 83 89 70 66 74 76 79 76 76
44 46 48 49 51 52 52 49 46 47 47 47 48 48 47 46 47 42 37 31 28 26 23 21 21 17 12 11 17 28 42 46 55 61 77 87 90 86 87 81 74 75 80
49 51 52 52 53 52 49 47 47 46 46 47 45 43 41 42 37 34 32 27 24 23 22 19 13 11 9 9 10 11 15 32 55 63 60 74 94 85 88 89 93 93 90
53 54 54 54 52 49 48 45 44 47 43 42 42 41 38 35 35 31 27 26 24 21 16 13 11 12 19 27 31 33 32 25 30 61 82 75 85 95 91 98 98 97 94
57 57 54 52 52 51 48 46 45 43 38 36 34 31 30 29 32 30 29 25 20 17 15 14 21 27 23 26 27 33 47 53 59 68 70 94 99 98 94 99 96 97 94
59 55 52 53 53 51 52 53 49 44 40 36 34 33 33 32 32 30 25 21 17 17 20 25 28 26 25 25 25 28 30 47 62 73 74 84 91 99 98 99 98 98 96
57 52 54 54 55 55 55 54 52 50 44 42 40 37 37 35 31 26 22 18 18 22 27 31 32 30 26 27 29 34 36 35 51 88 86 79 77 99 99 99 98 97 94
58 60 61 61 61 59 58 53 54 54 52 51 49 47 42 33 28 24 20 20 25 26 30 34 35 34 30 30 33 38 43 44 44 71 80 75 80 98 99 98 97 94 92
68 64 61 63 62 58 54 53 55 57 57 55 52 48 44 33 26 27 29 26 26 27 31 32 33 33 32 33 36 43 51 52 47 63 72 78 88 98 99 99 93 93 97
71 71 69 66 64 62 61 59 61 61 58 54 51 47 40 30 27 30 27 28 29 30 31 32 34 35 35 37 39 46 55 59 61 54 53 71 74 86 98 98 96 93 98
80 73 70 69 67 64 61 60 59 58 57 54 50 45 39 31 30 29 30 30 33 31 31 32 34 35 38 40 42 48 60 64 68 65 80 88 94 96 99 99 97 98 99
75 74 72 70 68 65 61 58 58 61 59 56 52 48 41 33 31 31 32 33 32 32 33 33 35 35 37 42 45 51 62 72 77 83 89 91 98 99 99 97 98 99 99
78 77 75 72 67 64 65 67 67 66 62 57 52 45 39 35 33 33 34 35 34 34 34 35 35 35 39 45 50 56 65 78 85 90 93 99 94 99 99 99 99 99 99
79 77 75 73 72 69 73 72 71 67 61 54 49 46 40 36 36 37 38 37 36 36 36 36 34 37 40 46 53 60 71 82 88 94 99 99 99 99 99 99 99 98 99
79 78 79 78 80 79 77 73 68 63 58 54 51 44 39 39 40 41 41 41 40 39 39 38 40 41 43 46 54 62 75 87 91 98 99 99 99 99 99 98 98 99 99
85 87 87 84 80 77 72 67 64 61 59 55 48 44 43 44 46 46 45 42 40 39 40 45 47 49 49 49 55 63 79 87 94 97 99 99 99 99 99 94 98 99 99

GFSGL_prec_cthk_036.txt.gz
RH
71 70 76 71 79 82 80 83 72 67 68 72 68 66 58 58 59 61 64 71 85 80 80 91 87 83 85 88 91 88 88 87 78 69 58 56 58 57 52 53 49 40 37
65 71 89 80 81 79 79 61 55 71 68 65 61 56 56 58 66 66 67 71 71 94 85 81 82 85 90 92 94 92 86 84 75 63 60 58 58 57 54 47 47 45 43
63 68 80 71 70 81 60 58 65 68 64 61 57 57 58 61 61 64 65 80 74 80 84 82 85 91 91 92 85 83 80 75 70 68 64 64 64 67 64 56 52 49 49
59 60 59 65 70 58 60 64 67 64 59 56 49 46 51 54 65 63 74 71 84 78 77 83 92 90 91 85 82 79 73 69 71 74 68 64 67 69 74 69 61 60 55
59 59 51 53 58 67 67 64 57 53 47 46 45 49 53 59 62 68 70 74 73 78 83 84 85 85 81 78 71 64 64 68 68 67 62 60 59 63 74 78 76 70 63
52 54 63 66 65 59 55 52 44 43 41 42 47 51 56 58 64 66 70 73 74 74 75 75 73 72 67 57 54 52 54 57 55 56 49 53 52 62 74 86 87 79 71
60 66 64 60 56 53 50 46 43 40 41 45 48 52 57 61 66 68 66 66 67 66 65 63 57 50 44 46 46 47 47 47 49 47 48 43 51 52 66 84 82 83 82
63 57 54 54 53 48 42 38 37 42 46 49 53 55 57 58 58 60 62 61 59 58 56 50 44 44 46 46 44 42 38 35 34 39 38 35 43 51 62 77 86 90 86
49 47 48 48 44 38 36 38 42 45 49 53 54 52 55 56 57 56 56 56 55 49 43 42 40 36 36 37 37 36 33 29 28 32 34 38 44 56 72 80 75 90 85
41 47 46 40 37 37 41 43 46 48 49 51 52 51 50 52 54 52 49 45 41 38 36 32 28 29 29 30 30 29 27 22 25 27 32 36 40 61 78 84 93 94 82
46 41 38 35 38 41 43 44 47 48 49 48 44 45 47 47 47 47 45 42 36 31 27 27 28 27 24 19 15 13 12 11 8 9 12 32 52 58 80 93 91 97 93
39 37 37 40 42 44 45 46 49 51 50 49 50 51 51 50 49 46 43 36 32 30 29 29 27 22 18 15 15 19 22 25 28 28 21 19 32 55 54 74 98 88 87
38 40 42 45 47 48 51 52 54 54 53 53 52 51 52 50 48 43 37 36 33 31 31 28 23 18 16 17 20 18 20 28 34 40 42 35 28 53 80 78 89 88 92
42 44 46 48 49 50 54 54 53 52 51 51 52 51 50 46 42 38 37 36 35 34 31 25 20 19 25 22 17 15 17 21 29 39 44 52 54 52 82 99 85 97 88
47 50 52 52 54 56 55 51 51 50 52 52 50 47 45 43 41 40 40 40 38 35 29 25 25 27 23 19 18 20 22 24 28 29 30 50 58 70 72 91 96 98 97
54 57 59 60 63 60 55 53 54 56 57 55 51 48 47 47 45 45 44 40 37 34 31 32 30 25 22 22 22 23 25 29 30 32 34 37 62 73 80 94 98 95 97
68 68 69 67 64 60 59 63 66 65 64 56 53 52 51 51 47 46 44 41 39 41 38 32 25 24 24 25 27 28 30 32 33 37 42 53 85 88 89 86 92 96 98
72 75 74 70 69 67 67 67 66 66 65 65 65 63 61 57 51 47 45 44 44 39 32 27 26 27 27 29 31 33 34 35 36 42 47 58 87 84 82 78 86 98 99
78 77 74 71 67 71 73 71 69 69 68 67 66 65 62 61 57 50 55 52 45 37 30 28 28 29 29 30 34 37 38 37 42 49 54 54 75 78 82 82 98 99 99
82 82 85 86 83 78 77 73 71 71 71 71 69 68 65 62 57 54 58 50 41 36 32 30 30 31 32 33 35 38 39 39 45 56 61 62 70 75 79 92 99 99 98
97 94 86 82 80 78 77 77 76 73 72 70 69 70 70 66 61 61 54 47 43 38 34 33 33 34 35 35 38 39 40 42 49 60 69 68 61 64 83 98 98 98 98
88 86 84 85 85 83 78 77 73 71 73 76 76 75 72 68 64 58 52 50 45 38 37 36 37 38 38 39 39 40 42 45 52 62 72 77 83 90 92 94 99 99 99
89 89 87 85 82 80 78 79 80 81 82 78 76 72 69 64 59 57 55 50 43 41 41 42 43 41 41 43 42 43 44 49 55 68 79 84 89 95 99 98 99 99 99
87 86 86 84 84 83 82 85 84 83 78 74 70 65 60 58 57 57 52 47 47 46 46 46 46 45 48 48 46 46 48 54 60 70 83 90 92 99 99 98 98 99 99
90 90 90 90 89 88 88 85 79 74 70 65 62 61 58 57 57 53 50 49 49 48 48 49 47 49 51 52 53 53 52 56 63 73 86 96 99 99 99 98 99 99 99
93 94 93 90 88 84 78 73 68 62 60 61 60 57 55 52 51 50 50 51 51 49 47 47 48 53 57 60 59 59 58 59 65 79 90 99 99 99 99 98 99 99 99

GFSGL_prec_cthk_039.txt.gz
RH
70 65 74 70 62 69 77 91 91 94 82 66 83 80 68 69 64 61 62 65 67 66 71 75 79 79 88 85 84 85 92 90 81 75 70 67 60 60 62 58 58 56 55
67 60 73 78 90 94 90 96 97 77 72 69 70 70 67 65 60 60 62 64 67 65 71 80 75 85 88 85 85 90 87 89 82 69 62 54 56 62 63 65 67 63 60
67 64 85 83 73 69 61 80 80 68 60 66 70 67 62 59 56 53 54 56 69 64 73 74 81 83 81 84 84 82 81 79 75 65 53 53 57 65 68 70 67 68 71
63 67 61 53 52 57 66 64 65 63 72 70 63 59 50 44 45 51 55 64 61 71 73 76 80 79 77 80 76 74 73 66 62 59 56 54 60 59 66 65 72 74 71
45 42 43 49 55 54 59 62 63 71 67 58 48 46 43 45 50 53 58 65 67 71 72 75 74 74 73 71 67 61 56 54 57 57 55 57 53 51 52 52 58 62 67
34 36 41 44 48 54 60 67 63 59 52 46 42 43 45 50 55 59 62 65 69 70 72 71 70 67 60 51 46 48 51 52 50 52 50 53 46 53 51 52 54 67 81
33 37 41 46 55 59 55 52 51 49 45 40 39 44 49 52 56 59 62 66 63 62 61 60 54 52 48 42 40 39 38 41 45 47 45 42 44 42 50 50 51 60 75
43 44 51 54 57 51 45 46 46 41 38 37 41 45 49 53 56 58 58 57 57 55 54 53 50 44 42 41 38 37 36 37 37 37 40 38 38 37 38 42 45 54 67
49 55 51 47 44 43 42 42 39 37 37 41 43 44 47 50 52 55 54 53 48 49 49 51 48 47 43 38 36 34 30 25 20 18 15 13 11 10 16 32 44 51 61
48 48 47 45 42 42 41 37 35 38 41 43 44 44 50 54 54 49 50 53 51 50 49 45 40 35 33 33 33 31 26 23 21 19 18 17 17 17 13 8 22 51 63
42 40 39 39 44 42 38 37 39 42 43 44 46 49 51 52 52 52 52 52 52 50 42 39 37 37 38 38 35 32 31 28 24 23 20 18 19 23 25 21 22 49 74
42 43 46 46 42 39 38 41 42 44 45 45 47 51 53 53 56 57 58 55 51 44 42 40 40 41 40 37 35 33 30 26 22 18 16 18 28 27 33 36 32 46 66
49 50 49 47 41 40 41 44 46 48 49 51 55 56 56 57 59 61 57 53 48 44 43 43 43 41 38 35 34 33 28 23 19 17 18 22 24 23 39 46 43 53 66
49 49 47 45 45 46 49 50 52 55 58 62 63 57 55 59 60 58 53 49 47 46 46 45 43 41 38 37 34 29 24 20 18 18 20 22 24 27 26 48 57 56 90
48 48 49 48 50 53 56 59 64 65 66 63 62 62 61 59 56 53 53 51 49 49 47 46 45 43 41 37 32 27 21 19 19 21 25 27 29 34 29 43 61 69 86
50 53 55 56 55 59 67 70 69 67 64 61 60 60 60 59 59 57 56 55 53 51 49 50 51 50 45 39 32 24 22 21 22 25 29 33 37 40 36 51 72 77 90
61 63 61 61 64 66 71 71 70 70 70 65 70 68 66 65 62 61 61 58 55 53 56 57 54 50 44 37 29 24 22 23 26 29 32 37 42 46 62 73 82 85 92
67 71 75 75 72 76 78 76 74 75 81 79 77 74 71 69 67 69 66 62 62 61 60 59 56 50 40 33 29 25 24 25 29 33 36 41 47 52 75 83 84 88 94
82 81 77 79 84 80 80 84 86 85 83 80 81 81 81 80 75 71 66 66 69 68 65 60 56 46 40 36 29 28 27 30 34 38 40 44 52 54 78 81 83 81 84
81 81 86 91 94 97 96 91 86 85 86 85 87 85 81 77 75 72 71 74 73 67 62 56 49 45 42 33 30 30 32 34 38 42 43 46 57 61 73 78 79 79 92
96 97 97 97 96 94 93 94 92 89 88 84 83 80 78 81 82 79 77 71 64 59 52 50 47 44 36 35 35 35 38 40 43 45 45 48 62 68 68 73 79 83 94
96 96 96 96 97 97 96 90 89 89 85 83 85 88 89 87 80 74 68 64 56 54 52 49 46 39 38 39 40 42 46 47 47 45 46 52 66 74 72 75 86 92 98
97 97 97 97 96 94 92 90 89 89 89 89 88 85 80 75 72 68 61 58 56 53 49 44 39 39 40 42 45 49 52 53 50 47 48 55 72 81 85 89 91 96 96
97 97 96 96 95 94 93 93 91 88 85 83 80 74 69 63 58 56 54 51 46 44 42 43 41 40 40 44 47 51 56 56 54 51 52 58 77 90 91 96 99 99 98
97 98 97 96 95 93 90 85 81 76 72 68 63 57 54 53 49 45 43 42 42 42 43 45 42 40 43 45 50 56 60 62 59 56 56 62 79 91 93 99 99 98 97
95 94 91 86 79 73 66 60 56 53 47 43 41 39 38 38 39 40 42 44 43 43 44 43 41 43 47 52 58 63 67 65 64 62 61 67 81 92 99 99 99 99 99

GFSGL_prec_cthk_042.txt.gz
RH
64 69 70 77 81 78 79 78 88 90 95 91 87 85 87 81 78 76 70 65 66 71 72 70 65 68 75 71 73 76 80 84 76 73 73 73 70 66 58 52 52 55 56
66 76 86 87 85 81 90 93 87 98 97 72 71 75 70 75 80 69 67 65 66 66 64 64 67 72 66 75 78 79 79 77 74 69 67 64 62 58 55 55 57 62 62
56 74 82 85 76 82 77 84 78 84 96 71 66 69 74 74 68 66 64 62 59 56 55 59 69 69 73 74 77 79 73 74 72 67 60 57 55 56 56 61 62 68 68
49 54 65 67 63 62 66 66 69 67 76 74 73 74 71 69 66 59 50 47 52 53 62 68 68 72 73 72 69 72 71 68 63 56 52 51 51 49 52 53 53 53 54
32 35 44 56 50 55 57 60 58 66 70 73 79 72 69 59 49 43 46 54 54 55 65 67 71 68 72 72 69 67 63 56 51 51 52 51 50 51 50 45 46 44 41
33 41 50 51 52 54 56 60 67 71 70 69 67 59 52 47 43 45 50 54 58 65 65 71 71 72 72 63 61 57 52 50 51 51 50 50 49 52 48 48 48 50 46
42 45 48 50 53 57 59 62 66 67 62 53 49 49 47 44 47 50 55 57 61 63 70 71 67 61 58 52 49 48 49 49 48 49 49 51 45 42 41 39 40 41 37
49 54 54 54 56 57 65 66 59 51 49 48 49 46 44 47 51 53 55 56 61 66 65 60 58 56 51 51 49 47 44 43 41 40 37 32 27 25 26 25 23 21 11
51 56 58 58 63 66 64 56 51 51 50 50 46 42 45 48 50 51 53 56 60 60 60 56 54 56 55 52 49 43 40 39 39 36 32 29 27 29 31 32 26 30 25
48 50 55 58 59 54 50 48 47 45 48 43 40 43 45 46 48 51 54 59 62 59 56 57 60 59 50 43 41 40 38 39 37 35 33 29 27 25 22 21 28 36 38
46 47 49 48 45 44 43 42 43 46 43 39 41 44 46 48 51 53 58 62 62 61 59 58 54 48 43 43 43 43 43 40 38 36 34 30 25 20 14 15 19 34 44
44 45 42 40 40 41 42 46 47 42 38 40 44 47 48 50 54 59 62 64 67 65 60 53 49 47 47 48 48 47 45 42 41 38 34 29 23 14 12 13 15 17 40
43 42 42 42 44 48 50 49 46 44 44 45 47 48 49 53 60 64 66 68 66 60 55 55 53 52 53 52 50 47 47 46 44 40 35 27 18 15 16 16 19 22 29
45 47 49 51 53 53 52 51 49 48 48 48 50 51 56 65 68 69 68 67 60 58 58 56 56 56 54 52 52 53 53 51 47 41 32 23 19 19 20 24 27 29 29
51 54 56 57 54 54 57 59 60 60 61 63 64 67 70 71 69 69 64 62 60 60 57 57 58 58 58 57 57 57 56 52 46 37 28 24 22 23 24 30 39 38 39
55 57 58 60 61 62 64 66 69 71 72 73 72 68 68 68 65 68 66 64 66 64 62 65 67 65 62 62 62 60 56 51 41 34 29 25 26 27 29 34 45 50 57
62 62 64 66 68 70 71 71 70 69 69 70 68 68 71 72 76 75 76 71 66 67 70 71 69 67 70 69 64 59 54 43 37 32 26 28 30 32 34 40 55 64 71
71 72 74 78 80 81 80 78 75 77 82 83 87 92 92 88 84 81 82 86 83 79 73 72 76 76 72 67 61 54 43 39 34 28 28 31 35 37 38 45 59 72 83
86 89 90 90 89 85 83 88 92 95 96 96 96 95 95 96 97 95 90 85 79 80 84 85 78 75 67 60 50 45 41 36 30 29 31 34 39 40 44 50 62 79 86
97 97 94 91 93 95 96 96 96 97 97 97 97 97 97 97 95 89 86 85 88 88 84 78 73 65 57 52 47 42 35 32 32 34 35 39 42 45 49 54 61 82 90
96 96 96 97 96 97 96 96 97 97 97 97 97 97 97 95 92 95 96 93 86 81 76 69 62 57 53 45 38 34 33 34 39 41 40 42 44 48 54 60 69 82 85
94 96 96 97 97 97 97 97 97 97 97 97 98 98 98 98 97 92 85 80 74 67 58 55 54 50 44 37 35 33 34 39 41 42 46 46 48 52 54 68 72 80 82
90 95 96 97 97 97 97 97 97 97 98 98 98 97 92 86 82 78 71 62 57 54 53 50 45 40 37 36 36 37 40 43 44 47 48 52 51 51 58 77 78 79 88
97 97 97 97 97 97 98 98 98 96 93 88 82 77 71 65 58 52 49 46 43 41 40 40 40 39 39 38 39 43 46 46 50 52 57 57 54 53 64 82 84 87 90
97 97 97 97 96 94 91 86 76 67 62 56 53 48 42 40 38 38 38 38 39 40 41 42 41 41 41 40 43 47 49 54 58 62 64 63 57 57 68 90 92 97 99
93 89 82 73 63 56 51 46 43 40 37 34 33 34 35 35 37 38 40 41 42 44 44 45 45 44 43 43 47 51 58 62 67 72 69 66 62 62 72 92 98 99 99

GFSGL_prec_cthk_045.txt.gz
RH
62 64 68 71 74 77 80 75 75 81 83 89 91 96 89 94 96 90 87 83 74 64 67 74 75 64 75 73 68 63 68 67 68 68 68 70 70 72 71 69 65 61 58
59 64 67 77 83 86 88 83 91 90 93 86 95 98 75 79 84 84 80 73 67 65 70 69 65 73 64 68 62 68 73 72 71 68 69 70 72 73 67 61 61 59 57
49 49 53 60 77 78 79 69 77 81 84 87 76 65 69 78 77 77 74 68 69 70 67 65 66 64 66 58 65 72 72 72 71 70 68 73 70 63 58 54 49 47 51
39 40 42 46 52 62 72 64 65 77 75 74 73 69 71 77 76 80 73 70 66 63 59 58 61 57 58 67 72 71 74 70 68 70 70 63 57 55 52 49 47 46 42
32 33 33 38 46 56 70 66 68 65 72 75 77 78 76 76 82 83 73 65 56 53 53 56 57 57 66 73 73 76 67 74 74 69 58 56 54 50 49 48 48 43 36
31 28 36 40 50 59 67 64 64 68 71 74 73 82 77 79 80 72 61 49 46 55 58 60 59 67 72 71 76 72 79 70 62 57 54 50 47 47 47 44 39 32 27
33 29 35 46 52 57 60 61 61 62 71 72 75 76 76 67 64 57 50 47 55 56 59 60 62 66 70 78 76 71 63 61 58 54 49 47 44 42 40 37 37 36 33
39 35 34 44 51 58 61 61 60 65 71 68 72 62 61 58 56 52 48 52 55 58 60 62 66 72 77 75 67 62 59 56 52 46 42 43 44 43 41 38 38 37 33
39 34 38 46 56 58 60 62 64 64 70 70 60 57 56 56 54 49 51 55 58 60 62 67 73 74 68 64 61 59 53 48 45 45 47 48 46 43 42 41 41 46 39
42 40 47 53 56 59 64 67 73 72 64 59 60 59 56 57 54 53 56 58 61 63 65 66 70 72 68 67 58 49 47 47 48 50 49 47 46 47 47 46 43 38 32
46 49 52 56 59 62 67 65 61 59 59 58 58 56 57 56 54 56 57 57 59 59 61 65 68 72 67 55 51 52 52 51 53 52 49 50 50 51 49 46 42 37 27
53 52 53 55 60 64 59 56 55 55 55 57 58 60 59 54 55 57 58 58 61 64 68 74 74 61 56 53 56 56 56 57 55 52 52 53 54 53 50 46 39 30 24
52 53 54 54 56 53 52 52 52 55 58 61 62 62 59 58 59 59 61 64 67 71 74 69 59 57 59 63 64 59 59 58 57 57 57 58 57 55 50 42 31 21 19
53 56 60 57 54 55 57 59 61 64 65 66 66 64 64 61 61 65 67 68 70 71 63 60 67 72 66 62 61 63 62 63 61 62 63 61 57 53 45 35 22 18 19
58 59 62 63 64 65 67 69 70 71 72 71 70 69 68 69 70 71 71 72 68 72 75 74 69 69 68 65 66 70 67 67 70 68 66 61 56 48 36 27 22 22 26
61 63 66 69 70 71 72 73 75 78 78 78 78 78 78 77 78 77 72 70 72 75 71 74 74 70 71 77 77 71 76 78 71 68 65 60 51 38 29 23 25 27 31
72 73 73 73 75 75 77 77 79 81 82 84 85 82 76 75 76 77 79 81 85 84 82 80 81 84 83 83 89 86 81 75 70 67 60 49 39 31 25 24 26 31 37
84 85 86 87 87 87 87 88 89 89 88 85 85 89 93 92 95 96 97 97 97 97 93 92 91 96 97 94 88 83 76 72 66 56 46 39 32 28 27 29 33 35 43
91 92 92 93 95 96 96 96 93 94 96 97 97 97 97 97 97 97 97 98 98 98 98 98 98 97 92 87 81 77 70 60 50 43 37 32 30 30 29 33 38 40 50
97 96 97 97 97 96 96 97 96 96 97 97 97 97 97 97 97 97 97 98 98 98 98 98 94 89 84 81 73 60 47 44 39 34 30 32 33 35 36 37 43 46 57
96 96 96 96 96 96 96 96 96 97 96 95 95 96 97 98 97 98 98 98 98 97 93 88 83 78 69 60 50 44 38 34 32 33 35 35 35 38 41 41 47 52 64
94 96 96 96 96 95 95 97 96 97 97 98 98 98 98 98 98 98 98 95 91 85 79 70 62 53 45 42 38 33 31 32 35 37 37 38 41 43 44 46 49 59 69
96 96 96 96 94 95 97 97 97 97 97 98 98 98 98 95 90 81 73 67 61 55 48 42 38 37 38 38 36 35 34 38 40 41 42 44 46 48 51 52 57 62 75
96 97 97 97 97 97 97 97 97 96 93 87 77 67 59 55 50 45 42 37 34 34 35 36 37 39 39 39 40 41 42 44 44 47 48 49 53 57 59 59 60 72 82
97 96 96 93 90 86 79 70 60 52 49 46 42 38 35 33 30 30 31 32 34 36 38 40 41 42 41 41 43 44 45 46 50 52 54 58 62 67 67 62 62 83 87
79 72 61 52 45 41 38 35 31 28 25 24 24 25 27 29 31 33 34 36 38 40 41 41 42 44 45 46 46 46 48 52 55 60 65 70 74 74 69 64 68 89 93

GFSGL_prec_cthk_048.txt.gz
RH
50 48 49 51 52 52 56 60 68 71 65 65 66 67 71 86 95 98 98 94 91 97 94 89 78 73 77 77 75 74 76 74 61 67 65 68 71 67 68 68 69 71 72
56 58 61 69 68 66 67 73 81 77 80 82 80 86 88 88 93 96 95 88 91 91 84 78 70 70 71 74 65 60 70 72 63 60 66 72 69 65 63 67 69 66 61
55 58 55 50 52 55 58 68 79 77 76 83 86 90 80 75 74 80 81 80 78 81 78 72 68 66 64 58 68 65 66 62 65 68 73 72 70 67 67 62 52 49 48
37 39 40 41 42 45 52 58 63 77 75 74 85 88 88 77 72 73 78 80 83 83 72 67 67 62 60 61 62 63 65 65 71 72 77 73 72 74 61 49 46 44 42
35 35 32 30 32 36 41 49 58 72 76 77 75 82 82 83 85 79 72 77 82 78 72 66 60 54 55 57 61 62 66 73 78 78 76 76 77 59 50 47 42 38 41
37 37 35 34 34 33 40 50 57 65 69 72 73 71 79 80 82 82 80 81 76 72 69 60 51 53 53 58 64 64 74 78 76 83 82 69 57 53 47 44 43 44 43
40 35 36 37 37 35 39 50 58 62 69 73 72 73 80 82 79 77 80 76 72 67 58 52 48 56 59 61 66 71 76 78 86 87 64 58 53 48 45 45 48 47 45
45 42 40 39 38 36 40 50 59 68 74 78 75 74 79 82 84 84 72 69 63 62 56 54 56 59 62 67 70 72 76 87 77 63 58 51 49 51 51 50 52 48 47
49 53 48 43 41 40 46 52 61 70 71 75 77 77 75 78 81 69 66 65 57 61 61 59 61 64 67 70 73 80 79 64 60 56 54 54 56 56 58 55 53 52 50
55 55 55 50 45 48 51 55 57 61 63 67 72 78 77 78 68 68 66 63 65 68 63 64 66 68 70 74 83 70 61 58 56 55 56 59 57 56 57 56 58 60 59
62 60 59 59 53 51 49 57 58 59 64 68 73 75 71 66 69 69 67 69 72 70 67 67 69 72 75 72 65 60 55 58 58 58 60 59 59 58 59 62 64 64 61
65 65 67 67 58 54 51 55 62 68 70 70 66 62 62 66 68 69 73 76 77 75 73 73 74 71 68 65 58 57 63 61 60 66 65 62 65 65 65 67 66 64 62
70 71 72 74 64 62 62 63 69 68 65 62 59 60 63 66 72 77 78 78 77 75 72 72 73 72 66 59 62 63 71 77 72 66 65 70 69 72 74 68 66 62 60
79 78 76 67 64 65 68 70 68 64 64 65 65 67 71 74 76 78 79 79 77 77 77 76 70 66 65 70 78 82 80 75 69 72 76 75 80 76 72 68 65 62 53
74 69 67 67 67 67 67 66 67 69 71 73 75 77 78 79 81 81 81 83 84 83 79 74 69 75 86 82 79 78 77 74 80 82 87 83 78 75 69 67 63 54 39
72 71 72 74 74 76 75 76 80 83 84 85 87 89 91 92 92 92 92 90 87 80 77 76 80 87 87 88 84 86 90 93 92 90 87 80 77 71 68 63 52 36 22
82 81 84 84 85 86 88 91 93 94 94 93 93 93 94 95 95 95 89 84 85 85 92 96 97 97 97 97 97 97 97 95 92 89 82 76 72 69 60 44 30 23 21
92 93 92 94 95 96 96 97 97 96 96 96 96 96 93 91 92 95 96 96 97 97 97 97 97 97 97 98 98 98 97 93 86 79 75 71 62 49 36 29 26 25 26
98 98 97 97 97 97 96 96 96 96 97 96 96 96 96 96 96 96 96 97 96 97 97 97 98 98 98 98 98 95 89 83 75 67 58 48 38 33 29 28 28 29 31
97 97 97 96 95 96 95 96 96 96 95 95 96 96 96 97 97 97 97 97 98 98 98 98 98 98 98 96 91 81 71 61 50 40 34 33 33 33 33 33 35 34 35
96 97 96 97 96 96 96 96 96 96 97 96 96 96 96 98 98 98 98 98 98 98 98 97 93 82 72 65 57 49 40 35 32 31 32 34 35 37 39 40 41 39 41
96 97 96 96 96 96 97 97 97 97 96 96 98 98 98 98 98 98 97 92 82 71 62 57 52 46 39 35 34 35 35 35 35 36 38 40 42 44 45 45 46 46 45
96 96 89 90 96 97 97 97 98 98 98 98 97 94 87 75 65 58 51 45 39 34 31 30 30 32 34 35 37 37 36 37 39 41 43 46 48 50 51 52 51 52 53
89 90 94 97 97 96 94 90 82 73 64 55 47 39 31 26 24 24 25 26 27 28 29 31 32 33 34 36 38 39 41 42 43 46 49 50 53 56 56 58 61 61 62
89 85 79 71 62 54 46 39 31 24 21 20 20 21 21 23 25 26 27 28 30 31 32 34 34 36 37 39 41 44 46 47 49 51 54 57 59 63 66 68 70 70 69
46 38 29 21 16 15 16 16 17 18 19 19 20 22 23 25 26 27 28 29 31 32 34 36 38 40 43 45 47 48 50 52 55 59 61 65 70 73 77 79 77 73 71

GFSGL_prec_cthk_051.txt.gz
RH
43 38 37 39 44 46 46 51 54 58 62 66 65 62 60 58 61 66 72 75 81 89 93 97 95 96 96 97 94 85 84 92 77 83 63 66 73 73 70 71 71 66 66
46 49 51 51 50 54 59 60 61 62 62 74 70 70 76 70 70 71 76 85 96 96 97 97 97 94 92 86 84 83 75 77 62 62 76 67 66 67 68 72 73 69 69
47 48 51 54 57 56 52 47 51 56 57 68 75 70 82 81 79 80 83 86 93 94 89 88 86 90 89 80 77 72 65 65 64 71 65 70 66 65 68 69 72 74 63
44 45 48 48 47 41 43 44 44 46 47 55 72 76 76 81 78 79 82 82 83 83 83 85 86 88 90 82 77 74 67 65 63 64 65 66 66 71 71 70 68 57 50
36 36 35 35 37 37 35 36 38 41 43 51 63 77 77 81 80 79 82 81 84 82 80 81 86 86 85 76 70 63 63 64 64 65 62 66 73 75 69 68 54 48 46
42 39 39 37 40 39 37 37 38 39 41 49 56 72 78 81 81 81 84 93 89 79 84 82 87 77 75 74 67 61 58 62 61 65 68 72 75 71 68 57 48 47 50
45 43 40 41 41 41 40 41 39 41 45 49 57 65 71 76 80 84 86 86 89 90 86 84 79 78 74 70 61 58 58 60 66 69 71 74 70 65 54 50 50 52 54
49 45 46 47 42 43 45 42 40 44 49 55 62 66 71 75 82 81 78 87 87 86 87 82 82 79 68 64 65 63 61 65 69 72 73 66 62 51 48 53 55 56 60
50 49 50 49 50 46 44 44 43 45 51 57 61 64 69 74 74 76 79 85 83 86 85 80 77 73 69 67 68 66 67 70 73 73 70 61 49 48 55 58 59 64 62
46 48 52 58 60 55 53 58 54 48 50 53 56 60 63 65 68 75 79 82 87 83 80 78 75 75 75 77 77 74 77 80 79 69 59 49 50 59 66 65 67 65 67
49 52 54 60 66 66 68 68 66 58 56 55 59 63 65 68 71 75 82 85 81 78 76 78 78 82 85 85 84 84 86 79 67 57 55 57 70 71 73 73 68 71 73
55 61 66 73 74 73 76 76 77 71 62 63 64 67 72 78 81 82 78 78 74 78 81 80 85 87 88 90 90 85 73 61 59 62 69 77 77 79 75 72 78 83 82
62 67 75 81 80 81 82 79 75 73 67 72 74 76 83 85 79 74 71 73 77 79 82 87 89 91 92 86 77 68 63 71 78 81 85 86 80 77 83 86 87 81 77
75 75 80 82 82 84 84 80 76 75 76 78 82 84 77 74 74 77 80 81 84 87 89 91 93 90 83 78 75 80 84 86 87 85 84 80 83 90 91 87 85 78 73
79 79 78 85 87 86 82 80 79 80 87 89 86 83 83 86 89 92 92 94 96 97 97 97 93 88 84 80 81 85 89 89 89 88 93 96 96 94 89 85 78 74 72
85 84 87 91 86 83 84 82 84 86 89 92 92 93 95 96 98 98 97 97 97 97 95 89 87 89 90 93 96 96 96 97 97 97 97 97 95 89 84 78 76 76 68
88 90 93 91 89 89 91 90 91 93 96 97 97 98 98 98 96 97 97 96 92 91 95 96 95 95 96 96 97 97 98 98 98 98 96 93 89 84 80 75 67 55 44
97 98 98 98 99 98 98 98 98 98 97 96 96 96 96 97 97 96 96 96 96 95 96 97 97 97 97 97 98 98 97 97 97 95 90 84 75 64 56 51 41 35 31
98 98 98 97 97 97 97 97 97 97 97 96 96 96 96 96 96 95 95 96 96 96 96 96 97 96 95 95 96 96 94 88 77 65 57 50 43 37 35 34 33 33 34
97 97 97 96 95 95 97 96 96 96 96 96 96 96 97 96 95 95 95 95 96 96 95 95 96 94 88 76 66 57 51 46 40 36 34 34 34 35 36 37 37 38 38
97 97 96 96 95 96 96 95 96 96 95 94 93 91 91 93 93 93 94 94 93 89 77 64 52 45 38 32 30 30 30 31 32 34 35 37 38 39 41 42 43 44 45
96 94 93 94 95 95 94 94 94 94 93 91 87 89 92 91 85 76 60 48 41 34 29 26 25 25 25 26 27 28 30 33 34 36 39 42 43 45 47 49 50 51 51
93 92 91 90 89 89 89 89 89 88 83 77 67 55 45 39 34 27 22 21 22 22 22 23 24 25 27 28 30 31 33 35 38 41 45 47 49 52 54 55 56 57 58
94 93 90 86 79 69 59 52 47 44 40 36 30 23 19 18 19 19 20 21 22 23 23 24 25 27 29 31 34 36 38 40 43 46 48 51 55 58 60 62 62 65 65
57 52 48 44 41 38 35 30 24 20 17 17 17 17 18 19 20 20 21 22 23 24 25 27 29 31 33 36 39 42 44 45 47 50 54 58 62 66 67 70 71 74 75
36 31 27 23 19 17 15 15 15 16 16 17 17 18 19 20 22 23 24 25 27 28 30 31 33 36 39 41 44 46 48 50 53 56 61 65 70 73 76 80 82 83 82

GFSGL_prec_cthk_054.txt.gz
RH
33 37 40 42 44 47 48 51 52 55 58 60 61 62 67 66 70 73 73 69 67 70 75 74 75 82 90 90 95 96 98 96 98 98 89 91 87 76 64 70 79 67 66
42 40 38 41 42 43 43 45 50 53 57 57 57 59 66 74 71 72 74 73 71 66 67 66 73 89 95 98 97 97 94 94 91 91 88 79 69 80 67 73 64 67 65
47 49 48 48 45 44 46 49 53 55 55 57 55 56 62 68 78 73 75 85 85 73 76 81 86 94 88 92 93 94 96 96 89 85 80 74 69 73 65 70 69 67 66
49 51 52 49 49 53 57 57 52 48 46 46 45 48 55 62 72 77 79 81 87 80 82 85 89 82 79 83 88 92 90 88 84 81 71 69 64 65 66 69 66 66 66
51 51 47 48 50 55 51 50 50 45 44 46 46 47 52 57 66 81 83 80 79 84 85 85 83 81 83 85 86 87 86 82 77 74 69 65 63 63 66 66 65 67 61
51 47 46 43 42 42 41 41 45 44 43 44 44 48 51 57 59 70 80 86 87 82 85 88 84 88 87 87 87 87 86 81 79 73 71 67 64 63 67 67 66 58 50
50 48 47 45 44 45 45 47 47 50 50 47 43 46 50 57 62 73 81 85 88 91 92 91 89 93 93 93 89 91 84 84 79 71 67 69 69 69 68 64 59 54 54
51 52 53 51 48 51 50 51 53 53 52 52 48 49 53 61 67 74 79 82 85 87 89 90 90 92 94 91 90 88 86 84 75 72 74 75 77 71 63 59 57 55 57
51 47 53 53 55 56 57 57 57 58 57 55 54 52 54 59 66 69 72 77 82 83 85 84 84 91 90 87 98 86 93 81 77 80 83 84 79 70 65 60 60 65 70
53 57 57 57 59 61 60 57 55 62 63 61 61 57 56 58 61 65 71 75 78 80 83 86 87 90 91 89 84 86 78 82 81 88 88 78 71 68 67 64 62 75 84
53 56 60 63 63 62 64 64 61 69 72 74 77 74 67 60 62 66 70 74 79 82 86 87 88 90 93 87 81 80 87 83 88 88 80 78 73 67 67 73 79 86 86
53 53 56 59 63 63 65 70 79 85 84 80 82 80 76 74 70 68 71 76 80 83 86 85 84 97 93 81 86 87 86 89 86 84 76 72 77 84 89 92 88 80 84
57 58 59 63 68 73 78 83 86 81 90 85 82 84 81 74 71 73 78 82 90 97 97 95 82 85 89 86 88 93 90 86 81 83 89 95 94 95 90 86 87 91 94
65 66 66 72 77 81 87 89 91 88 88 90 91 86 83 80 79 80 91 98 96 79 82 87 91 93 94 97 95 91 90 91 94 95 95 96 95 92 95 97 96 94 92
75 77 78 80 83 90 93 94 93 91 92 94 94 89 87 89 94 97 96 92 90 92 95 96 97 97 97 95 92 90 91 95 96 97 97 97 97 97 97 97 97 95 92
88 88 87 88 86 89 89 93 95 94 97 98 98 95 93 94 97 97 96 96 97 97 97 97 97 97 96 96 96 96 96 97 96 96 97 97 97 96 94 93 94 91 88
92 91 92 90 90 96 98 99 99 97 99 97 97 98 97 97 97 97 97 97 96 96 96 96 96 96 96 96 96 97 97 96 96 95 94 92 93 91 85 76 67 60 50
98 99 99 99 99 98 98 97 98 97 97 97 97 96 96 96 97 96 97 96 96 96 96 97 97 96 97 96 95 96 95 95 93 89 79 65 52 42 39 38 39 39 39
98 97 98 98 97 97 96 97 97 97 97 97 96 97 96 96 96 95 96 96 96 95 94 91 88 89 92 93 91 86 72 55 40 32 28 31 33 34 36 37 38 39 40
97 97 97 97 97 97 95 96 96 97 96 96 96 96 96 96 96 96 93 92 91 90 88 85 84 76 62 48 36 28 25 26 28 29 30 30 33 36 37 39 40 42 43
95 97 96 96 96 97 96 96 96 96 96 96 94 94 93 92 89 88 85 82 76 63 52 43 37 30 26 25 24 24 25 26 27 29 31 35 38 40 43 45 46 47 47
92 90 92 95 95 95 94 94 94 93 92 91 88 84 80 75 65 54 47 41 35 31 28 26 24 23 23 24 25 26 28 29 31 34 36 38 43 46 48 49 51 52 53
90 90 88 88 90 90 90 86 82 76 69 61 54 48 43 40 36 32 29 25 24 20 16 17 18 19 22 23 25 30 32 34 36 38 40 42 46 48 52 54 57 59 60
78 73 66 61 58 56 54 52 45 42 42 40 37 33 29 27 24 19 17 16 17 18 19 19 20 22 24 26 28 31 35 36 38 40 45 47 50 52 56 60 63 65 68
47 46 44 44 45 42 41 39 37 33 29 27 24 22 21 22 23 24 21 19 20 21 22 23 24 26 28 30 32 35 38 39 41 43 46 49 54 58 62 66 70 73 76
34 33 32 30 28 27 26 22 18 17 17 18 21 21 21 22 22 20 20 20 21 23 25 27 28 30 32 35 38 40 42 43 44 46 50 55 60 65 71 77 80 82 84

GFSGL_prec_cthk_057.txt.gz
RH
30 33 34 39 44 49 52 53 54 56 55 60 63 65 66 66 69 74 74 74 73 73 73 72 67 68 69 76 77 80 84 87 91 91 90 90 92 93 95 97 91 83 74
35 33 33 34 37 40 45 50 53 56 60 61 63 61 59 60 62 65 69 72 72 74 78 81 80 79 80 76 75 76 86 92 94 94 91 93 95 91 97 83 83 75 70
40 38 36 35 36 38 40 43 46 50 55 58 61 58 57 56 57 59 60 65 74 77 77 78 86 86 83 75 77 86 91 84 89 93 95 88 92 83 85 78 70 69 64
47 45 43 41 39 40 43 45 47 51 55 55 56 53 53 52 50 52 57 59 66 74 76 81 79 93 88 81 86 90 88 83 87 89 90 89 87 82 75 76 72 70 68
50 50 45 46 50 56 55 55 54 56 55 53 53 50 49 50 48 49 51 55 59 67 75 83 83 84 81 89 94 90 86 91 94 93 89 95 88 90 87 79 74 72 69
54 51 53 55 55 54 55 54 58 59 57 56 50 50 50 46 43 45 52 55 59 63 74 88 92 95 93 96 97 93 89 91 96 93 95 95 90 89 88 87 75 74 72
54 53 57 57 54 52 51 52 54 54 55 52 53 55 54 53 50 45 49 57 63 69 74 83 90 93 97 96 97 97 96 96 97 96 98 98 97 96 94 85 84 77 78
54 54 55 57 56 55 55 53 56 53 51 55 58 59 59 60 59 55 58 63 68 71 75 82 88 91 93 96 95 97 97 93 90 99 94 98 98 92 93 89 85 79 81
55 57 55 55 58 58 54 54 56 57 56 61 65 65 65 64 64 66 67 64 64 69 74 75 81 85 88 89 93 95 94 88 94 86 87 87 88 89 84 82 79 75 78
54 55 57 58 57 57 57 62 61 61 60 60 61 64 68 71 71 71 76 81 78 70 71 75 79 80 81 84 84 86 88 88 90 90 98 96 91 80 83 80 74 79 76
55 57 59 63 64 63 66 68 64 62 63 64 66 70 71 71 74 80 83 85 83 83 82 83 81 81 84 86 89 90 91 91 87 96 97 96 89 83 79 80 82 85 89
57 59 59 61 64 63 64 67 77 79 76 77 77 80 84 85 76 81 87 91 90 90 85 83 82 83 85 88 94 96 98 94 97 95 90 84 85 89 93 93 95 97 96
68 67 63 62 66 71 75 77 79 80 82 83 88 91 86 94 94 89 93 94 92 89 86 86 84 89 92 94 97 97 98 92 93 93 95 97 97 96 96 96 96 95 96
71 73 71 70 72 76 76 78 82 84 89 95 94 96 93 95 93 89 96 98 96 92 91 89 93 98 97 97 97 96 95 96 97 96 96 96 96 96 96 97 96 97 96
75 77 80 79 80 84 85 89 92 92 93 98 99 98 96 99 97 98 99 98 98 98 94 95 97 97 97 97 96 95 96 96 96 96 96 96 95 95 95 96 96 95 94
78 80 81 85 91 93 87 89 94 96 97 99 98 99 98 98 98 98 97 97 97 97 97 97 96 95 95 95 96 96 96 96 95 93 93 92 91 91 92 93 91 83 70
95 92 88 83 97 99 95 97 98 96 98 99 98 98 98 97 97 97 97 96 96 96 96 96 96 96 96 96 96 97 95 91 92 90 89 87 82 71 61 53 42 36 35
98 99 98 97 98 96 96 98 97 98 97 97 97 97 97 96 97 96 96 96 96 96 96 96 96 95 95 95 95 94 92 86 75 63 54 50 44 38 34 32 32 34 37
97 98 98 98 97 97 97 97 97 96 97 94 97 96 96 96 96 97 96 95 96 96 96 96 94 93 90 85 74 62 54 47 40 36 35 33 31 31 32 33 34 35 37
97 98 96 97 99 95 97 97 96 96 96 96 95 96 97 96 96 96 96 94 92 90 87 79 69 58 50 45 40 35 32 29 29 28 30 31 32 33 34 35 36 38 40
96 97 97 96 97 97 96 97 97 97 96 95 95 96 96 93 91 90 86 77 65 55 50 45 41 36 31 28 26 23 22 23 25 27 29 31 32 34 37 39 41 43 46
96 96 96 96 96 96 97 96 93 93 91 91 90 87 82 73 62 53 49 45 41 38 33 29 27 25 23 22 23 23 24 25 26 27 29 31 33 37 42 44 46 49 51
95 94 92 91 91 89 87 81 76 70 66 60 55 51 47 44 41 39 35 32 29 26 23 22 22 22 23 21 21 25 26 27 29 31 33 35 37 40 44 48 51 53 57
65 62 58 56 54 52 50 48 46 43 42 41 40 38 35 32 29 27 24 22 20 22 21 19 19 19 19 19 21 23 27 30 30 32 35 40 42 44 46 51 56 61 64
52 50 48 46 44 42 41 40 38 37 34 32 29 26 23 22 22 22 23 23 17 18 19 19 20 21 22 23 25 27 30 32 34 36 37 40 46 48 53 58 65 70 74
39 37 35 34 32 31 30 28 26 24 22 22 22 23 23 24 24 24 25 25 19 20 22 23 23 24 26 28 32 32 34 35 36 38 41 45 50 56 61 69 76 79 82

GFSGL_prec_cthk_060.txt.gz
RH
34 34 34 36 40 44 45 46 48 50 51 54 55 58 63 73 73 69 68 71 72 73 76 76 76 76 78 79 79 78 76 77 76 78 75 78 87 87 88 90 89 92 97
40 38 36 33 37 38 42 44 47 49 51 53 57 60 61 59 60 60 62 64 65 68 71 75 78 80 80 84 86 88 89 85 84 76 78 86 81 88 94 89 92 89 84
48 42 37 35 33 32 34 38 42 45 47 50 52 53 57 56 55 54 55 55 57 60 61 63 70 78 81 83 83 87 93 93 92 82 82 82 81 80 91 85 91 90 83
57 51 43 39 34 33 36 39 41 42 43 47 50 55 57 57 57 55 54 52 52 53 56 58 59 67 77 83 89 88 95 95 89 85 94 92 86 85 90 90 93 94 92
60 59 49 50 48 46 45 44 45 48 49 51 51 53 55 55 54 53 53 55 54 54 55 55 57 63 68 75 88 87 92 88 93 97 95 89 88 86 90 94 93 98 97
54 55 57 59 58 57 55 54 57 56 54 53 52 54 55 53 50 48 52 54 54 54 54 57 60 63 66 72 82 89 93 98 96 92 98 90 92 91 93 91 90 99 90
61 54 57 59 60 59 60 63 61 59 60 58 57 57 57 56 53 55 60 63 64 61 59 58 62 64 70 77 85 90 94 96 93 95 93 92 96 98 88 93 98 96 91
57 59 58 59 59 59 62 64 64 60 60 61 61 59 61 56 57 60 65 67 68 69 70 68 67 63 67 76 82 83 84 89 88 88 89 92 90 91 96 92 86 88 95
56 55 59 60 61 64 64 63 67 69 66 64 63 66 63 61 61 67 71 73 74 74 74 76 78 79 77 75 77 79 78 82 81 87 87 86 84 93 88 87 86 90 94
52 50 52 54 60 61 65 66 68 69 69 67 66 63 64 66 67 68 70 72 75 79 79 79 81 85 86 87 87 87 89 89 85 85 98 91 94 94 89 95 88 95 94
50 51 52 52 55 59 65 69 72 72 71 71 71 70 69 70 73 75 77 81 82 83 85 85 87 89 94 98 94 96 96 89 87 99 89 95 94 97 96 97 97 94 90
50 56 58 57 56 61 65 67 70 76 79 80 81 82 82 82 82 84 85 87 89 91 90 95 97 94 95 95 98 91 96 98 88 92 95 96 96 95 96 95 96 96 96
49 54 59 66 68 71 72 75 78 80 86 90 91 91 91 92 89 94 91 92 94 95 98 98 98 99 97 98 97 97 96 95 96 97 97 97 96 96 96 95 96 94 93
50 52 61 67 72 79 82 82 85 86 89 92 96 97 98 97 98 95 96 99 97 99 98 99 96 97 98 98 98 97 96 96 97 96 96 96 96 96 95 95 94 91 87
60 58 60 70 79 84 86 91 90 93 96 94 91 98 97 94 95 98 94 98 98 98 98 96 94 97 97 96 97 96 97 96 96 96 95 95 95 93 91 89 85 80 74
79 78 70 72 80 86 89 90 94 94 95 98 97 98 97 94 96 98 95 97 97 96 97 97 96 96 96 96 96 95 95 95 94 92 91 89 85 79 69 59 52 48 47
90 94 88 83 78 90 91 94 98 99 98 94 98 96 98 98 96 97 97 96 97 97 97 96 96 96 96 95 96 94 94 93 89 83 72 60 54 48 45 41 36 32 32
90 94 97 90 91 90 97 98 98 97 96 98 96 95 97 96 98 95 97 96 97 97 95 95 95 95 94 93 90 86 79 67 58 51 47 42 38 34 30 27 26 27 29
95 95 98 95 96 96 97 96 98 96 96 95 99 95 98 94 96 97 96 97 96 94 92 92 92 88 80 70 60 53 49 47 42 39 36 31 27 24 23 24 26 29 32
96 96 96 97 97 98 92 97 99 93 96 97 97 97 97 97 94 96 96 92 90 85 77 68 60 53 50 48 45 41 38 35 30 26 23 22 22 23 25 28 31 33 34
96 96 95 96 95 95 97 98 96 94 96 97 98 96 95 92 89 81 70 61 57 54 52 51 48 42 39 35 30 27 24 22 22 22 23 24 25 26 27 29 32 34 38
97 96 97 97 96 96 95 94 95 94 90 86 80 74 69 60 55 51 48 44 41 38 35 33 31 27 23 19 17 18 22 23 23 23 23 24 25 29 31 33 35 37 40
81 79 76 74 70 68 66 64 60 57 55 54 53 51 47 43 41 37 33 31 30 27 22 20 17 17 16 16 17 18 20 21 21 22 23 25 27 31 33 35 38 41 46
58 57 54 52 50 49 46 44 42 41 40 39 37 35 32 31 30 29 26 22 19 19 17 16 17 18 17 18 18 19 20 22 24 26 27 28 29 31 34 39 45 50 57
46 44 42 40 37 35 33 32 31 31 30 29 28 25 24 23 23 23 22 19 17 17 18 20 20 19 19 19 20 22 25 26 27 29 29 30 32 35 40 46 52 60 64
29 28 29 28 28 26 25 24 24 23 22 22 22 23 23 23 22 23 22 19 20 20 21 21 20 21 22 24 26 27 28 30 31 31 32 34 37 41 45 54 62 68 71

GFSGL_prec_cthk_063.txt.gz
RH
35 36 37 36 39 42 46 47 48 49 49 48 49 52 54 56 59 64 65 68 72 76 74 73 72 74 77 79 81 84 84 85 83 83 85 87 88 85 85 86 88 88 89
47 38 37 39 39 41 41 45 48 49 50 52 53 54 58 60 60 60 60 64 68 70 67 68 67 70 73 76 79 82 85 85 86 81 84 90 94 93 92 91 91 86 87
55 53 43 42 39 40 41 41 45 47 48 50 51 50 52 53 56 58 57 58 59 59 58 57 55 59 59 59 62 72 79 83 86 90 90 93 94 93 92 89 94 94 89
57 58 57 51 44 41 40 41 43 45 45 45 47 47 49 52 55 57 56 55 54 52 52 52 52 53 52 55 59 60 66 73 78 89 94 93 93 89 89 95 93 95 92
70 63 59 62 58 55 48 42 43 48 48 50 52 51 53 53 52 54 54 56 57 55 53 50 51 53 53 56 61 62 67 71 77 82 81 87 92 94 90 92 95 91 94
71 71 67 59 59 56 60 61 59 54 50 56 55 57 58 53 51 56 59 59 59 56 53 56 57 59 57 62 67 69 69 71 78 81 83 85 85 92 94 88 96 92 99
65 65 71 73 71 61 59 62 64 66 67 65 63 64 63 64 61 61 63 70 67 62 64 68 68 67 69 72 74 74 76 74 69 74 77 83 77 76 82 85 79 78 78
59 61 58 65 72 73 66 64 63 62 66 67 69 70 71 67 66 67 72 74 73 69 70 72 72 72 78 81 82 83 81 82 79 76 75 77 79 80 77 82 84 96 98
41 47 54 56 60 69 74 71 66 67 65 67 71 76 75 72 74 72 76 82 84 81 77 78 79 81 83 86 91 87 88 87 84 84 89 90 90 88 92 89 90 93 98
33 38 43 45 50 55 56 61 66 68 67 71 73 73 72 75 70 73 80 84 84 80 81 84 85 85 85 89 93 92 92 91 90 95 93 97 98 97 97 95 94 97 97
28 29 35 41 46 48 49 51 58 64 68 72 77 78 81 80 78 80 83 86 87 86 88 86 85 86 89 91 94 95 94 95 96 95 97 95 97 94 89 97 96 93 94
25 28 31 33 38 41 45 50 56 63 70 73 76 80 86 87 87 88 91 93 94 96 92 90 91 92 93 94 96 96 97 97 98 98 95 94 96 97 97 97 96 96 95
26 28 29 33 34 39 41 48 55 66 74 80 87 89 89 89 91 92 92 97 96 96 97 92 92 96 98 95 95 98 96 96 96 97 97 96 96 96 96 96 96 96 96
32 32 35 35 36 41 46 49 57 64 72 85 91 93 94 92 94 92 92 90 95 99 98 96 99 96 95 96 96 96 98 97 96 95 97 97 96 96 95 95 93 90 85
39 38 40 43 44 51 60 61 61 65 73 81 89 94 99 87 98 92 90 94 98 98 96 97 96 96 97 94 96 96 96 97 97 95 96 96 96 93 89 84 75 65 56
47 48 50 53 54 59 73 86 80 75 75 81 88 91 93 91 96 96 87 98 97 94 97 97 97 95 95 96 99 94 95 96 96 93 92 88 80 69 58 49 44 42 41
60 60 62 65 65 67 81 90 95 87 85 86 90 95 95 93 93 97 92 94 90 94 96 96 97 98 96 96 95 97 97 93 90 78 62 53 47 43 40 39 37 35 33
69 75 77 79 82 83 90 93 97 97 97 95 93 94 93 91 97 96 94 96 93 96 97 96 96 97 97 95 93 84 69 57 49 44 44 43 41 38 34 33 30 27 23
82 89 92 94 94 97 97 96 96 96 96 97 99 95 96 97 97 96 96 98 95 96 97 95 93 86 76 63 58 53 49 46 44 42 37 32 29 26 24 23 21 21 22
90 93 94 95 96 97 97 97 97 96 97 97 97 96 95 95 96 96 98 92 87 81 71 62 58 53 48 46 43 39 34 32 29 26 24 23 22 20 20 22 23 24 25
94 95 96 96 96 96 97 97 97 97 97 96 96 95 92 83 74 65 59 56 54 51 48 45 40 36 34 32 30 27 23 22 23 21 18 17 18 19 21 23 25 27 27
93 91 89 85 83 79 76 75 75 72 70 66 63 60 56 52 50 49 47 44 44 42 39 36 34 31 27 24 22 21 18 16 17 17 18 19 19 19 21 24 25 26 29
63 62 60 60 61 59 57 53 50 47 45 42 40 38 37 35 33 31 29 26 26 25 22 20 18 17 16 16 16 16 16 17 18 19 19 20 21 22 22 24 27 31 35
52 49 46 44 42 41 40 39 37 35 33 33 32 31 30 28 26 24 21 18 18 17 16 16 16 17 17 17 17 18 19 19 20 21 22 22 23 24 26 30 32 37 43
37 37 36 33 31 29 28 27 26 26 26 25 24 23 23 23 20 19 19 20 19 19 19 19 19 19 17 18 19 19 20 22 24 25 25 25 26 28 31 34 38 45 51
21 20 20 20 21 21 22 23 23 23 23 23 23 23 24 24 23 22 21 20 20 20 20 20 19 19 20 21 23 24 25 26 27 27 27 29 31 33 35 39 44 51 56

GFSGL_prec_cthk_066.txt.gz
RH
44 32 33 36 38 44 48 49 49 51 52 53 55 57 57 57 59 60 61 62 62 68 69 71 72 74 76 77 78 80 81 81 78 77 77 80 80 81 81 85 89 91 91
54 49 37 36 39 39 40 46 49 49 50 51 51 51 54 56 60 62 63 63 64 64 68 71 71 77 77 77 75 75 75 76 78 74 74 75 79 78 80 85 88 91 91
64 63 57 48 40 39 39 40 43 48 50 51 52 53 54 57 59 60 60 61 61 60 61 61 59 66 62 63 64 61 61 63 64 65 63 70 69 71 80 83 87 92 95
66 66 64 61 60 55 46 39 37 41 45 48 51 52 53 54 54 54 57 59 62 60 59 57 56 58 57 61 64 63 63 64 61 61 60 60 68 66 73 80 81 89 92
74 69 69 72 72 72 68 63 55 44 41 45 47 48 51 53 52 55 57 58 59 60 61 59 57 54 55 56 62 62 64 64 62 63 65 64 67 66 72 76 79 88 87
65 67 72 73 77 78 79 77 73 68 65 55 50 49 51 50 51 56 59 59 61 63 61 61 64 62 59 59 64 70 74 75 72 75 71 67 67 66 68 74 77 79 78
59 59 62 67 70 74 76 80 75 72 74 72 71 69 65 58 53 55 59 62 63 64 63 65 68 65 64 66 73 79 81 79 78 79 76 75 75 80 82 79 80 79 78
46 51 56 55 60 67 70 69 70 70 72 71 70 71 71 69 68 68 70 70 69 67 68 69 71 73 71 70 75 79 81 80 82 85 90 88 88 87 88 91 92 84 92
30 34 37 41 48 51 54 58 61 66 67 68 67 71 74 72 71 75 77 83 82 81 80 76 75 78 81 80 83 87 89 90 84 86 89 91 90 91 94 93 93 96 98
21 23 25 28 31 33 41 45 46 52 59 66 67 70 73 73 76 79 81 87 86 86 85 83 80 83 89 92 88 90 92 94 90 84 86 88 92 93 91 93 98 98 98
21 22 22 23 24 26 27 30 36 41 41 46 60 68 71 73 76 77 80 85 86 87 90 89 89 90 93 94 93 92 94 98 96 89 88 89 91 90 95 98 98 96 97
24 24 23 24 25 26 28 28 29 33 39 44 47 51 59 69 75 77 81 89 89 95 92 90 89 86 86 90 97 96 97 96 97 96 92 98 93 90 94 94 97 97 98
27 27 27 26 26 27 28 29 31 34 36 40 45 49 55 58 62 70 81 88 91 95 98 94 97 83 91 84 91 97 99 99 97 95 96 95 97 96 97 95 97 96 96
30 30 31 31 30 31 33 34 35 40 42 45 51 56 64 66 74 76 80 82 88 94 92 99 87 98 95 87 88 95 94 95 96 96 97 96 95 97 95 96 95 96 94
35 35 36 36 35 36 37 40 43 45 49 56 60 65 73 74 79 75 87 81 98 95 94 97 97 98 86 97 97 95 96 98 94 94 96 98 96 95 95 89 78 67 60
41 41 41 42 43 44 46 47 51 54 56 59 68 74 79 87 88 88 82 98 78 95 91 85 96 96 95 97 96 97 96 94 95 95 95 92 82 71 65 59 55 52 47
47 48 50 52 53 55 56 59 64 68 68 69 74 83 95 95 91 86 91 95 97 88 77 98 94 97 94 95 97 96 97 97 89 74 67 65 60 56 55 53 47 45 41
58 59 60 62 64 65 68 71 78 88 89 86 86 89 96 97 96 96 92 87 92 81 95 98 94 94 97 95 95 87 75 68 65 60 56 53 49 45 43 37 33 28 24
65 67 69 72 75 77 81 86 92 93 94 95 96 97 96 97 97 96 96 96 95 97 97 97 96 89 81 72 66 63 59 56 52 47 43 38 32 30 28 26 24 23 22
76 78 80 79 81 83 87 89 93 95 95 95 95 96 97 97 97 96 96 94 86 79 73 65 62 60 57 52 48 45 40 36 34 31 29 28 25 23 22 22 20 18 18
82 84 85 84 82 81 82 77 74 75 76 75 75 73 68 62 60 60 61 60 60 58 55 52 49 47 44 40 36 34 32 29 26 24 23 22 19 17 16 17 17 18 19
67 65 64 63 63 63 62 60 59 56 52 51 49 47 44 40 37 34 33 33 34 34 34 33 30 28 26 25 24 23 23 21 18 17 16 16 17 18 18 19 20 22 24
56 55 54 52 51 49 46 43 40 37 35 32 32 31 30 29 28 26 25 24 24 23 22 20 18 18 18 17 16 16 16 17 18 18 19 19 20 20 20 23 24 26 28
45 40 37 36 34 32 30 29 29 28 26 25 25 24 23 21 19 18 17 16 15 15 15 15 16 16 16 17 18 19 20 20 20 21 21 21 21 22 24 26 28 30 33
27 26 25 25 24 23 22 22 21 21 20 21 20 20 19 19 19 18 18 18 18 18 18 18 19 20 20 21 22 22 22 22 23 22 22 23 25 26 28 31 32 33 37
20 19 19 20 20 20 20 21 22 21 20 21 20 20 20 20 19 19 20 20 20 20 21 21 21 22 23 24 24 25 25 25 25 26 27 28 28 30 31 33 36 39 44

GFSGL_prec_cthk_069.txt.gz
RH
58 51 40 35 39 44 47 48 49 52 56 58 60 61 64 65 68 75 78 79 77 77 78 76 72 76 76 80 80 79 77 79 80 76 77 79 78 79 80 80 80 81 80
62 61 55 46 42 43 44 48 53 54 55 57 59 59 59 60 60 59 61 63 63 63 65 70 69 72 70 77 79 80 81 81 83 80 75 72 73 74 74 74 76 76 78
63 63 64 61 55 52 46 44 47 54 58 60 60 60 59 60 61 61 62 63 64 66 68 69 68 73 71 74 76 76 75 73 74 72 66 64 59 59 61 61 61 66 67
76 73 73 73 69 64 60 57 53 50 49 53 58 61 62 63 60 60 60 61 61 62 65 63 62 62 61 63 65 64 63 65 65 66 66 65 64 61 56 55 58 62 64
74 76 76 76 74 75 74 73 69 62 58 56 52 51 55 58 58 58 59 59 59 59 61 61 62 61 60 59 60 58 60 61 62 62 62 63 62 63 61 60 58 60 61
69 70 72 73 72 75 79 83 82 83 80 75 65 59 57 53 49 53 57 58 60 62 62 61 61 63 62 62 64 64 64 66 67 66 66 68 67 66 69 66 67 69 68
60 62 64 66 67 69 73 76 80 83 86 85 83 82 75 68 66 64 62 61 60 61 62 62 64 64 63 64 64 68 72 75 73 72 71 71 72 74 77 77 75 79 80
44 45 46 48 49 53 57 63 70 74 76 79 79 80 79 76 75 75 80 83 85 81 76 70 71 70 71 73 72 71 73 79 82 79 77 77 78 78 81 83 84 86 87
35 32 30 31 31 32 35 38 42 50 60 66 70 72 71 73 77 80 83 86 86 85 87 90 90 87 82 82 83 78 75 77 78 84 85 81 83 85 88 90 88 94 91
26 24 24 24 23 22 22 25 27 28 32 38 43 48 56 64 71 73 77 81 82 85 86 90 89 85 87 91 95 94 92 90 89 88 91 91 87 85 83 87 89 98 96
29 27 26 24 23 20 18 19 21 24 27 27 28 32 36 40 47 54 65 75 81 88 90 91 93 85 85 87 92 99 96 90 92 95 90 90 86 85 84 90 90 88 93
34 30 27 24 23 21 21 21 23 24 25 26 30 33 33 34 36 38 42 49 60 75 86 88 90 85 88 90 99 99 97 98 98 92 98 98 97 97 98 95 97 98 96
36 33 29 27 25 25 24 24 26 27 28 29 31 33 35 39 42 44 44 47 51 61 70 68 76 82 92 78 87 91 98 99 97 97 98 96 97 97 96 91 98 97 95
33 32 31 29 29 29 28 29 30 32 33 37 38 39 41 42 45 47 51 55 58 62 64 76 81 76 90 90 97 96 90 88 95 97 97 96 96 95 96 95 96 96 96
37 37 36 35 34 33 34 35 35 37 37 39 40 43 45 49 53 54 57 61 63 72 76 74 78 97 92 95 95 96 97 93 90 96 96 96 96 96 96 94 85 77 74
44 42 41 40 40 40 40 41 42 42 44 46 47 47 52 58 63 66 66 71 74 77 90 90 88 96 97 96 96 97 96 89 88 91 96 92 85 79 75 70 66 63 59
46 46 46 47 47 48 48 49 50 52 53 55 56 57 63 68 71 76 80 82 84 85 86 93 95 95 95 94 93 97 96 94 88 83 74 74 69 65 63 59 55 54 52
52 52 52 53 54 57 58 59 60 63 64 66 69 71 79 85 88 89 91 94 95 95 96 97 96 97 96 94 91 80 77 68 70 66 63 58 55 54 49 46 44 42 37
57 57 57 57 60 62 67 70 71 72 73 73 75 78 80 84 87 90 94 94 94 95 95 94 91 84 78 73 69 67 63 59 56 55 52 49 46 45 42 39 36 34 30
63 63 63 65 66 66 69 71 70 69 69 68 67 67 69 74 76 76 74 74 71 70 68 66 64 62 60 59 57 54 52 49 47 45 42 38 36 32 28 26 25 23 20
61 59 57 56 56 54 53 53 54 52 49 45 42 40 39 38 38 39 37 40 44 46 46 45 44 41 40 38 37 36 36 34 32 30 27 26 25 23 20 18 17 16 17
56 57 56 55 55 52 49 45 41 38 38 37 34 32 30 29 29 27 25 24 24 24 24 25 25 25 25 25 25 24 24 23 21 20 18 17 17 17 16 16 18 19 20
50 48 46 43 42 39 35 32 30 28 26 24 23 22 22 21 21 21 20 20 18 17 17 16 16 16 16 16 16 16 17 17 18 18 18 18 18 18 18 19 21 23 24
35 32 29 28 26 25 25 24 23 23 22 22 21 19 17 17 16 16 16 16 16 16 17 17 17 17 17 17 18 18 19 19 20 20 20 20 20 21 22 24 26 28 30
27 26 26 25 25 24 23 22 21 20 20 19 19 19 19 18 18 17 17 17 17 18 18 18 18 18 19 20 20 21 22 23 23 23 23 24 24 24 26 28 30 33 34
23 21 20 20 20 20 20 20 20 20 19 18 18 18 17 17 17 17 18 18 19 19 19 20 21 22 23 24 25 25 26 26 27 27 27 28 28 29 31 33 35 36 38

GFSGL_prec_cthk_072.txt.gz
RH
53 45 37 33 36 41 45 48 48 50 54 60 65 69 74 77 82 87 91 90 89 87 89 90 92 92 94 92 87 84 80 80 80 80 83 85 86 83 83 83 81 79 78
62 61 55 48 39 36 41 46 49 50 51 53 54 54 57 63 67 66 69 72 74 76 78 79 79 81 77 78 79 75 72 76 81 78 75 76 80 81 81 81 77 71 70
68 69 68 64 56 50 44 42 45 48 50 53 54 55 57 57 57 59 60 62 63 64 66 67 68 70 66 69 71 72 72 74 75 77 75 75 71 67 66 66 63 63 63
80 80 75 73 72 68 63 58 55 50 49 49 52 55 55 57 59 61 61 61 62 63 64 63 65 66 64 68 68 69 70 72 69 71 71 68 65 61 60 57 54 55 58
83 79 79 80 78 78 77 77 76 75 69 64 60 56 54 54 57 60 62 61 60 60 61 61 63 64 65 65 67 66 68 68 68 69 68 65 64 64 60 58 57 57 60
85 80 77 78 80 79 77 77 78 81 85 83 84 85 82 73 65 61 60 61 63 65 64 62 63 64 64 64 66 69 72 74 74 74 72 73 69 69 71 72 69 68 64
73 72 70 67 69 72 73 74 74 74 76 78 80 83 84 87 87 88 86 84 81 78 72 67 63 63 65 66 68 72 75 78 77 77 76 75 75 78 82 81 79 75 74
58 56 55 53 52 54 57 58 57 56 60 67 72 74 76 78 78 81 83 85 87 85 86 87 88 86 84 84 83 79 76 78 79 82 84 84 82 79 83 85 87 91 85
52 48 46 42 39 38 36 36 35 36 38 43 45 49 54 58 60 67 73 78 80 82 88 93 94 92 93 92 95 94 93 97 93 94 94 92 83 84 90 94 94 95 94
43 40 38 34 33 30 27 26 27 26 31 32 33 32 32 34 36 39 44 51 60 68 78 80 84 83 87 94 96 97 98 98 94 97 99 98 93 91 93 98 100 99 99
49 46 41 37 34 31 30 30 31 32 32 31 30 27 26 26 28 27 27 31 35 43 53 62 66 69 77 90 97 96 97 97 98 96 92 98 97 97 96 98 98 97 98
43 39 37 35 33 32 32 31 29 28 28 28 29 29 30 31 30 28 28 30 32 37 41 44 47 50 55 64 74 78 85 96 98 92 97 90 94 95 96 98 89 91 97
37 35 34 32 31 30 30 29 28 28 28 29 29 30 31 32 31 31 32 34 35 37 42 44 49 50 52 55 57 62 74 78 78 81 97 98 93 97 94 96 96 97 97
35 35 35 34 34 33 32 31 31 31 31 32 32 33 34 34 34 34 36 37 40 43 46 49 48 53 55 56 60 65 66 67 70 96 97 82 91 97 95 96 94 96 94
50 49 44 41 40 40 39 39 38 39 39 38 38 39 39 40 41 43 43 44 45 47 51 58 61 63 63 65 65 73 77 76 76 79 83 93 97 95 95 91 86 85 82
48 49 48 47 48 48 47 46 46 45 45 45 46 47 49 50 51 52 53 55 58 61 63 63 66 73 77 81 83 81 80 86 94 90 89 91 87 85 81 76 74 70 67
55 53 52 52 51 52 52 52 51 52 53 55 56 58 58 58 60 62 64 66 67 70 72 77 81 84 86 90 93 93 91 89 86 82 78 74 68 64 64 62 58 56 53
59 59 59 59 58 58 58 58 57 58 59 60 62 64 65 66 68 68 69 72 73 74 76 81 82 83 83 83 82 80 78 75 74 72 68 66 65 61 57 54 52 49 46
65 65 64 64 64 63 62 60 58 57 56 55 55 55 56 57 57 59 61 60 58 57 57 58 60 61 61 64 65 64 61 58 57 55 53 52 49 46 45 44 42 40 38
62 60 58 56 55 53 52 50 48 47 43 38 35 33 31 30 29 28 29 29 28 26 26 27 28 30 33 34 39 42 44 45 45 44 43 41 39 37 36 34 31 27 26
55 53 52 51 50 49 47 44 41 39 37 35 34 32 31 28 26 25 25 25 25 24 23 23 22 22 22 22 21 21 20 20 20 21 22 23 24 24 24 23 21 19 18
47 47 47 46 45 42 40 37 34 31 28 26 25 25 24 22 20 18 18 18 19 18 18 18 17 17 17 16 16 16 16 16 17 17 18 18 18 17 17 17 17 18 19
42 38 36 34 34 34 32 30 28 26 25 23 22 22 21 21 20 19 18 17 16 16 16 16 16 17 17 17 17 17 18 18 18 18 18 18 18 18 18 18 19 20 21
34 33 33 34 34 32 30 28 26 24 24 23 21 19 18 17 17 17 17 17 17 17 17 17 17 17 17 18 18 18 18 19 19 20 20 21 21 21 21 22 23 24 25
31 31 29 28 28 26 25 23 20 19 18 18 18 17 17 16 16 16 16 17 17 17 18 18 18 19 20 20 20 21 21 22 23 24 24 25 25 25 26 27 28 29 30
26 25 23 22 20 19 18 18 18 18 18 18 17 17 17 17 17 18 18 18 19 19 20 21 21 22 23 23 24 24 25 26 27 27 28 28 29 30 31 31 32 34 37

GFSGL_prec_cthk_075.txt.gz
RH
51 40 37 34 39 43 44 45 47 53 59 63 67 72 80 91 91 94 97 97 93 89 90 90 88 90 89 86 89 94 93 96 93 88 83 83 81 79 80 82 85 86 86
62 57 49 43 40 41 44 46 49 50 50 54 55 56 58 63 67 69 69 72 76 79 83 83 82 86 85 87 90 91 90 93 88 83 82 80 79 77 77 80 80 82 84
70 70 68 61 53 47 44 46 50 52 52 52 53 53 53 52 54 55 58 60 63 68 71 73 75 76 76 78 77 75 79 78 78 74 65 73 74 75 74 71 69 70 69
76 75 73 74 74 69 61 55 51 51 54 55 55 56 57 57 58 59 59 60 61 63 64 65 66 67 69 71 71 71 71 73 74 76 76 67 69 67 69 63 62 64 62
83 84 84 84 82 79 77 75 74 72 68 65 64 60 58 57 58 58 58 60 63 64 65 66 65 64 64 66 70 69 71 73 74 74 74 71 68 66 64 65 64 60 59
88 87 88 85 82 82 83 80 78 80 80 82 83 83 84 84 78 79 77 71 63 59 57 59 59 61 61 65 69 72 75 78 77 76 74 75 74 74 74 75 74 70 64
87 87 85 81 77 77 77 77 78 77 78 77 77 78 79 79 81 82 82 84 85 85 85 82 77 76 76 74 71 71 71 72 77 79 78 79 79 80 82 81 80 79 75
71 65 65 65 63 62 62 60 60 62 63 64 64 66 67 70 73 76 78 81 84 86 88 89 86 85 87 88 87 88 87 90 93 94 93 93 92 87 88 90 92 91 89
58 59 57 56 53 50 48 47 47 46 46 46 46 46 46 48 49 50 52 56 59 64 69 73 73 76 81 85 86 88 94 99 95 94 94 94 92 90 95 97 98 99 98
62 59 56 53 47 44 43 42 42 39 38 36 35 35 35 35 36 35 32 31 33 35 37 40 44 50 54 60 67 74 84 89 93 94 95 97 97 94 96 93 96 97 99
55 54 53 52 49 46 43 39 38 40 40 39 38 35 34 33 31 29 28 28 29 30 31 32 33 35 38 42 45 49 58 65 72 76 80 80 83 85 94 97 97 89 95
56 55 54 51 50 47 46 45 45 44 41 38 37 36 34 32 31 29 29 29 29 30 31 33 35 36 39 41 40 46 52 53 55 62 67 71 72 71 70 71 73 80 90
57 52 48 43 42 41 39 37 33 32 31 31 31 31 31 30 29 29 29 29 30 31 32 33 34 35 38 41 44 48 51 52 57 63 62 64 75 72 70 71 78 73 86
56 54 50 48 45 42 39 38 37 36 36 35 34 35 35 34 34 34 34 34 34 35 35 36 37 37 38 41 44 49 53 58 60 63 64 66 67 69 72 73 73 73 73
57 55 52 52 49 47 47 45 42 41 41 41 41 40 39 39 41 41 40 41 41 42 44 44 45 47 48 50 51 52 55 59 64 70 74 76 80 83 83 81 81 85 80
51 48 47 47 47 46 46 46 46 46 46 46 46 46 46 47 48 49 49 50 51 52 53 54 55 56 58 60 63 66 68 69 70 71 73 75 76 77 77 75 74 72 69
53 51 51 51 52 52 52 52 51 51 51 50 50 50 51 51 52 53 54 55 57 58 60 61 62 62 61 61 62 62 64 64 64 64 66 70 70 71 72 70 66 66 65
58 56 54 54 55 55 56 56 55 55 53 52 51 49 49 48 46 45 45 45 44 43 42 39 36 35 35 37 41 43 47 49 53 54 54 54 55 55 54 53 53 51 48
63 60 57 56 55 54 51 49 47 45 43 41 38 37 34 33 33 33 33 29 25 23 22 21 22 21 20 21 21 20 20 20 20 21 20 23 27 32 35 37 38 38 37
54 51 49 48 48 49 48 47 43 38 33 30 29 28 27 27 25 25 24 22 21 22 22 21 20 19 18 18 18 18 18 18 18 19 19 19 19 18 18 17 17 17 18
50 49 49 48 47 44 40 36 34 32 28 25 23 21 22 22 21 22 21 21 20 20 20 20 19 19 19 18 17 16 16 15 15 16 16 16 16 16 17 17 17 17 18
50 48 46 43 39 34 31 28 27 26 26 26 27 28 27 25 23 22 21 20 20 20 19 17 17 16 16 16 15 16 16 16 16 16 17 17 17 17 17 17 18 19 19
43 39 36 33 31 30 30 30 29 29 28 29 28 27 26 25 24 23 21 20 18 17 17 16 16 16 16 16 16 16 17 17 18 18 18 18 19 19 20 21 21 22 23
35 34 34 33 33 32 31 30 29 28 27 26 25 24 23 21 20 18 18 18 18 17 17 17 17 17 17 18 18 19 19 20 20 21 21 22 22 23 24 24 25 26 27
35 34 32 31 30 29 28 27 25 24 23 22 21 21 20 20 19 19 18 18 18 18 18 18 18 19 20 20 21 21 22 22 23 23 24 25 25 26 27 28 29 31 32
30 30 29 28 28 27 26 25 24 22 21 21 21 21 20 20 20 20 19 19 20 20 21 21 22 23 23 24 25 26 26 26 27 27 28 28 29 30 31 33 34 36 37

GFSGL_prec_cthk_078.txt.gz
RH
58 48 39 40 41 44 47 47 48 53 58 62 65 73 86 94 97 96 94 95 97 96 91 86 87 87 89 89 88 86 89 90 88 91 90 89 89 86 84 80 79 77 75
64 59 46 42 42 46 48 49 49 50 54 58 60 64 69 73 77 79 79 80 82 85 85 83 83 86 83 79 78 78 79 81 81 79 87 90 90 89 84 81 77 78 76
74 69 60 51 46 47 50 52 53 53 53 54 54 55 55 57 60 64 66 67 68 69 70 70 69 68 69 72 73 75 77 78 80 80 75 80 81 80 80 77 76 76 79
81 79 74 68 62 58 56 54 54 56 57 58 58 59 59 59 59 60 61 60 60 61 65 64 65 66 67 69 74 72 74 74 73 74 68 68 72 72 76 75 75 79 78
87 87 85 80 75 72 69 67 66 65 65 65 64 65 68 64 61 62 62 61 62 64 63 65 67 69 70 71 74 74 77 78 78 77 75 69 67 69 69 71 74 72 70
91 90 91 87 86 87 87 85 81 76 73 74 76 78 77 75 76 77 79 79 79 79 80 78 75 73 72 72 73 74 75 77 76 75 76 79 74 70 73 76 77 78 74
95 92 91 92 93 93 92 90 88 86 85 83 81 80 79 77 78 81 84 86 89 90 89 87 90 92 92 90 91 92 92 90 88 91 90 89 90 89 88 85 83 85 85
89 90 88 86 86 88 88 85 85 84 83 82 80 78 77 75 74 74 76 81 83 81 80 80 81 82 83 85 89 92 96 94 95 98 98 98 96 93 95 96 97 97 94
83 80 80 83 75 66 65 67 65 63 62 62 61 60 56 53 50 49 49 52 52 53 52 52 54 55 56 57 59 63 69 72 72 77 82 85 88 89 98 97 98 99 98
70 72 76 69 61 59 59 59 58 54 50 47 47 47 47 44 37 35 34 35 35 36 38 38 37 36 35 35 35 36 42 44 47 49 55 59 61 62 65 69 70 79 89
79 79 74 70 63 62 59 58 57 54 52 50 49 43 38 36 36 35 34 36 36 36 36 37 37 36 35 33 32 33 36 40 43 44 48 52 54 54 55 56 60 64 66
72 70 63 60 61 62 61 59 57 55 51 51 49 45 45 43 40 37 35 34 34 34 33 32 31 31 30 30 31 35 38 43 47 49 50 50 52 54 56 58 58 58 63
74 71 67 65 63 62 60 59 56 54 51 48 45 43 39 36 34 32 32 31 31 31 31 31 32 33 33 33 34 34 35 37 39 41 43 46 49 54 58 61 63 64 67
67 63 63 61 59 57 57 55 53 50 48 46 44 41 41 39 38 38 37 37 36 35 36 37 37 37 37 37 37 38 39 40 42 43 45 48 50 51 53 55 57 60 64
67 65 64 61 58 57 55 56 53 47 43 44 45 44 44 42 42 42 41 42 41 41 43 42 41 42 42 43 43 44 46 49 50 52 54 56 56 57 56 57 57 59 62
61 59 58 56 54 53 52 49 48 48 47 45 44 43 44 44 45 45 45 45 45 45 45 45 46 45 44 45 45 44 44 46 46 49 52 55 58 56 60 59 64 65 63
64 61 57 57 57 56 54 53 52 51 50 49 47 45 44 44 43 42 42 43 43 43 42 39 37 35 34 32 31 29 28 26 27 30 34 35 40 42 44 46 46 47 48
63 61 59 58 56 55 54 53 51 50 48 44 40 37 35 34 35 35 34 33 32 28 23 24 26 26 26 26 23 22 20 19 18 18 18 18 22 24 25 24 23 24 24
61 58 56 53 50 47 45 42 40 38 36 33 31 29 27 25 24 24 23 21 21 21 21 21 22 24 24 24 22 20 18 18 18 18 18 18 19 24 22 22 23 19 20
54 51 50 48 47 45 42 39 36 34 32 31 29 27 26 23 21 20 19 19 19 19 21 23 24 22 22 22 20 18 22 19 18 18 16 15 16 20 23 22 22 23 22
52 49 47 47 44 42 39 38 35 33 29 26 25 24 22 22 21 21 21 21 21 22 24 25 25 23 23 21 22 19 17 17 15 15 15 16 15 18 20 23 23 23 23
56 55 51 48 45 41 36 33 32 31 30 30 27 25 23 23 22 22 22 21 21 22 22 22 22 21 20 18 17 17 17 16 16 16 16 17 17 24 24 25 25 25 25
54 50 45 41 38 37 37 36 36 35 33 31 29 27 26 25 24 24 23 22 22 21 20 20 19 18 18 17 17 17 17 17 18 18 18 19 21 23 27 27 28 28 28
48 49 46 44 42 43 42 41 34 31 31 32 32 28 25 24 23 22 21 21 20 19 18 18 18 18 18 18 18 19 19 20 20 21 21 21 22 24 27 30 30 31 31
43 42 41 41 40 39 39 37 35 34 34 34 33 31 27 24 22 21 19 19 19 19 19 19 19 19 19 20 21 22 23 23 24 24 25 25 25 26 27 30 30 34 34
35 33 33 34 34 37 39 39 37 34 31 30 28 26 23 22 21 21 20 20 20 21 21 22 22 23 24 25 25 26 27 28 28 28 28 28 28 30 31 35 36 38 38

GFSGL_prec_cthk_081.txt.gz
RH
67 68 54 40 41 41 46 45 46 51 57 61 68 84 94 96 98 98 97 95 94 90 91 90 92 93 93 90 92 91 90 92 88 89 90 90 89 89 87 89 86 81 71
72 70 61 48 40 43 45 49 46 48 53 60 61 66 76 91 96 97 99 96 95 92 94 96 96 94 91 86 84 82 83 83 78 75 77 79 81 85 84 85 85 82 79
73 71 70 63 51 45 47 49 50 49 51 57 58 60 64 70 75 76 82 79 72 73 78 76 77 77 74 75 71 71 70 72 72 72 65 69 67 70 70 71 74 79 76
75 73 72 68 61 55 53 54 54 54 55 58 60 59 60 59 59 61 63 67 70 68 67 66 69 69 70 71 69 68 68 70 73 74 70 69 72 68 71 69 71 72 71
77 79 79 76 71 62 57 58 58 58 59 60 63 63 63 64 64 64 65 66 66 69 71 68 68 74 75 74 74 75 80 84 81 83 85 83 80 80 79 75 74 73 75
84 86 86 85 86 80 75 71 68 66 67 71 74 71 71 73 74 75 77 78 80 78 76 77 81 79 80 81 81 80 81 83 83 84 84 85 85 85 85 84 84 87 85
93 94 92 90 90 89 89 87 86 85 80 78 80 80 80 81 82 82 82 82 81 81 83 86 90 90 91 91 94 96 93 93 92 93 91 92 93 95 96 98 99 97 96
98 98 95 93 93 93 96 97 97 95 94 92 92 90 87 85 85 85 83 83 83 84 83 82 83 83 84 85 87 87 86 85 85 85 85 85 83 83 86 87 87 86 88
95 95 93 92 91 92 90 92 96 98 98 94 90 91 88 85 80 75 71 70 69 65 63 63 60 58 56 54 53 52 51 51 51 50 52 52 54 55 57 57 60 60 62
90 91 87 85 84 86 89 88 80 76 74 69 64 64 61 59 54 50 47 47 46 44 43 43 42 43 42 39 37 36 36 39 40 42 44 44 45 45 45 49 51 52 53
83 83 84 86 82 81 82 77 70 65 63 60 58 51 48 46 43 40 43 43 41 40 40 39 38 36 35 33 34 35 36 37 40 41 43 44 44 43 42 42 42 42 42
91 88 88 88 87 83 80 78 75 72 66 61 57 56 55 54 50 43 39 41 40 39 39 37 36 35 33 32 30 31 33 34 35 37 38 38 38 38 38 39 40 41 42
86 86 89 85 81 82 82 81 80 77 72 69 67 66 62 57 55 54 49 43 41 40 37 33 33 33 33 33 33 34 34 34 35 35 36 37 38 39 39 41 42 43 45
73 73 74 74 72 69 65 67 68 68 66 65 63 61 58 54 51 51 48 46 45 42 41 40 39 38 38 38 38 38 38 38 39 40 42 43 44 43 43 42 45 46 48
73 73 72 68 65 62 59 59 58 58 58 58 57 55 53 51 49 46 45 44 43 42 41 41 40 39 39 38 37 36 37 37 38 41 42 43 41 43 44 43 44 44 44
77 76 74 71 68 66 64 63 60 57 55 53 51 49 47 46 45 44 43 42 41 39 38 39 37 35 33 32 29 29 22 22 24 28 29 29 30 29 29 29 28 29 29
71 70 69 68 68 66 62 60 55 54 53 51 49 46 43 40 38 37 36 36 34 34 35 32 31 30 29 28 28 27 26 22 22 24 24 25 25 26 26 26 27 27 26
72 69 68 65 63 61 59 56 53 49 46 38 34 31 31 32 32 32 30 33 31 27 30 31 30 29 28 27 26 26 26 22 24 25 25 27 27 28 28 26 26 24 24
70 67 63 60 56 53 51 48 47 45 43 42 41 39 31 29 27 26 25 29 31 30 28 28 29 29 29 28 28 28 28 27 26 28 29 29 29 28 27 26 25 24 22
64 59 60 59 56 54 51 48 46 44 43 40 33 31 38 36 33 27 24 28 31 31 32 32 31 31 31 30 30 30 29 29 28 29 29 28 26 27 26 25 24 24 24
63 60 58 57 55 53 51 50 48 46 43 39 28 26 25 35 35 35 35 34 34 34 33 32 32 30 30 29 29 28 28 27 27 26 27 26 25 25 24 25 24 25 28
59 58 56 55 53 52 50 47 45 43 42 41 40 35 32 39 38 37 37 36 32 31 31 31 30 28 22 23 25 27 28 25 23 18 17 19 24 24 24 25 25 25 28
59 59 58 56 53 49 47 46 46 45 44 43 42 41 40 39 38 37 36 31 32 27 23 24 25 23 21 22 22 22 21 18 17 17 17 17 22 25 26 26 27 29 28
59 54 50 48 46 46 45 43 40 36 38 39 39 39 38 37 36 36 33 27 25 27 24 23 22 21 20 20 20 21 19 19 18 18 19 19 24 27 24 29 30 31 33
52 50 49 47 45 44 42 42 41 40 38 37 37 38 38 38 37 36 35 29 25 24 24 22 21 21 21 20 20 20 20 21 21 22 22 23 29 27 32 32 32 33 34
45 43 41 40 39 38 39 39 40 40 40 40 39 37 36 35 33 32 31 26 23 22 22 23 23 21 21 23 23 23 24 25 25 25 26 27 32 34 34 33 35 36 37

GFSGL_prec_cthk_084.txt.gz
RH
71 70 71 64 55 47 46 48 47 48 49 56 62 77 91 97 98 97 98 97 96 95 95 85 84 88 89 92 94 93 94 94 90 89 88 86 82 83 87 85 86 88 84
73 70 74 72 61 48 49 49 49 47 48 52 60 64 84 93 98 97 97 96 98 99 96 93 92 94 94 95 95 94 95 93 86 78 79 79 80 79 77 75 74 74 72
75 74 77 73 70 60 50 51 51 50 47 52 56 60 63 75 92 95 97 98 96 96 95 94 95 94 96 95 89 87 82 80 76 69 67 72 67 68 69 69 69 68 69
73 74 76 74 72 70 62 53 52 52 51 54 56 58 59 62 67 76 81 85 87 80 75 72 74 74 70 73 71 71 69 72 70 67 63 65 69 73 78 77 77 81 78
78 78 82 76 76 74 69 63 55 54 55 55 58 59 62 62 62 64 66 66 71 67 76 71 65 66 67 67 67 68 70 71 73 75 75 75 77 79 81 87 88 91 94
84 81 83 82 80 78 77 74 69 63 62 63 63 64 63 65 67 67 67 66 69 70 68 76 79 77 78 78 79 78 81 84 84 85 87 87 86 86 88 90 92 93 96
90 86 86 87 84 83 80 79 81 76 71 70 70 73 74 74 74 75 77 79 82 83 87 89 85 87 88 88 85 86 88 88 90 90 90 90 90 88 86 86 87 82 83
93 91 91 92 91 90 92 93 93 92 92 89 81 78 77 80 83 87 88 87 86 86 85 85 86 86 86 87 87 86 86 85 83 84 82 77 75 69 67 62 60 61 60
99 97 96 97 92 92 95 96 96 95 96 97 96 95 95 94 94 94 92 91 88 88 87 86 84 82 75 74 75 70 63 59 56 54 51 48 46 46 46 45 45 45 45
97 99 95 94 94 93 94 95 96 96 96 97 98 97 98 97 94 91 85 77 70 64 61 57 50 47 45 42 40 39 39 40 41 41 42 41 41 40 38 39 40 41 42
93 96 97 98 91 97 93 91 88 88 87 85 82 75 66 64 62 57 54 53 52 52 49 43 40 38 37 36 37 38 40 42 42 43 43 40 39 38 37 36 35 34 33
98 97 97 97 97 96 96 95 92 82 81 80 77 72 66 61 56 54 53 53 51 48 43 42 40 39 40 39 40 40 40 37 35 34 34 34 35 35 35 36 36 35 36
97 97 96 98 97 96 95 94 91 88 84 79 75 72 70 68 65 61 59 58 59 60 58 56 54 48 44 39 38 37 38 38 40 39 39 39 38 37 35 35 35 36 38
88 89 92 91 89 88 90 89 91 93 92 89 84 81 79 75 72 71 67 63 63 61 58 57 52 48 46 45 43 41 39 38 37 36 37 35 34 33 30 30 31 30 29
77 75 74 75 73 70 68 65 65 65 64 63 62 62 62 62 62 61 57 54 52 51 49 46 43 40 37 33 30 27 26 25 25 26 25 26 24 21 20 18 18 20 22
85 84 83 82 79 78 76 72 72 70 68 65 64 62 61 60 59 57 54 49 42 38 35 32 29 26 23 22 20 19 17 16 16 16 17 17 18 18 20 19 19 22 23
82 79 78 77 74 75 73 70 68 66 64 62 57 53 48 44 42 38 36 34 33 30 27 26 26 25 25 23 22 21 19 18 19 18 17 18 21 25 24 26 24 19 23
88 86 81 79 75 72 69 65 61 57 48 42 37 34 33 34 33 32 31 30 27 26 27 27 27 27 27 25 25 23 21 20 21 24 23 22 24 28 26 26 27 25 24
86 81 73 67 66 63 59 57 55 52 51 47 45 41 36 33 29 28 28 28 29 29 29 28 28 28 29 28 27 29 29 25 24 26 26 23 24 27 27 26 26 26 26
74 72 69 68 66 63 60 57 54 52 47 41 37 38 40 38 33 29 27 29 30 32 33 32 31 30 29 29 31 28 28 28 25 26 26 23 23 27 27 28 27 27 27
68 65 64 62 60 58 56 55 54 52 49 41 35 34 37 38 37 35 34 33 33 33 33 34 30 27 27 28 29 30 27 26 23 22 22 23 26 29 27 27 26 26 27
61 61 60 59 56 55 55 53 50 47 45 43 40 35 36 38 38 37 34 32 31 31 31 32 32 29 27 26 26 27 26 24 23 22 22 21 24 28 26 27 27 26 26
61 60 60 59 55 55 52 49 47 46 44 43 43 44 43 41 38 36 33 31 31 29 28 28 28 27 28 27 27 25 24 24 23 22 22 22 22 24 24 26 27 27 27
62 60 58 54 54 53 51 49 47 45 44 44 43 41 39 40 38 38 34 30 29 30 29 29 27 26 25 25 24 23 23 23 23 23 22 22 21 23 23 26 28 29 29
59 57 55 53 52 50 49 47 46 44 43 41 40 40 40 40 40 39 37 33 29 27 25 24 24 24 23 22 22 23 23 22 22 23 23 23 24 27 30 30 32 32 33
50 48 47 46 45 44 43 43 43 42 43 43 42 41 40 38 36 34 32 29 25 24 23 25 25 22 23 23 23 24 24 25 25 26 27 27 27 28 29 30 31 33 35

GFSGL_prec_cthk_087.txt.gz
RH
59 62 63 69 74 67 57 47 45 46 49 53 58 66 75 96 98 98 98 98 99 98 98 97 98 97 94 91 90 89 88 86 86 88 91 92 93 92 91 92 89 90 89
62 70 70 74 79 73 61 48 49 50 48 49 54 60 66 92 98 98 98 98 97 98 97 97 98 96 94 93 91 88 89 89 90 91 93 95 93 86 81 80 82 82 78
82 77 76 83 82 76 68 57 52 52 52 49 53 58 63 72 96 98 98 98 97 98 98 96 97 95 94 89 91 95 96 96 96 93 90 82 77 75 74 71 69 70 73
82 81 81 85 84 80 77 69 64 54 52 52 53 56 59 63 75 96 98 99 98 98 98 98 99 98 97 96 96 98 96 88 82 74 71 70 70 70 68 70 74 82 89
87 87 89 86 86 84 83 77 74 64 54 53 56 58 60 63 67 72 88 96 98 98 96 87 77 74 72 77 71 70 68 67 69 68 68 69 73 77 80 81 82 86 86
89 92 91 89 88 84 83 82 77 75 70 62 62 62 63 65 67 67 70 71 70 70 75 71 75 70 67 69 68 67 72 74 75 76 79 81 83 87 91 91 93 90 93
92 93 93 92 92 92 91 86 83 80 78 76 71 69 70 70 71 71 70 69 66 69 67 76 73 73 81 83 80 82 83 85 88 88 89 88 88 88 88 86 85 86 86
95 97 96 94 95 94 93 87 86 84 82 83 84 78 76 76 79 81 80 77 77 79 81 80 82 90 93 91 86 87 87 84 87 92 85 88 82 78 74 73 65 58 54
99 97 97 94 98 96 94 92 87 87 87 88 89 89 90 84 81 85 85 85 85 88 90 92 92 88 87 87 81 79 88 84 85 74 71 62 54 48 45 44 44 41 40
97 99 96 98 97 97 95 95 96 97 95 97 98 97 98 97 94 96 97 98 97 94 93 93 94 91 87 82 71 58 51 47 44 42 42 41 43 43 41 40 40 40 38
91 95 98 96 98 98 98 97 96 95 96 96 97 98 98 94 95 96 95 94 93 89 81 68 56 50 49 49 47 44 42 42 42 41 42 42 41 39 38 36 33 33 34
94 98 96 97 97 97 96 97 98 97 97 94 94 91 89 91 89 82 74 71 69 62 54 50 48 46 43 41 40 39 40 41 46 47 44 40 38 36 37 37 37 36 34
97 97 97 98 97 96 97 97 98 96 98 95 91 84 80 79 75 72 69 65 61 59 59 59 60 61 59 56 57 58 56 52 49 48 44 41 39 36 33 30 27 26 25
97 96 96 97 96 96 97 98 97 96 97 95 97 92 89 89 87 85 83 80 79 77 75 74 72 68 67 62 58 55 52 48 42 35 31 27 24 23 21 20 19 20 19
92 93 93 94 96 96 95 93 92 91 91 90 86 86 85 84 81 80 79 78 76 71 67 62 57 54 48 42 37 31 28 26 24 22 21 19 18 17 15 16 16 16 17
93 91 90 88 90 87 84 82 82 81 80 78 78 77 75 73 70 66 63 60 56 54 51 46 42 38 34 29 25 22 19 18 17 17 16 16 15 16 16 16 16 18 19
86 88 88 87 88 81 78 75 75 77 76 74 71 68 65 60 56 51 48 45 43 38 33 31 29 27 24 22 20 18 17 16 16 15 16 17 17 18 19 18 18 18 19
92 92 93 93 90 86 83 77 71 65 60 55 52 52 51 49 44 40 35 34 32 31 29 27 25 24 22 20 19 18 18 19 20 20 20 20 21 21 21 21 20 21 22
92 89 88 84 80 76 71 68 61 56 51 48 46 45 40 38 37 36 34 31 28 27 27 25 24 23 23 23 23 23 23 24 24 23 22 22 22 22 24 25 26 26 26
78 78 77 76 74 72 69 66 60 57 54 50 49 50 45 43 39 36 34 32 30 28 27 28 29 29 28 28 29 28 26 25 24 22 23 24 25 26 26 27 27 28 28
68 68 67 67 66 63 61 60 58 55 51 46 46 46 42 38 35 34 32 32 32 32 31 30 30 29 29 28 26 24 24 24 24 24 24 24 24 25 28 30 30 30 28
60 59 59 57 57 58 57 56 55 54 50 46 42 40 40 38 36 35 34 32 31 30 30 29 28 28 27 26 24 24 25 25 24 24 24 24 25 25 27 28 28 28 28
62 64 62 59 60 58 56 55 53 51 49 47 43 40 38 37 38 37 35 32 30 29 28 27 27 27 27 27 27 26 26 25 25 25 24 23 22 22 22 24 26 27 27
66 64 62 60 61 60 58 55 53 51 49 47 46 45 44 42 39 35 34 33 31 30 30 29 29 29 28 27 26 25 23 23 23 22 22 22 21 22 22 23 25 27 28
59 59 58 57 56 55 56 54 52 50 50 48 47 45 44 43 40 39 38 36 34 32 30 28 26 24 22 22 22 22 22 22 22 22 22 23 23 24 25 27 28 30 31
36 37 37 38 38 40 41 42 42 42 42 43 43 43 42 41 40 38 35 32 28 27 25 23 22 21 20 20 20 21 21 22 23 24 25 26 28 29 29 30 31 33 34

GFSGL_prec_cthk_090.txt.gz
RH
86 76 63 55 57 62 69 69 59 47 51 50 50 54 62 65 84 97 98 98 99 98 99 98 98 98 95 96 97 94 95 93 94 91 87 89 92 93 94 95 94 92 93
92 91 73 63 62 67 73 72 61 51 54 54 53 52 58 64 82 99 99 99 98 99 99 98 99 98 97 98 98 96 93 93 90 90 86 86 88 94 95 96 94 92 91
89 97 79 70 72 75 78 78 75 60 58 56 55 54 54 64 72 96 98 97 98 98 98 98 98 98 98 98 97 95 95 93 91 87 89 91 94 96 95 92 83 77 78
97 89 76 72 79 79 84 85 80 69 62 57 56 56 55 61 69 80 98 96 98 98 99 98 98 98 98 96 95 96 94 92 90 94 96 96 92 92 82 78 72 75 72
90 89 95 90 85 87 87 89 86 78 71 64 57 59 58 61 64 73 86 98 98 97 97 97 98 97 97 97 98 97 97 98 98 97 84 75 73 76 76 75 79 79 78
93 93 96 96 94 90 89 88 85 84 78 75 69 62 64 65 67 70 73 78 96 98 99 96 98 98 96 95 92 87 83 77 75 70 70 69 70 73 77 81 85 87 92
93 97 93 95 96 97 93 92 90 87 83 81 78 74 70 71 72 74 72 74 70 73 83 82 85 83 82 76 71 70 70 70 72 72 74 77 82 86 92 94 95 94 94
99 95 97 93 93 94 93 91 90 89 85 85 83 81 79 81 79 78 79 78 76 72 70 70 71 71 79 76 73 76 80 83 84 87 91 89 90 93 92 85 86 81 75
93 98 93 94 92 89 93 94 93 91 93 88 85 86 88 90 90 86 83 82 85 84 80 78 74 78 78 82 91 92 97 95 89 85 84 90 84 80 69 62 52 47 45
90 95 93 93 97 99 94 95 97 96 93 94 91 89 90 93 93 93 96 94 87 88 91 94 92 90 92 93 94 91 91 94 94 81 59 50 47 43 40 39 38 39 41
96 92 93 93 98 96 97 99 97 98 97 96 94 95 95 94 97 98 98 96 95 92 94 97 98 98 95 94 94 86 69 58 51 49 47 42 39 37 36 37 39 41 39
97 98 97 93 91 97 97 96 98 97 98 97 97 96 95 98 98 98 98 98 98 97 94 92 86 82 77 66 61 53 49 48 46 45 42 40 40 40 43 46 43 42 39
96 98 97 97 97 97 89 92 98 98 97 98 98 97 97 97 98 98 97 97 96 88 82 78 71 66 61 58 57 56 56 58 58 58 58 59 57 53 49 44 41 35 30
97 97 97 97 97 97 96 96 98 97 96 97 97 96 96 96 94 93 89 88 85 84 83 82 79 80 80 81 78 73 69 68 64 59 51 43 39 34 30 27 23 21 18
97 97 97 97 97 97 97 97 97 96 96 96 97 96 97 97 96 97 96 96 97 96 91 87 84 80 73 68 63 58 53 50 44 38 34 30 26 22 19 17 17 17 17
96 95 95 94 94 94 95 95 94 94 95 95 95 93 91 91 92 90 85 81 78 72 65 60 55 51 47 45 43 41 39 36 33 30 28 24 21 18 17 17 17 18 19
94 93 93 91 90 92 88 85 84 85 86 87 86 85 84 80 77 72 66 60 55 53 50 47 44 41 38 36 34 30 25 22 20 19 18 18 19 19 19 19 19 19 20
95 93 93 95 93 91 88 84 79 77 77 76 73 69 65 63 60 58 56 53 50 46 42 38 34 31 27 25 23 22 20 20 20 21 21 21 21 21 21 21 20 20 20
94 93 91 88 85 82 78 74 70 67 64 60 58 56 56 56 51 48 48 47 43 40 36 33 31 28 27 25 25 25 25 24 24 24 24 24 24 23 23 22 22 21 21
77 78 77 75 74 73 72 70 68 65 64 62 59 56 52 48 48 46 44 42 40 37 35 34 32 31 30 29 28 28 28 28 27 26 25 24 22 22 22 22 23 24 24
66 65 65 65 67 68 66 62 61 60 56 56 57 53 49 47 45 43 42 40 38 37 37 35 34 33 31 30 29 28 26 25 24 23 22 22 23 23 24 24 24 25 25
61 60 60 61 61 61 60 60 59 58 56 53 50 49 46 44 42 40 39 37 35 34 33 32 30 29 28 27 27 26 26 25 24 24 24 23 22 22 22 23 24 26 25
67 66 64 62 63 63 62 61 59 58 56 55 53 51 48 46 43 41 38 37 35 34 33 31 30 29 28 27 28 27 27 26 25 24 24 24 23 23 23 22 22 22 23
66 66 66 64 64 63 63 61 59 57 55 53 51 50 49 47 46 45 42 39 36 33 31 30 29 30 30 30 30 28 27 26 26 25 24 23 22 21 21 21 21 23 24
37 38 39 41 44 46 48 49 50 52 52 51 51 49 47 44 42 40 39 37 34 33 32 32 31 30 30 29 27 26 25 24 23 22 21 20 21 21 22 23 23 24 25
32 35 36 36 38 39 41 42 44 44 44 43 42 41 41 41 40 39 39 36 34 33 31 29 27 25 24 24 24 23 21 20 21 22 22 23 24 24 25 26 27 28 29

GFSGL_prec_cthk_093.txt.gz
RH
76 83 86 77 75 68 62 63 64 64 56 46 44 46 49 54 62 67 85 98 99 99 99 97 98 98 98 96 95 94 98 94 92 96 93 93 91 91 95 95 93 94 93
87 91 92 85 80 75 67 69 67 66 57 47 45 51 51 52 59 65 86 97 98 98 97 98 98 99 98 97 96 95 98 94 92 91 95 96 94 93 90 92 93 94 94
92 93 95 93 90 71 65 68 69 73 58 48 46 54 55 55 61 67 83 98 99 98 98 99 98 97 99 98 97 98 96 98 95 94 97 96 94 93 90 88 92 93 95
95 92 94 96 95 75 69 71 75 73 67 54 50 53 56 56 62 65 74 96 98 98 98 98 99 98 98 97 97 97 98 97 95 96 95 94 93 93 92 96 96 93 92
95 95 97 98 98 78 76 77 79 78 72 67 59 55 56 58 62 66 74 87 96 98 99 98 99 97 99 98 98 98 98 98 98 97 97 97 97 99 98 96 89 80 78
95 95 97 98 96 84 79 79 84 82 78 70 64 65 59 57 64 67 70 74 88 97 97 97 99 98 97 99 98 98 98 98 96 97 98 98 97 96 88 77 73 80 78
87 96 95 94 98 87 83 85 86 87 86 83 76 70 73 67 66 69 73 76 75 79 96 98 99 98 99 99 98 98 99 98 98 95 86 83 82 76 73 74 75 78 83
83 98 83 97 99 95 97 93 91 91 92 90 87 79 77 77 78 79 79 79 82 82 74 78 82 84 88 92 94 93 85 80 74 70 70 71 75 81 86 88 93 96 98
93 92 93 99 99 100 96 93 94 97 95 94 93 88 83 85 83 82 85 87 86 88 91 91 89 82 77 81 78 78 80 77 75 79 85 89 89 90 86 89 96 93 86
91 86 87 95 98 94 92 93 94 96 95 95 94 92 93 88 89 88 86 89 91 90 90 90 88 87 87 89 86 87 85 89 92 93 93 93 94 96 88 64 57 50 45
96 90 84 86 90 98 91 98 99 96 95 96 95 93 93 95 96 93 90 91 92 93 95 95 96 90 89 92 96 96 97 96 98 95 91 86 75 60 48 45 42 41 39
95 97 96 93 89 93 94 92 95 98 98 98 98 98 97 98 97 96 97 96 94 96 96 96 97 98 98 98 98 97 95 91 83 75 68 60 53 50 47 45 45 45 44
89 93 96 96 96 97 95 94 96 98 97 97 98 98 98 98 98 96 96 97 96 96 96 97 96 93 88 86 86 84 78 75 68 63 57 58 59 58 54 52 51 51 48
89 91 92 93 94 95 95 95 96 97 97 94 97 96 97 97 97 97 97 97 97 97 97 92 90 86 85 82 77 77 76 74 71 65 61 60 56 52 51 52 50 45 39
91 92 94 94 93 95 95 96 96 97 97 97 97 94 94 95 96 97 96 97 97 96 97 97 96 96 95 91 84 77 70 67 66 62 58 56 54 47 42 40 37 34 30
93 95 96 97 97 98 96 95 95 97 97 97 97 97 97 96 96 96 96 94 91 88 84 81 75 71 68 66 64 62 59 56 52 49 47 44 40 37 34 31 27 23 21
95 94 94 94 93 96 95 93 94 94 94 95 96 96 95 91 89 86 81 75 72 71 68 66 64 61 59 59 58 55 52 49 45 41 39 35 30 27 24 22 22 22 23
92 94 94 94 94 92 90 89 92 92 92 92 90 85 79 76 73 70 66 64 61 61 59 58 56 54 51 48 46 43 41 38 34 31 29 26 24 24 25 25 26 26 25
76 79 81 82 83 83 81 77 75 73 71 71 71 72 72 70 65 61 59 58 55 54 53 51 49 47 45 42 39 37 34 32 30 29 28 28 28 28 29 27 26 24 23
68 69 69 70 70 70 69 69 69 69 68 67 66 65 63 63 62 60 58 56 53 49 46 45 43 41 39 37 35 33 33 32 32 31 30 29 28 27 26 24 22 20 19
58 59 61 64 64 63 62 60 59 58 57 58 59 58 56 57 55 53 52 50 48 46 43 40 39 39 38 37 37 35 34 32 30 28 26 25 24 22 22 22 22 21 20
56 57 58 61 62 63 61 60 59 57 56 55 53 51 50 49 48 47 46 45 43 41 41 40 39 37 36 35 33 31 29 28 27 26 25 24 24 24 23 23 22 22 22
48 50 54 61 67 70 71 70 70 68 65 62 58 56 55 53 51 49 46 43 41 40 38 36 35 34 34 33 33 31 30 28 28 28 27 26 26 25 25 25 24 22 21
34 37 41 44 47 51 56 60 63 65 67 65 63 62 61 59 55 51 48 46 43 41 40 39 37 35 33 32 32 32 32 31 30 29 28 27 25 24 22 21 20 19 18
25 26 28 31 34 36 37 38 39 40 41 43 44 44 44 44 45 44 43 40 38 35 34 33 32 31 32 32 32 30 29 28 26 24 23 23 22 21 20 19 20 21 22
23 25 28 29 31 32 34 35 36 37 39 39 39 39 39 40 40 40 39 38 36 34 33 31 30 28 27 25 24 23 22 22 22 22 21 20 20 21 22 23 25 25 25

GFSGL_prec_cthk_099.txt.gz
RH
69 70 74 73 76 75 71 68 69 75 80 91 90 76 66 66 56 47 48 50 53 58 63 67 72 77 91 94 91 87 86 97 97 96 95 93 87 84 80 78 78 74 69
79 77 83 85 94 85 78 76 73 72 76 94 83 72 71 70 59 53 53 53 55 57 63 68 72 83 96 93 93 98 91 97 97 96 94 91 91 87 83 82 79 77 76
90 94 93 90 87 91 81 81 78 72 78 89 77 74 73 72 62 52 54 57 56 56 62 66 83 96 98 96 95 93 94 98 97 97 95 93 91 94 89 86 85 85 85
91 93 96 93 92 89 90 87 81 79 79 90 75 73 73 72 61 56 55 56 53 61 66 79 89 97 96 96 94 95 99 98 97 97 96 94 93 92 90 91 92 94 95
97 97 94 92 93 92 88 90 94 88 89 85 75 76 78 74 64 56 55 55 58 64 70 85 92 97 97 99 97 97 98 97 97 96 96 98 95 94 93 92 94 95 96
96 98 98 94 94 96 98 95 98 97 97 84 78 77 77 73 66 60 57 54 59 67 70 87 96 97 98 98 99 98 98 98 97 97 97 98 97 95 96 97 98 98 98
93 98 96 96 98 97 99 97 97 99 98 90 82 79 79 74 74 69 62 58 61 68 70 73 92 96 98 98 98 99 98 99 99 97 98 98 98 97 97 97 97 98 98
90 88 91 95 98 98 98 99 98 99 98 94 83 80 80 80 81 77 73 69 65 68 72 71 77 91 97 98 98 99 98 98 98 98 98 98 98 98 97 98 98 98 98
94 93 94 99 96 98 98 98 97 98 99 94 87 86 85 87 88 89 86 80 78 80 77 85 81 78 77 92 98 96 96 99 97 98 99 98 99 99 98 98 98 93 85
94 95 93 91 95 97 97 99 98 99 98 98 97 91 88 89 91 95 94 91 87 87 83 83 85 86 85 85 87 95 96 94 94 96 97 98 98 96 97 95 91 86 77
92 94 94 92 93 95 96 98 98 98 98 98 98 95 92 94 95 97 95 95 93 90 92 90 87 87 88 92 95 96 95 94 95 98 95 98 99 94 88 88 86 83 87
83 88 88 89 90 94 94 94 96 97 98 98 98 99 98 98 98 98 99 98 96 95 93 92 91 91 90 94 95 96 95 95 96 95 95 95 97 98 97 98 98 95 92
75 75 81 85 85 86 89 90 93 95 96 97 96 96 97 97 98 99 98 97 98 97 97 96 95 96 94 94 99 97 96 98 97 96 94 93 91 91 88 87 86 83 77
73 73 74 75 79 81 85 87 90 92 93 96 96 94 95 97 97 94 93 97 98 97 98 97 94 94 96 96 97 98 97 97 96 96 94 92 91 88 82 75 68 62 59
73 74 75 77 78 79 82 85 87 89 90 91 93 94 95 94 96 96 94 95 96 97 97 97 97 96 95 95 96 97 97 94 90 89 86 85 83 81 80 81 81 77 74
70 72 73 75 77 78 80 82 82 85 87 88 90 91 90 91 93 93 92 93 94 95 95 96 97 97 97 96 95 93 89 87 84 82 81 78 76 73 71 68 66 62 60
58 61 63 66 68 73 79 82 84 87 89 89 88 86 86 85 82 78 78 79 81 82 85 85 84 83 82 83 82 83 82 82 82 78 75 74 72 69 68 65 64 61 55
54 55 55 55 57 59 61 63 70 77 83 85 84 85 85 82 77 72 67 67 66 66 67 68 68 69 71 71 69 67 65 64 64 63 61 59 57 56 55 53 52 50 46
37 39 42 45 48 51 51 53 54 55 57 60 65 71 74 74 70 69 70 72 71 69 68 67 66 66 65 63 63 62 61 60 59 59 57 55 53 51 47 45 44 43 42
30 31 32 33 33 34 34 36 40 43 46 49 52 53 56 60 62 64 67 70 71 71 69 68 65 63 61 58 56 55 54 52 51 48 46 45 44 44 43 43 43 43 42
29 29 32 34 34 34 33 33 33 34 37 40 42 46 48 51 53 55 57 59 60 60 60 60 58 57 56 55 53 51 49 47 46 45 45 44 44 44 45 44 43 41 39
24 24 24 24 25 26 28 30 33 36 38 41 44 45 45 47 52 54 54 53 53 54 56 57 56 54 52 51 49 47 46 46 45 45 45 44 43 41 40 38 36 34 32
26 26 26 26 27 27 28 28 28 28 29 30 31 35 40 43 46 51 54 56 58 55 54 53 53 53 51 49 46 45 44 43 42 42 41 41 40 38 37 35 33 31 30
26 26 25 25 26 27 28 29 30 30 31 31 31 30 29 29 30 32 37 43 44 47 52 53 53 52 51 49 46 44 43 43 42 42 41 40 37 35 34 33 32 30 28
25 24 24 24 26 28 29 29 30 31 32 33 33 33 33 31 30 30 30 30 31 32 35 37 40 43 46 47 46 45 43 41 39 38 36 34 33 32 32 31 30 28 26
26 25 25 26 27 28 30 31 33 34 35 36 36 35 35 35 34 34 33 33 32 32 32 33 34 35 35 35 35 35 34 34 34 33 33 33 32 30 28 27 26 25 25

GFSGL_prec_cthk_102.txt.gz
RH
81 76 75 73 70 68 69 74 80 71 63 64 71 84 89 98 95 93 79 69 53 46 59 56 57 63 69 73 76 79 83 84 85 85 84 92 98 96 94 96 87 79 70
86 83 79 75 73 81 81 78 84 82 77 76 78 81 85 92 92 79 81 66 48 52 55 58 62 66 65 70 76 78 87 91 89 86 89 98 97 95 96 96 93 85 79
90 91 91 90 88 89 89 92 89 89 83 80 81 78 77 97 92 78 77 63 57 57 61 61 58 61 62 66 74 90 89 97 97 91 90 98 96 96 96 94 91 89 80
95 93 96 94 95 98 91 97 97 94 86 84 83 78 80 87 80 78 79 68 60 58 61 59 55 59 62 74 92 97 96 97 97 98 92 98 96 96 97 94 90 89 88
94 97 94 98 90 98 95 96 98 91 85 85 81 82 82 81 76 80 79 67 62 57 56 59 61 67 73 88 98 97 97 98 98 98 95 99 97 96 96 97 95 90 90
97 98 98 97 96 96 95 94 94 97 95 94 91 91 84 81 78 82 78 69 59 56 57 61 66 71 81 96 96 99 99 98 98 96 98 96 97 96 94 92 95 93 95
98 94 95 99 98 97 94 97 99 96 94 93 93 95 90 86 83 82 75 69 63 59 60 64 70 72 80 96 97 99 99 98 97 99 99 97 97 95 94 94 95 96 95
98 96 95 98 98 98 99 97 98 99 98 98 98 97 98 87 82 81 77 73 69 66 62 66 71 74 74 86 97 98 99 99 98 98 97 97 98 98 99 98 97 99 99
98 98 97 94 97 98 98 96 96 97 98 98 98 99 94 89 87 82 79 78 75 71 72 72 77 81 81 77 87 96 98 98 98 97 98 97 98 99 99 98 98 98 98
96 97 98 96 98 96 97 97 99 99 99 99 98 98 98 96 90 87 84 87 87 85 83 81 81 85 86 87 85 84 94 97 98 98 98 98 98 98 98 98 99 98 99
90 94 95 95 96 95 95 97 98 98 98 98 98 98 98 99 98 98 95 93 93 92 91 91 89 88 90 89 90 91 92 90 93 94 96 98 98 98 98 98 98 98 97
77 84 89 90 89 91 94 97 97 97 98 98 98 98 98 98 99 98 98 97 97 96 94 93 94 96 95 93 96 95 96 96 97 97 96 95 96 97 98 98 99 99 99
70 71 73 77 83 88 86 88 94 96 96 96 97 97 97 98 97 98 97 98 98 98 98 98 97 96 95 95 96 97 97 98 98 97 98 98 98 98 98 98 98 96 98
69 69 70 70 71 73 78 84 85 88 90 93 96 96 96 97 98 96 96 98 98 98 97 97 98 98 98 98 96 97 96 96 98 97 98 98 98 98 98 97 97 95 92
62 63 65 67 69 70 71 72 75 81 84 87 89 90 92 95 95 96 96 97 96 96 96 97 97 97 97 96 97 97 97 97 97 97 97 96 93 89 82 79 76 74 72
51 51 52 56 60 64 67 69 71 74 75 78 82 84 86 87 87 88 93 96 95 95 96 96 97 97 97 96 97 97 97 96 96 96 95 96 96 96 95 95 91 87 83
41 46 47 45 48 49 50 54 59 64 67 70 74 74 72 69 67 69 72 76 81 88 93 92 96 95 95 96 96 95 94 93 91 90 87 84 83 80 77 75 73 69 67
31 29 34 34 36 39 41 45 47 48 49 47 51 56 60 65 69 70 70 68 67 67 66 69 72 74 77 80 80 80 81 80 80 79 78 76 75 75 74 74 74 73 70
24 25 32 32 31 30 32 32 35 37 39 43 47 46 45 48 53 60 66 71 72 74 73 73 71 69 67 66 66 67 68 68 69 69 68 66 65 65 62 60 57 55 55
28 22 25 30 31 32 32 32 33 33 34 34 35 33 39 43 46 45 49 57 63 68 72 74 69 67 66 65 65 62 61 60 59 57 56 56 56 56 55 54 54 52 50
27 27 27 28 29 29 29 29 29 30 33 35 36 31 30 38 38 41 43 47 50 53 56 59 58 59 60 61 61 61 61 60 58 56 54 53 52 50 49 49 48 47 47
29 29 29 29 29 30 30 31 31 31 31 30 30 29 29 37 39 41 42 41 41 45 49 49 49 49 51 53 54 54 53 52 50 48 48 48 48 48 48 49 48 49 49
32 32 31 32 32 32 33 32 33 33 32 31 31 30 30 30 30 31 33 35 39 41 43 45 47 47 48 48 48 49 49 50 50 50 50 49 50 50 53 54 49 53 52
34 34 33 32 32 31 31 32 33 32 31 32 32 31 31 31 30 29 27 25 23 24 28 34 38 44 45 47 49 50 51 51 51 49 48 48 49 49 52 51 49 46 44
33 31 30 29 28 28 29 32 34 34 35 35 36 34 33 32 31 31 30 29 27 27 24 23 23 24 29 35 38 42 47 49 52 54 53 51 50 49 49 48 48 45 42
29 27 26 26 28 29 30 32 35 36 38 40 41 41 40 39 38 36 34 33 33 32 31 29 27 26 26 25 26 28 30 32 35 37 39 41 43 42 41 40 39 44 39

GFSGL_prec_cthk_105.txt.gz
RH
78 81 76 73 70 80 84 82 73 78 80 84 78 77 71 71 70 71 81 95 93 83 71 56 45 46 57 59 67 70 72 77 79 87 89 89 85 82 85 89 84 88 93
78 85 83 79 77 76 77 82 79 76 82 84 73 70 68 68 71 79 83 86 91 82 71 57 44 54 58 63 65 64 69 73 77 79 84 83 86 88 92 87 94 95 89
78 87 88 83 87 83 79 78 82 86 81 88 77 75 72 71 75 80 80 91 85 88 71 58 43 58 53 57 62 62 66 71 76 83 82 90 92 91 91 97 97 98 97
80 86 85 89 94 95 89 88 88 87 84 88 90 84 78 82 83 82 86 92 94 85 69 52 54 56 59 60 56 67 68 70 75 87 87 94 96 95 93 96 98 98 98
84 89 93 97 98 97 95 98 97 95 93 93 92 91 86 84 81 79 79 88 79 78 71 58 59 61 62 60 61 63 71 80 91 97 96 94 97 96 94 95 98 99 98
91 95 95 97 98 96 97 98 95 97 99 94 94 91 87 82 81 78 84 81 78 79 69 59 66 59 59 62 69 76 83 90 99 98 98 99 97 98 95 97 98 99 98
95 97 96 96 98 97 96 95 93 99 98 98 96 93 91 84 84 86 82 79 80 81 71 64 60 63 66 70 72 78 95 98 98 98 97 99 99 98 98 97 98 98 95
96 97 97 96 97 98 99 99 99 94 95 96 97 98 95 93 95 93 91 86 82 84 72 66 63 66 71 72 73 73 94 98 99 98 97 98 99 99 97 97 97 97 98
97 97 97 97 97 97 98 98 96 92 93 98 97 98 95 95 95 98 97 91 84 82 74 73 73 76 73 74 76 74 83 96 98 99 99 99 99 99 99 99 98 99 98
94 97 97 97 97 97 97 96 96 94 95 97 99 98 98 98 99 97 98 94 85 82 77 77 76 80 82 82 82 81 83 86 96 98 98 98 98 99 98 98 98 98 98
89 91 94 95 93 95 97 97 96 96 97 98 98 98 98 98 98 98 99 96 91 87 82 88 87 87 87 86 90 86 86 89 89 92 98 98 98 99 98 98 98 98 98
75 75 81 84 86 90 88 91 97 97 97 97 97 97 98 98 98 98 98 98 98 94 98 96 95 94 93 92 94 94 92 90 89 92 91 95 97 97 97 98 98 98 98
70 70 70 69 73 76 79 85 85 89 94 97 97 97 97 97 97 98 98 98 98 98 98 99 98 97 98 97 98 96 97 96 95 95 94 94 98 97 95 95 98 98 98
59 59 60 61 61 62 64 67 74 79 86 88 91 95 96 97 96 97 97 97 98 95 97 96 97 98 98 97 98 98 98 97 98 96 97 97 97 97 97 98 98 99 99
46 46 47 48 50 52 53 55 58 62 67 74 80 84 87 92 95 96 96 96 94 95 95 97 97 97 97 96 97 97 97 98 98 98 98 98 98 98 98 98 97 97 97
37 37 37 37 37 38 40 42 44 47 49 54 57 60 62 66 71 77 86 94 95 96 96 97 96 95 96 96 96 97 96 96 97 97 97 97 96 95 93 91 92 91 89
29 29 28 29 29 30 31 31 32 35 35 32 36 39 43 47 51 54 55 61 69 82 92 95 95 95 95 96 96 96 96 97 97 97 97 97 96 96 96 95 93 92 90
27 27 27 27 27 28 28 29 29 29 30 31 30 27 28 31 36 41 45 54 60 60 61 65 69 78 86 90 92 94 95 94 95 95 94 92 90 89 86 83 82 79 80
25 24 26 26 26 27 28 31 31 30 31 30 29 29 31 31 30 30 36 44 50 55 63 70 75 75 72 69 69 72 76 81 83 84 86 85 82 82 78 77 76 74 72
28 27 27 30 32 34 36 37 36 36 36 36 30 25 25 32 32 33 34 35 37 41 46 53 60 64 69 74 76 76 75 74 75 76 75 74 74 74 73 71 70 70 69
30 29 29 30 35 36 37 38 38 38 37 37 37 27 24 31 33 36 36 35 35 36 38 39 40 44 49 54 61 65 72 75 73 71 71 68 68 67 66 66 64 63 62
31 31 31 35 36 37 35 38 38 38 38 38 38 38 34 35 37 36 31 32 36 38 39 40 41 41 40 42 45 44 45 51 57 63 60 62 64 64 65 65 64 58 54
33 33 35 39 37 36 38 37 37 37 36 36 36 36 37 37 34 32 31 30 30 30 31 36 42 45 41 37 37 41 44 39 40 45 52 55 59 61 60 60 60 60 60
33 32 35 38 36 35 34 34 34 34 34 34 35 35 35 35 34 33 30 30 30 30 30 29 26 24 29 38 43 41 40 40 40 41 45 54 53 54 54 56 59 58 55
33 34 36 33 33 32 33 34 35 36 36 37 37 38 38 38 37 37 37 32 30 30 29 29 29 27 23 23 23 24 29 38 41 43 45 49 55 56 58 56 55 55 54
37 36 36 35 36 38 39 40 40 40 41 41 41 41 42 42 42 42 41 40 37 36 34 32 31 28 25 27 24 24 24 23 24 26 31 36 43 49 48 51 45 51 51

GFSGL_prec_cthk_108.txt.gz
RH
42 44 44 54 66 73 75 78 78 73 74 59 77 72 64 66 74 75 81 88 95 77 85 80 90 86 86 83 66 57 55 61 68 69 78 83 91 92 95 97 93 89 86
45 44 44 51 69 78 76 76 83 82 85 82 80 80 76 77 75 78 78 77 75 79 80 85 88 95 89 73 65 55 59 60 66 64 65 78 80 93 90 92 90 89 88
47 47 50 52 64 80 82 80 81 83 88 91 95 91 87 84 85 79 73 73 69 78 83 94 97 94 78 65 59 58 63 64 65 65 63 74 74 83 89 90 89 89 91
52 52 56 59 68 76 84 84 85 88 87 92 91 98 84 97 79 71 70 67 77 82 83 87 87 87 73 58 50 60 58 60 67 67 67 68 74 80 84 84 91 93 92
58 59 62 65 77 82 89 91 86 90 92 88 91 90 90 95 89 82 75 79 83 85 79 74 86 75 62 55 56 58 60 65 62 67 73 73 82 84 88 88 93 98 94
62 63 68 73 86 88 90 89 91 93 92 99 94 94 98 94 92 85 87 90 86 84 84 84 83 71 61 57 58 61 61 61 65 69 69 73 83 92 97 92 98 99 95
66 71 76 83 91 93 94 97 96 97 98 97 97 98 97 95 96 94 95 93 91 91 94 96 84 76 63 56 62 58 59 64 70 77 83 87 92 98 94 96 98 99 98
77 80 87 92 95 95 96 97 97 98 98 98 98 97 98 99 97 99 93 92 93 95 98 90 84 80 68 69 62 62 62 68 71 83 95 97 97 96 96 98 99 99 99
88 93 95 97 97 97 97 98 98 97 98 98 97 97 97 98 99 98 98 93 96 97 91 86 84 87 73 67 66 66 67 68 70 83 94 98 98 98 97 99 99 99 99
95 94 96 97 97 97 97 97 97 97 98 97 96 98 98 98 98 99 98 96 96 98 95 93 89 88 75 72 75 75 71 74 79 81 88 96 98 98 98 98 99 98 98
91 90 91 90 90 93 95 95 96 97 98 97 96 97 98 98 98 98 98 99 98 98 97 98 93 89 76 76 78 80 83 83 82 83 86 92 98 98 98 98 98 97 98
82 79 78 78 80 81 83 84 88 93 96 96 97 96 97 97 97 98 98 98 98 98 98 99 98 93 82 82 83 87 89 88 87 87 90 91 94 96 97 96 98 98 98
59 59 59 56 54 55 57 63 69 73 76 83 89 95 96 96 96 96 97 97 97 97 98 97 98 97 91 91 94 91 92 96 95 94 92 93 92 94 97 98 97 97 98
41 42 41 40 40 40 40 40 42 44 49 53 60 69 80 89 95 97 97 97 97 97 96 97 98 98 96 98 98 95 95 95 96 97 96 97 98 97 97 96 98 97 95
32 29 30 29 30 30 30 30 29 30 27 30 35 40 46 53 68 80 88 94 96 97 97 97 96 96 97 97 97 96 96 98 97 98 96 98 98 98 98 98 98 98 98
26 26 24 25 25 25 25 26 27 28 27 22 21 22 25 30 36 44 51 63 74 86 91 96 96 96 95 96 97 95 96 97 96 97 97 96 97 97 97 97 97 97 97
23 24 23 23 23 24 24 25 24 26 26 25 23 22 22 20 21 24 29 37 45 51 61 74 86 90 94 96 96 96 97 95 96 97 97 96 96 96 96 97 96 97 97
22 25 26 26 25 25 25 24 24 24 25 25 22 22 27 28 26 22 24 23 24 30 40 48 53 62 71 82 89 93 94 96 97 96 96 96 96 95 96 95 95 96 96
31 28 32 37 35 35 34 34 32 29 29 25 22 18 24 26 28 27 26 28 30 29 29 31 37 43 51 55 59 67 72 77 84 88 93 94 95 94 93 89 90 90 88
31 31 31 32 34 31 31 36 34 34 33 32 26 23 21 25 25 25 26 29 30 32 33 33 32 33 38 42 46 52 57 62 68 71 74 74 74 72 73 75 78 79 80
31 29 29 29 29 29 29 36 35 34 34 33 34 29 24 24 26 26 26 27 28 30 34 36 35 35 33 33 35 36 41 47 53 59 63 69 72 72 71 70 69 68 67
29 29 28 29 28 27 29 29 32 31 32 33 32 32 32 28 25 24 24 25 26 27 28 29 33 36 36 37 38 37 36 36 38 41 44 51 57 64 71 73 71 67 65
29 28 29 29 27 26 27 26 32 32 32 32 33 33 33 32 32 29 25 25 26 26 25 25 27 28 29 33 37 42 39 36 38 37 39 43 45 44 46 50 55 60 62
30 30 30 30 30 28 28 29 31 33 34 34 35 37 37 37 36 36 35 31 29 27 27 25 24 24 24 25 24 27 32 38 38 40 42 45 46 46 45 43 43 46 45
34 33 31 33 32 32 33 32 34 36 37 39 39 39 40 40 40 40 41 39 38 34 33 31 30 27 24 23 22 23 23 23 25 31 42 48 50 51 50 49 47 45 45
38 38 38 36 36 35 36 38 38 41 41 43 43 45 45 46 45 46 46 46 43 43 40 38 35 34 32 28 28 26 24 23 24 24 25 27 31 38 48 50 54 55 53

GFSGL_prec_cthk_111.txt.gz
RH
38 38 40 41 40 40 44 50 53 57 64 67 74 72 57 70 89 88 71 64 64 76 87 77 77 79 85 82 78 89 88 80 69 55 53 68 77 78 84 95 90 93 96
43 42 42 43 46 44 46 48 55 61 67 69 77 83 77 81 89 88 72 65 70 88 76 84 89 87 96 85 80 86 93 83 77 57 57 70 79 81 84 84 91 90 93
48 45 45 50 50 49 49 49 57 62 70 73 75 76 81 86 94 86 81 80 82 78 88 94 78 93 85 86 88 89 86 86 72 61 64 70 76 74 75 81 84 88 85
52 51 52 53 53 54 52 55 58 64 74 79 80 79 83 91 97 98 91 90 82 85 91 92 81 79 74 81 87 93 91 85 64 63 67 67 68 70 71 71 73 78 81
58 58 60 60 58 55 56 60 63 74 79 84 85 89 92 95 93 91 92 97 87 86 91 79 84 86 85 93 98 96 84 67 61 70 65 61 64 64 65 66 73 77 78
63 67 66 66 64 62 63 66 73 80 86 89 91 91 90 90 93 93 86 94 88 86 77 87 87 88 92 95 94 83 73 69 66 69 63 64 62 61 65 68 75 87 97
69 71 72 72 71 69 68 75 84 88 91 93 94 96 93 93 96 90 89 90 92 91 94 90 90 93 97 92 88 81 68 63 67 69 63 62 64 68 71 71 76 91 92
80 81 81 80 79 79 80 85 92 94 93 93 94 95 96 98 97 93 98 95 92 96 99 94 95 93 90 94 85 80 69 63 68 62 64 65 71 78 80 90 94 94 98
91 93 91 89 92 95 96 95 97 97 96 93 97 98 98 98 98 98 98 95 98 97 97 98 93 94 98 93 90 83 69 69 64 68 68 68 71 82 96 99 98 99 99
96 94 94 92 91 90 94 95 97 97 97 96 97 97 98 99 99 98 98 97 98 95 92 92 97 94 100 91 87 85 75 68 70 70 69 70 76 82 91 95 98 98 98
92 88 82 80 79 78 81 82 84 86 91 94 95 96 97 96 97 98 98 98 98 96 97 97 97 98 98 89 88 89 78 73 74 72 70 74 79 79 88 98 98 98 99
73 70 63 56 52 49 52 56 57 59 63 69 76 82 89 93 95 96 97 98 98 98 96 96 97 97 98 95 94 93 89 79 80 80 81 80 80 80 83 92 98 97 97
50 46 42 37 37 37 30 26 27 30 37 40 41 46 58 72 81 90 93 95 96 96 97 97 97 98 98 99 97 96 97 88 84 88 86 84 83 81 84 88 93 97 98
25 23 23 23 23 24 23 22 23 21 17 20 23 27 32 38 45 55 70 82 90 95 97 96 96 97 97 97 97 98 98 96 92 93 95 91 90 87 87 87 90 95 96
23 21 21 22 23 23 24 24 24 24 21 20 20 19 21 26 31 32 38 48 60 75 84 89 94 95 96 96 96 96 97 97 97 95 95 97 96 95 94 94 93 94 95
22 22 22 23 24 24 23 24 24 24 23 19 20 22 23 23 24 23 20 21 31 43 50 62 76 83 88 94 96 96 97 97 97 97 96 97 97 96 96 97 97 97 97
22 24 25 25 26 27 26 26 26 25 23 20 18 23 24 24 22 22 21 20 19 19 24 34 46 57 69 81 85 90 95 96 96 97 96 96 97 96 97 96 97 97 97
26 30 31 31 30 30 31 29 28 24 23 21 19 19 21 22 21 20 21 21 20 20 22 24 28 34 40 49 61 74 86 90 92 94 95 96 96 96 96 96 96 96 97
29 29 29 27 26 25 26 26 25 25 22 21 20 19 17 18 17 17 17 19 23 26 28 27 27 28 32 35 37 44 52 62 73 84 90 90 92 95 97 97 96 95 96
27 27 28 27 27 27 28 27 27 27 26 22 20 19 18 17 16 16 16 16 19 22 25 27 30 31 30 30 33 33 34 39 46 55 62 70 74 77 82 87 91 94 95
27 27 27 26 24 25 26 26 29 30 30 31 29 27 25 21 19 19 18 17 17 17 20 22 23 26 32 33 31 31 32 33 36 40 44 49 54 57 62 66 67 67 68
27 27 27 26 26 26 26 27 29 31 32 34 34 33 31 29 27 23 22 21 21 20 20 20 21 22 22 24 31 34 35 35 35 35 36 38 40 46 51 55 58 60 61
28 26 27 28 28 28 27 27 27 29 30 31 33 35 35 34 34 34 32 30 28 26 23 23 22 21 21 21 23 26 31 37 42 40 39 38 38 38 40 42 43 46 51
30 30 31 31 31 30 30 30 30 28 28 28 32 34 36 38 38 38 38 38 37 33 31 28 28 27 26 23 21 20 20 22 26 38 44 45 45 45 44 43 42 41 42
33 34 33 34 34 35 36 36 37 35 32 31 32 33 36 39 40 41 42 42 42 43 40 36 36 34 32 31 29 26 22 21 21 26 31 35 43 51 55 54 51 48 45
35 35 33 33 32 33 33 33 34 36 38 40 42 41 40 39 41 43 43 45 46 47 46 44 44 42 40 38 37 35 32 27 25 25 26 29 31 34 37 44 53 56 53

GFSGL_prec_cthk_114.txt.gz
RH
39 40 42 43 42 42 40 41 39 37 36 40 42 45 50 54 64 63 60 56 73 88 83 84 77 79 85 81 83 85 80 79 74 73 74 76 65 59 54 66 76 81 86
43 45 47 48 45 42 42 43 41 40 41 42 46 52 54 63 69 75 77 73 83 91 81 73 72 78 84 85 85 83 79 82 86 82 86 80 69 66 59 65 76 85 93
47 49 50 50 47 46 45 43 42 44 47 47 50 56 61 70 71 73 88 91 88 89 77 67 73 80 79 81 80 83 85 91 94 89 92 89 77 70 60 73 80 81 94
51 51 54 55 54 52 52 48 48 50 52 52 56 62 67 77 79 76 83 93 92 92 84 80 80 88 86 85 88 90 88 94 97 90 88 89 79 64 65 73 72 74 78
55 58 59 61 60 61 57 54 54 56 56 59 66 72 77 82 82 84 90 91 88 87 96 91 90 92 91 94 89 85 89 95 97 94 92 90 72 66 64 68 70 69 67
60 61 64 67 72 70 65 63 63 62 62 69 75 80 88 90 93 95 93 96 95 98 95 94 98 94 89 90 90 86 91 94 95 95 89 82 63 65 64 60 64 67 67
66 67 69 71 70 71 72 72 71 69 73 79 80 87 93 96 96 98 98 98 98 99 99 93 96 96 87 90 90 94 99 97 97 89 80 71 64 65 65 66 62 64 66
73 74 73 77 79 81 81 79 79 80 83 86 86 92 95 95 97 97 96 96 97 96 93 98 93 88 92 92 97 98 92 96 92 81 73 69 65 66 61 65 66 69 73
86 85 83 82 83 82 81 82 81 84 90 92 94 96 97 97 98 98 98 98 97 97 95 96 93 95 96 94 94 99 97 97 86 72 67 68 63 62 64 64 68 72 78
93 87 82 78 74 72 69 68 73 79 84 89 94 96 97 97 98 98 98 98 98 98 98 98 97 99 98 96 98 99 99 92 87 76 63 61 61 63 67 68 70 77 86
76 65 57 51 45 42 42 47 47 49 52 54 61 73 84 92 95 96 97 97 97 98 98 98 98 97 98 97 98 98 98 92 87 80 70 67 67 66 69 73 77 80 86
51 46 39 35 35 36 35 34 30 27 28 35 37 37 40 51 65 81 91 95 95 96 96 97 97 98 97 98 98 99 98 95 91 88 81 72 71 73 72 74 76 80 86
32 26 23 20 19 17 16 16 15 17 21 20 20 27 30 31 32 40 53 65 83 90 93 95 97 96 97 98 97 98 99 99 94 88 88 86 80 80 83 81 83 83 86
19 19 19 20 21 22 21 20 20 18 18 19 21 21 21 26 25 25 28 36 45 55 68 83 89 90 94 96 96 97 97 98 98 97 95 96 93 83 88 86 87 84 86
21 23 25 26 26 26 25 26 24 21 18 22 22 21 20 21 22 22 17 21 28 36 40 46 56 71 82 89 93 95 96 96 97 97 97 98 98 95 90 89 90 89 89
27 26 26 26 26 24 23 22 24 22 20 18 20 21 20 20 18 18 16 15 15 17 21 29 36 45 56 67 77 85 93 96 97 97 97 97 98 97 97 94 95 97 95
25 24 23 24 25 25 24 22 21 20 19 18 16 18 20 17 13 12 14 14 13 13 15 19 22 24 32 45 54 64 77 86 91 93 96 95 96 97 97 97 96 97 98
25 27 27 27 26 26 26 25 24 21 19 18 16 15 16 14 12 11 11 11 10 11 15 18 21 22 24 26 31 40 50 59 76 84 89 93 95 96 96 96 97 97 97
27 28 27 25 23 24 23 22 22 21 20 20 19 18 17 16 14 12 12 10 12 12 15 16 18 21 22 24 28 30 32 36 42 53 69 83 91 95 96 96 97 96 96
27 27 25 23 21 21 22 22 23 22 22 22 22 20 19 17 16 16 15 14 14 13 13 14 15 16 17 21 24 27 30 31 32 35 40 48 57 73 84 94 96 97 97
28 27 25 23 22 23 23 24 24 24 23 23 25 25 24 23 22 20 20 20 19 18 17 16 15 14 15 16 19 22 28 30 31 33 37 40 42 45 52 65 70 79 87
29 27 25 25 25 24 23 23 23 23 24 23 24 25 26 26 27 28 25 25 25 24 23 21 20 19 18 17 18 18 21 24 30 32 36 38 40 41 45 48 50 55 59
31 29 27 28 27 26 26 28 28 28 26 26 25 24 25 26 28 29 31 31 30 30 29 27 27 26 24 22 21 18 17 17 21 27 32 39 41 40 40 40 42 47 52
33 30 28 28 28 27 28 29 30 30 31 31 33 33 32 30 29 29 30 32 33 34 34 34 33 33 32 30 28 26 22 20 20 22 26 30 37 45 45 46 44 43 42
32 30 28 28 28 27 26 26 26 27 29 31 33 35 37 38 37 36 35 35 36 36 36 37 37 38 37 36 35 33 31 27 24 24 29 29 30 33 42 47 50 52 51
32 31 30 29 28 27 27 26 25 26 27 29 32 37 38 40 43 43 44 46 45 43 41 39 39 44 45 43 42 40 38 35 31 30 31 32 32 31 32 35 42 46 50

GFSGL_prec_cthk_117.txt.gz
RH
55 50 49 42 41 39 39 43 52 44 39 36 35 35 36 36 36 42 42 43 43 45 54 60 59 62 70 79 84 83 88 87 88 95 88 80 79 73 63 63 65 62 54
50 49 46 42 42 40 41 42 42 45 44 40 39 39 37 37 39 42 45 47 50 57 67 73 61 84 90 88 77 86 86 87 95 97 93 86 81 73 67 68 70 62 57
51 49 48 46 45 45 46 46 46 44 42 43 43 42 41 40 42 46 48 50 56 64 76 86 87 90 93 90 87 86 90 92 93 93 85 92 88 78 79 81 74 64 62
56 54 53 53 52 49 49 51 52 50 52 51 48 47 45 47 48 50 53 57 66 74 86 97 91 92 89 85 83 87 92 90 93 88 93 88 92 90 91 88 75 66 62
56 61 63 62 60 59 59 58 59 59 57 56 55 54 53 53 54 56 61 67 75 82 84 92 97 90 79 72 81 88 93 92 85 87 83 88 92 95 93 87 81 73 63
68 68 70 66 65 69 67 67 67 66 63 61 60 59 59 58 58 63 70 80 84 89 91 93 93 87 85 89 98 90 89 86 84 82 84 85 92 94 91 89 79 70 66
72 73 73 72 72 71 68 70 71 71 70 68 67 66 64 63 65 66 81 90 95 98 98 97 96 92 95 98 93 90 93 93 89 90 91 87 96 95 92 87 78 76 69
79 77 74 74 71 70 68 67 67 68 67 71 72 69 69 68 71 74 88 96 98 98 99 99 98 99 98 96 93 85 86 90 95 97 95 92 99 95 95 82 77 72 66
83 81 78 75 70 65 58 53 50 49 50 52 57 66 74 77 78 83 94 98 98 98 99 99 99 98 99 97 98 88 94 96 99 95 98 99 97 95 92 78 74 69 66
79 71 63 55 45 38 33 32 33 37 41 46 46 47 51 65 77 88 93 96 97 97 98 97 99 98 98 94 92 93 96 98 99 98 95 96 96 89 87 79 76 63 65
58 47 40 31 29 30 33 36 35 35 33 30 30 35 37 41 47 58 77 88 91 96 97 98 97 98 98 98 98 96 98 98 99 99 99 97 90 83 77 75 69 67 68
41 35 34 31 23 17 14 14 14 16 15 21 26 25 26 28 29 31 43 58 66 79 88 94 96 96 97 98 98 98 98 99 99 98 98 98 96 82 75 70 72 69 71
24 19 19 18 18 18 17 17 15 15 18 18 17 17 18 20 20 24 25 27 37 50 60 69 85 93 95 95 96 97 98 98 98 98 98 98 99 92 80 77 76 74 74
21 22 22 22 23 24 23 21 18 16 17 21 16 14 13 12 15 14 12 14 18 23 31 44 56 66 74 87 93 95 95 97 98 98 98 98 98 98 96 87 79 84 79
23 24 25 26 25 24 23 21 19 19 19 21 22 18 16 14 18 18 15 10 11 13 14 18 26 35 46 61 72 85 94 95 95 96 97 97 97 98 98 97 96 91 84
24 25 25 24 23 22 21 21 21 21 19 18 21 19 15 15 10 8 9 9 9 9 8 10 12 16 23 31 41 55 68 78 92 94 94 96 96 97 97 98 97 98 98
23 23 23 22 23 24 24 22 21 20 18 17 16 19 19 14 10 9 8 8 7 7 7 10 12 13 15 19 22 29 40 53 64 80 91 96 95 96 97 97 96 97 97
25 26 25 26 28 26 24 24 23 21 18 17 18 17 16 14 12 10 9 8 7 7 8 9 11 12 13 14 17 20 22 28 35 45 63 79 88 95 96 96 96 96 96
24 27 27 25 23 21 21 20 18 17 17 17 18 17 18 18 16 14 13 11 11 11 10 10 11 11 12 13 15 16 19 21 27 30 34 39 65 80 92 95 96 96 96
28 29 26 23 21 20 19 18 17 17 17 18 18 19 18 18 17 17 17 17 16 16 15 14 13 13 12 12 13 14 16 18 19 24 30 33 37 45 63 79 89 95 96
30 29 27 25 23 22 21 20 20 19 18 19 20 19 19 19 20 20 21 21 21 21 20 19 18 17 16 15 14 14 15 17 19 20 24 29 34 39 42 50 60 75 85
32 31 30 27 26 25 24 24 24 24 24 24 24 23 23 22 22 21 21 22 23 24 23 22 22 22 21 20 19 18 16 15 16 20 22 25 27 32 39 43 46 55 59
34 34 30 27 27 27 25 25 25 24 25 25 25 27 28 29 28 28 26 25 25 25 25 25 26 28 29 26 25 24 23 21 19 19 22 25 27 28 31 38 43 43 52
37 34 30 27 26 25 24 23 23 23 24 24 25 26 29 31 33 32 31 30 32 31 31 30 28 29 32 33 32 30 28 27 25 23 25 28 29 30 31 35 38 42 45
37 34 29 27 25 24 23 22 21 21 21 23 24 26 29 31 34 36 37 39 39 40 40 38 36 35 35 35 38 38 34 33 31 29 29 32 32 33 32 33 37 42 44
37 30 27 26 25 22 21 20 20 20 20 21 23 26 28 30 33 37 39 41 43 44 46 46 45 44 43 43 42 43 43 40 38 35 33 35 36 36 35 34 33 35 39

GFSGL_prec_cthk_120.txt.gz
RH
83 77 72 67 60 57 48 44 41 40 42 45 53 48 43 40 39 41 45 39 40 40 44 44 41 43 46 50 60 63 70 77 82 83 77 76 85 86 87 83 71 67 63
62 60 59 57 56 52 48 47 45 45 43 43 45 50 55 51 43 41 40 41 42 43 46 48 47 51 54 59 66 67 71 74 81 86 91 88 89 88 89 90 80 73 67
61 60 58 58 57 54 54 52 50 50 49 47 47 48 47 46 45 44 42 40 44 44 49 50 52 57 61 65 75 80 85 91 94 94 94 94 97 93 91 92 86 77 73
64 66 63 62 61 61 62 60 56 54 54 53 52 53 53 53 51 45 46 46 47 50 54 57 59 61 67 79 87 92 94 98 94 95 97 96 94 90 88 97 89 79 70
64 69 68 69 70 71 75 71 67 66 62 57 57 58 58 56 53 51 50 53 56 59 61 62 63 66 74 85 97 94 94 93 89 88 95 94 94 92 95 98 93 85 75
68 65 64 67 70 70 70 69 70 70 68 63 62 59 59 58 58 57 57 60 61 61 64 66 70 73 80 83 89 99 98 88 84 91 94 91 93 95 89 96 96 91 88
73 75 74 73 70 67 63 60 57 56 54 55 59 60 61 62 64 64 66 66 66 65 69 73 80 86 89 91 93 97 98 89 88 94 96 94 94 93 93 89 94 87 86
80 75 72 69 64 57 50 44 39 38 40 41 40 45 51 58 62 65 69 70 71 70 73 80 89 96 95 94 97 99 99 97 96 98 93 93 92 93 90 92 91 95 90
82 76 73 62 51 44 37 29 30 33 34 29 29 30 32 36 42 56 68 72 70 73 79 86 92 96 97 98 97 99 99 97 98 98 98 96 95 96 98 98 96 97 98
64 53 48 41 36 30 28 30 35 31 31 29 27 26 29 33 35 37 41 50 65 72 82 89 93 95 97 97 98 98 98 98 98 95 96 98 99 98 97 98 99 94 99
50 40 31 27 29 32 22 16 15 17 15 16 21 23 23 25 27 27 30 33 40 48 64 81 89 95 96 97 97 98 98 98 97 97 98 99 98 98 99 98 99 97 99
45 46 39 23 18 17 16 15 14 13 13 16 15 12 12 13 14 15 20 21 24 29 40 46 57 75 91 94 97 97 97 97 98 98 99 98 98 98 99 98 98 98 96
30 24 22 21 20 19 17 16 14 14 13 12 11 11 10 9 9 9 10 13 15 17 21 26 33 41 50 67 85 94 96 96 97 97 98 98 98 99 98 98 99 99 95
24 23 23 21 21 20 19 18 17 18 17 15 13 13 11 9 8 7 7 6 6 6 8 10 13 19 24 32 47 64 83 93 96 96 97 97 97 98 98 98 97 99 93
23 22 21 23 24 23 22 21 20 21 22 22 20 15 14 11 12 8 7 6 6 6 6 5 5 5 7 12 19 29 43 63 80 92 96 96 96 96 97 97 98 98 97
21 21 24 24 24 22 21 20 20 19 21 22 20 19 15 18 16 8 8 7 7 6 6 5 6 6 8 9 9 11 18 29 42 62 82 91 95 96 96 96 96 97 98
22 24 25 25 24 22 22 20 20 20 18 17 17 16 19 19 12 9 9 9 8 7 7 7 8 8 8 9 10 11 12 14 19 31 39 62 82 95 96 96 96 96 97
24 25 26 27 26 25 24 22 21 19 17 15 14 14 13 14 13 11 10 9 8 8 9 10 10 10 10 9 9 10 11 12 13 17 21 30 45 64 82 93 96 96 96
25 26 27 28 26 24 22 20 19 17 15 14 12 12 12 13 12 11 12 11 12 11 12 12 12 12 12 12 11 10 10 11 13 14 17 19 24 33 51 68 81 92 96
26 28 29 29 27 24 24 23 21 19 16 15 16 16 16 16 15 15 14 14 15 14 14 14 15 16 15 14 13 13 12 11 11 13 16 18 21 25 28 37 59 72 85
28 31 32 30 27 27 27 25 22 19 17 18 19 21 21 21 21 21 20 20 19 18 18 18 18 18 18 18 18 16 16 15 14 14 17 20 21 22 26 28 31 40 59
33 35 34 31 28 28 27 23 19 17 18 18 19 21 22 24 25 25 26 25 25 26 26 25 23 21 21 21 21 22 20 19 17 17 17 22 25 26 26 27 28 30 36
37 38 35 31 30 29 25 20 18 18 18 19 19 19 21 24 27 29 31 32 32 33 32 32 30 28 26 25 25 26 27 26 24 22 21 23 27 28 29 29 29 30 33
41 39 36 33 30 26 22 19 19 18 18 18 18 20 22 24 26 27 29 32 35 37 37 37 37 36 35 32 31 30 30 31 31 29 26 25 28 31 32 32 33 32 36
43 41 37 33 28 24 21 21 20 19 19 19 20 20 20 21 23 27 29 30 33 35 38 41 42 43 42 41 39 37 36 36 36 37 35 31 30 33 35 35 34 34 33
45 41 38 31 27 24 22 21 20 20 20 21 20 20 22 23 24 24 25 28 32 36 39 42 45 47 48 49 48 47 45 43 42 42 42 40 36 34 36 37 37 36 34

GFSGL_prec_cthk_126.txt.gz
RH
49 50 65 68 60 63 77 80 79 81 81 81 75 65 59 50 49 47 46 49 57 59 58 51 46 46 47 46 46 51 49 50 53 58 56 49 50 50 56 57 53 47 44
53 52 53 66 75 75 74 80 77 77 81 79 69 62 56 52 52 52 51 52 54 60 60 61 59 54 55 52 54 58 54 54 57 58 48 49 48 51 58 68 69 62 59
57 58 59 60 65 84 85 83 82 83 79 71 65 63 63 60 58 57 56 57 58 59 64 66 70 66 60 63 64 65 65 64 61 59 54 51 48 57 60 65 67 68 67
59 61 61 61 62 60 68 76 74 73 69 67 66 63 62 61 58 59 61 63 63 64 64 63 64 69 69 64 58 60 60 57 58 60 57 58 58 57 64 68 70 73 72
64 68 68 66 63 60 60 58 58 56 55 54 54 55 54 51 54 59 62 64 63 64 64 66 67 66 64 62 64 59 58 60 59 60 62 66 67 67 74 80 76 88 83
64 65 65 63 59 57 54 49 47 44 40 38 36 35 34 30 32 35 45 55 62 65 67 68 69 68 67 65 62 61 60 61 62 70 68 69 67 73 79 86 89 97 90
66 64 61 57 54 52 46 40 35 31 28 26 25 27 25 25 24 24 24 27 33 40 51 62 68 70 67 69 68 65 65 64 68 69 71 71 74 87 83 91 99 97 94
71 66 60 56 48 42 39 39 36 30 27 25 22 22 20 21 24 22 22 23 23 24 25 30 40 57 63 68 69 71 72 72 71 73 75 79 78 78 81 92 94 98 97
70 61 52 48 49 46 36 32 26 32 31 27 26 24 24 21 19 19 18 20 22 22 21 21 22 31 34 50 59 67 71 73 75 78 80 82 84 85 88 91 95 97 98
51 44 47 44 36 32 34 35 29 26 21 18 15 16 20 18 16 18 16 14 13 15 18 19 18 18 21 23 28 31 57 65 70 78 81 84 90 91 93 97 98 99 96
48 38 35 36 44 40 27 21 18 17 17 19 21 15 13 12 13 10 8 7 6 6 6 6 7 8 9 13 18 21 27 36 46 69 81 88 94 95 96 97 99 99 98
47 45 41 29 26 23 22 24 23 24 24 26 25 24 22 13 10 8 6 6 5 5 5 5 5 5 4 5 4 6 9 17 23 36 58 81 88 92 96 97 97 98 99
32 29 26 23 22 27 29 30 28 28 28 27 26 25 24 22 17 8 7 7 6 6 6 5 5 5 5 4 4 4 4 5 7 14 23 38 64 89 96 96 97 97 98
38 33 31 27 30 32 31 30 30 30 29 28 27 27 25 22 19 14 11 9 7 7 8 7 6 6 6 5 5 5 5 5 8 10 10 15 26 50 76 94 96 96 96
30 30 30 32 33 32 27 30 33 31 29 28 28 27 24 22 20 11 9 8 8 9 12 10 8 8 7 7 8 9 9 6 7 12 10 9 10 19 38 59 89 95 96
29 30 29 32 32 33 33 35 25 25 27 24 27 26 24 22 15 12 16 16 16 17 19 19 18 18 18 17 16 16 16 15 15 16 16 15 12 16 20 31 47 71 88
29 27 25 31 32 33 34 32 31 30 25 23 24 26 24 23 22 21 21 21 20 20 20 20 20 20 19 19 18 17 17 17 17 17 17 17 17 17 17 19 27 41 57
21 22 25 27 30 36 38 35 33 32 34 36 29 26 25 24 23 22 22 24 25 23 22 23 23 24 24 24 23 22 20 18 18 18 18 18 18 18 18 18 19 23 36
20 23 25 28 31 37 39 38 36 35 34 33 31 28 27 26 25 24 23 25 30 31 31 32 32 30 27 26 24 25 27 23 20 19 19 19 19 20 22 22 23 22 24
22 25 29 37 40 40 39 37 36 35 35 34 32 25 26 28 26 25 25 25 26 30 29 32 33 33 32 28 26 25 28 29 28 23 21 21 21 26 29 28 29 29 29
31 28 29 36 40 39 37 36 36 35 35 33 31 23 22 29 27 27 27 26 26 26 26 25 26 26 26 26 29 28 29 31 30 28 27 24 24 26 27 30 30 30 31
30 30 32 34 33 31 37 35 35 36 33 33 32 31 23 30 29 29 28 27 27 27 26 26 26 26 27 27 29 30 32 34 32 30 29 28 32 33 28 32 32 32 32
27 29 31 34 34 36 36 35 32 31 30 30 33 32 26 24 24 25 23 21 21 21 21 20 22 24 23 25 29 30 32 34 35 36 35 34 37 36 35 35 35 34 34
30 32 35 36 37 39 40 38 33 31 29 29 29 26 23 21 21 21 21 21 21 21 21 22 22 23 24 25 26 31 31 35 38 40 41 40 42 41 40 38 38 37 37
35 37 40 41 43 44 42 38 36 34 32 30 27 24 22 22 22 22 21 21 22 23 24 24 24 26 27 28 29 31 32 33 39 43 45 46 46 45 45 44 43 41 40
44 46 48 48 48 46 42 40 38 34 32 30 25 23 24 23 22 22 23 24 25 25 25 26 28 29 30 32 33 33 35 36 40 46 49 51 52 50 49 45 48 46 44